Wetterdaten: Donnerstag, 23.11.2017
Datum Zeit Temp. A. Pool Temp. Feuchte A. Luftdruck Regen Wind Richtung Richtung Sonnenschein ET UV Solar Taupunkt Windchill Windben Empfang
23.11.2017 00:00 0,9 C 5,0 C 98 % 1013,3 hPa 0,0 l/m 0,0 km/h (0 Bft) S-SW 198 0 min 0,000 mm 0,0 UV-I 0 W/m 0,6 C 0,9 C 0,0 km/h (0 Bft) 93,75 %
23.11.2017 00:02 1,1 C 5,0 C 98 % 1013,3 hPa 0,0 l/m 0,0 km/h (0 Bft) S-SW 198 0 min 0,000 mm 0,0 UV-I 0 W/m 0,8 C 1,1 C 0,0 km/h (0 Bft) 95,24 %
23.11.2017 00:04 1,2 C 5,0 C 98 % 1013,4 hPa 0,0 l/m 0,0 km/h (0 Bft) S-SW 198 0 min 0,000 mm 0,0 UV-I 0 W/m 0,9 C 1,2 C 0,0 km/h (0 Bft) 97,87 %
23.11.2017 00:06 1,0 C 5,0 C 98 % 1013,3 hPa 0,0 l/m 0,0 km/h (0 Bft) S-SW 198 0 min 0,000 mm 0,0 UV-I 0 W/m 0,7 C 1,0 C 0,0 km/h (0 Bft) 100,00 %
23.11.2017 00:08 1,1 C 5,0 C 98 % 1013,3 hPa 0,0 l/m 0,0 km/h (0 Bft) S-SW 198 0 min 0,000 mm 0,0 UV-I 0 W/m 0,8 C 1,1 C 0,0 km/h (0 Bft) 100,00 %
23.11.2017 00:10 1,1 C 5,0 C 98 % 1013,3 hPa 0,0 l/m 0,0 km/h (0 Bft) S-SW 198 0 min 0,000 mm 0,0 UV-I 0 W/m 0,8 C 1,1 C 0,0 km/h (0 Bft) 100,00 %
23.11.2017 00:12 1,1 C 5,0 C 98 % 1013,3 hPa 0,0 l/m 0,0 km/h (0 Bft) S-SW 198 0 min 0,000 mm 0,0 UV-I 0 W/m 0,8 C 1,1 C 0,0 km/h (0 Bft) 100,00 %
23.11.2017 00:14 0,8 C 5,0 C 98 % 1013,2 hPa 0,0 l/m 0,0 km/h (0 Bft) S-SW 198 0 min 0,000 mm 0,0 UV-I 0 W/m 0,5 C 0,8 C 0,0 km/h (0 Bft) 100,00 %
23.11.2017 00:16 0,9 C 5,0 C 97 % 1013,2 hPa 0,0 l/m 0,0 km/h (0 Bft) S-SW 198 0 min 0,000 mm 0,0 UV-I 0 W/m 0,5 C 0,9 C 0,0 km/h (0 Bft) 100,00 %
23.11.2017 00:18 1,0 C 5,0 C 98 % 1013,2 hPa 0,0 l/m 0,0 km/h (0 Bft) S-SW 198 0 min 0,000 mm 0,0 UV-I 0 W/m 0,7 C 1,0 C 0,0 km/h (0 Bft) 100,00 %
23.11.2017 00:20 1,1 C 5,0 C 98 % 1013,2 hPa 0,0 l/m 0,0 km/h (0 Bft) S-SW 198 0 min 0,000 mm 0,0 UV-I 0 W/m 0,8 C 1,1 C 0,0 km/h (0 Bft) 100,00 %
23.11.2017 00:22 0,9 C 5,0 C 98 % 1013,1 hPa 0,0 l/m 0,0 km/h (0 Bft) S-SW 198 0 min 0,000 mm 0,0 UV-I 0 W/m 0,6 C 0,9 C 0,0 km/h (0 Bft) 100,00 %
23.11.2017 00:24 0,6 C 5,0 C 97 % 1013,1 hPa 0,0 l/m 0,0 km/h (0 Bft) S-SW 198 0 min 0,000 mm 0,0 UV-I 0 W/m 0,2 C 0,6 C 0,0 km/h (0 Bft) 100,00 %
23.11.2017 00:26 0,5 C 5,0 C 97 % 1013,1 hPa 0,0 l/m 0,0 km/h (0 Bft) S-SW 198 0 min 0,000 mm 0,0 UV-I 0 W/m 0,1 C 0,5 C 0,0 km/h (0 Bft) 100,00 %
23.11.2017 00:28 0,7 C 5,0 C 98 % 1013,1 hPa 0,0 l/m 0,0 km/h (0 Bft) S-SW 198 0 min 0,000 mm 0,0 UV-I 0 W/m 0,4 C 0,7 C 0,0 km/h (0 Bft) 98,00 %
23.11.2017 00:30 0,9 C 5,0 C 98 % 1013,1 hPa 0,0 l/m 0,0 km/h (0 Bft) S-SW 198 0 min 0,000 mm 0,0 UV-I 0 W/m 0,6 C 0,9 C 0,0 km/h (0 Bft) 100,00 %
23.11.2017 00:32 1,0 C 5,0 C 98 % 1013,1 hPa 0,0 l/m 0,0 km/h (0 Bft) S-SW 198 0 min 0,000 mm 0,0 UV-I 0 W/m 0,7 C 1,0 C 0,0 km/h (0 Bft) 100,00 %
23.11.2017 00:34 0,8 C 5,0 C 98 % 1013,1 hPa 0,0 l/m 0,0 km/h (0 Bft) S-SW 198 0 min 0,000 mm 0,0 UV-I 0 W/m 0,5 C 0,8 C 0,0 km/h (0 Bft) 95,74 %
23.11.2017 00:36 0,6 C 5,0 C 98 % 1013,1 hPa 0,0 l/m 0,0 km/h (0 Bft) S-SW 198 0 min 0,000 mm 0,0 UV-I 0 W/m 0,3 C 0,6 C 0,0 km/h (0 Bft) 100,00 %
23.11.2017 00:38 0,8 C 5,0 C 98 % 1013,0 hPa 0,0 l/m 0,0 km/h (0 Bft) S-SW 198 0 min 0,000 mm 0,0 UV-I 0 W/m 0,5 C 0,8 C 0,0 km/h (0 Bft) 100,00 %
23.11.2017 00:40 0,9 C 5,0 C 98 % 1013,0 hPa 0,0 l/m 0,0 km/h (0 Bft) S-SW 198 0 min 0,000 mm 0,0 UV-I 0 W/m 0,6 C 0,9 C 0,0 km/h (0 Bft) 97,87 %
23.11.2017 00:42 0,8 C 5,0 C 98 % 1013,1 hPa 0,0 l/m 0,0 km/h (0 Bft) S-SW 198 0 min 0,000 mm 0,0 UV-I 0 W/m 0,5 C 0,8 C 0,0 km/h (0 Bft) 100,00 %
23.11.2017 00:44 0,8 C 5,0 C 98 % 1013,1 hPa 0,0 l/m 0,0 km/h (0 Bft) S-SW 198 0 min 0,000 mm 0,0 UV-I 0 W/m 0,5 C 0,8 C 0,0 km/h (0 Bft) 100,00 %
23.11.2017 00:46 0,8 C 5,0 C 98 % 1013,1 hPa 0,0 l/m 0,0 km/h (0 Bft) S-SW 198 0 min 0,000 mm 0,0 UV-I 0 W/m 0,5 C 0,8 C 0,0 km/h (0 Bft) 100,00 %
23.11.2017 00:48 0,6 C 5,0 C 98 % 1013,0 hPa 0,0 l/m 0,0 km/h (0 Bft) S-SW 198 0 min 0,000 mm 0,0 UV-I 0 W/m 0,3 C 0,6 C 0,0 km/h (0 Bft) 98,00 %
23.11.2017 00:50 0,4 C 5,0 C 98 % 1013,0 hPa 0,0 l/m 0,0 km/h (0 Bft) S-SW 198 0 min 0,000 mm 0,0 UV-I 0 W/m 0,1 C 0,4 C 0,0 km/h (0 Bft) 100,00 %
23.11.2017 00:52 0,4 C 5,0 C 98 % 1013,1 hPa 0,0 l/m 0,0 km/h (0 Bft) S-SW 198 0 min 0,000 mm 0,0 UV-I 0 W/m 0,1 C 0,4 C 0,0 km/h (0 Bft) 100,00 %
23.11.2017 00:54 0,4 C 5,0 C 98 % 1013,0 hPa 0,0 l/m 0,0 km/h (0 Bft) S-SW 198 0 min 0,000 mm 0,0 UV-I 0 W/m 0,1 C 0,4 C 0,0 km/h (0 Bft) 100,00 %
23.11.2017 00:56 0,5 C 5,0 C 98 % 1013,0 hPa 0,0 l/m 0,0 km/h (0 Bft) S-SW 198 0 min 0,000 mm 0,0 UV-I 0 W/m 0,2 C 0,5 C 0,0 km/h (0 Bft) 100,00 %
23.11.2017 00:58 0,4 C 5,0 C 98 % 1013,0 hPa 0,0 l/m 0,0 km/h (0 Bft) S-SW 198 0 min 0,000 mm 0,0 UV-I 0 W/m 0,1 C 0,4 C 0,0 km/h (0 Bft) 100,00 %
23.11.2017 01:00 0,5 C 5,0 C 98 % 1013,0 hPa 0,0 l/m 0,0 km/h (0 Bft) S-SW 198 0 min 0,000 mm 0,0 UV-I 0 W/m 0,2 C 0,5 C 0,0 km/h (0 Bft) 100,00 %
23.11.2017 01:02 0,4 C 5,0 C 98 % 1013,0 hPa 0,0 l/m 1,6 km/h (1 Bft) S-SW 198 0 min 0,000 mm 0,0 UV-I 0 W/m 0,1 C 0,4 C 3,2 km/h (1 Bft) 100,00 %
23.11.2017 01:04 0,3 C 5,0 C 98 % 1013,0 hPa 0,0 l/m 2,0 km/h (1 Bft) S-SW 198 0 min 0,000 mm 0,0 UV-I 0 W/m 0,0 C 0,3 C 3,2 km/h (1 Bft) 100,00 %
23.11.2017 01:06 0,3 C 5,0 C 98 % 1013,0 hPa 0,0 l/m 2,8 km/h (1 Bft) S-SW 198 0 min 0,000 mm 0,0 UV-I 0 W/m 0,0 C 0,3 C 3,2 km/h (1 Bft) 100,00 %
23.11.2017 01:08 0,2 C 5,0 C 98 % 1013,0 hPa 0,2 l/m 2,5 km/h (1 Bft) S-SW 198 0 min 0,000 mm 0,0 UV-I 0 W/m -0,1 C 0,2 C 3,2 km/h (1 Bft) 100,00 %
23.11.2017 01:10 0,2 C 5,0 C 98 % 1013,0 hPa 0,0 l/m 0,1 km/h (0 Bft) S-SW 198 0 min 0,000 mm 0,0 UV-I 0 W/m -0,1 C 0,2 C 1,6 km/h (1 Bft) 100,00 %
23.11.2017 01:12 0,1 C 5,0 C 98 % 1013,0 hPa 0,0 l/m 0,0 km/h (0 Bft) S-SW 198 0 min 0,000 mm 0,0 UV-I 0 W/m -0,2 C 0,1 C 0,0 km/h (0 Bft) 100,00 %
23.11.2017 01:14 0,2 C 5,0 C 98 % 1013,0 hPa 0,0 l/m 0,0 km/h (0 Bft) S-SW 198 0 min 0,000 mm 0,0 UV-I 0 W/m -0,1 C 0,2 C 0,0 km/h (0 Bft) 97,87 %
23.11.2017 01:16 0,2 C 5,0 C 98 % 1013,0 hPa 0,0 l/m 0,0 km/h (0 Bft) S-SW 198 0 min 0,000 mm 0,0 UV-I 0 W/m -0,1 C 0,2 C 0,0 km/h (0 Bft) 100,00 %
23.11.2017 01:18 0,3 C 5,0 C 98 % 1013,0 hPa 0,0 l/m 0,0 km/h (0 Bft) S-SW 198 0 min 0,000 mm 0,0 UV-I 0 W/m 0,0 C 0,3 C 0,0 km/h (0 Bft) 100,00 %
23.11.2017 01:20 0,3 C 5,0 C 98 % 1013,1 hPa 0,0 l/m 0,0 km/h (0 Bft) S-SW 198 0 min 0,000 mm 0,0 UV-I 0 W/m 0,0 C 0,3 C 0,0 km/h (0 Bft) 100,00 %
23.11.2017 01:22 0,4 C 5,0 C 98 % 1013,1 hPa 0,0 l/m 0,0 km/h (0 Bft) S-SW 198 0 min 0,000 mm 0,0 UV-I 0 W/m 0,1 C 0,4 C 0,0 km/h (0 Bft) 97,87 %
23.11.2017 01:24 0,4 C 5,0 C 98 % 1013,2 hPa 0,0 l/m 0,0 km/h (0 Bft) S-SW 198 0 min 0,000 mm 0,0 UV-I 0 W/m 0,1 C 0,4 C 0,0 km/h (0 Bft) 100,00 %
23.11.2017 01:26 0,4 C 5,0 C 98 % 1013,2 hPa 0,0 l/m 0,0 km/h (0 Bft) S-SW 198 0 min 0,000 mm 0,0 UV-I 0 W/m 0,1 C 0,4 C 0,0 km/h (0 Bft) 97,87 %
23.11.2017 01:28 0,3 C 5,0 C 98 % 1013,2 hPa 0,0 l/m 0,0 km/h (0 Bft) S-SW 198 0 min 0,000 mm 0,0 UV-I 0 W/m 0,0 C 0,3 C 0,0 km/h (0 Bft) 100,00 %
23.11.2017 01:30 0,3 C 5,0 C 98 % 1013,1 hPa 0,0 l/m 0,0 km/h (0 Bft) S-SW 198 0 min 0,000 mm 0,0 UV-I 0 W/m 0,0 C 0,3 C 0,0 km/h (0 Bft) 100,00 %
23.11.2017 01:32 0,3 C 5,0 C 98 % 1013,1 hPa 0,0 l/m 0,0 km/h (0 Bft) S-SW 198 0 min 0,000 mm 0,0 UV-I 0 W/m 0,0 C 0,3 C 0,0 km/h (0 Bft) 100,00 %
23.11.2017 01:34 0,3 C 5,0 C 98 % 1013,0 hPa 0,0 l/m 0,0 km/h (0 Bft) S-SW 198 0 min 0,000 mm 0,0 UV-I 0 W/m 0,0 C 0,3 C 0,0 km/h (0 Bft) 100,00 %
23.11.2017 01:36 0,3 C 5,0 C 98 % 1012,9 hPa 0,0 l/m 1,3 km/h (1 Bft) S-SW 198 0 min 0,000 mm 0,0 UV-I 0 W/m 0,0 C 0,3 C 1,6 km/h (1 Bft) 100,00 %
23.11.2017 01:38 0,3 C 5,0 C 98 % 1012,9 hPa 0,0 l/m 0,8 km/h (0 Bft) S-SW 198 0 min 0,000 mm 0,0 UV-I 0 W/m 0,0 C 0,3 C 3,2 km/h (1 Bft) 100,00 %
23.11.2017 01:40 0,3 C 5,0 C 98 % 1012,9 hPa 0,0 l/m 0,8 km/h (0 Bft) S-SW 198 0 min 0,000 mm 0,0 UV-I 0 W/m 0,0 C 0,3 C 3,2 km/h (1 Bft) 100,00 %
23.11.2017 01:42 0,4 C 5,0 C 98 % 1012,9 hPa 0,0 l/m 0,1 km/h (0 Bft) S-SW 198 0 min 0,000 mm 0,0 UV-I 0 W/m 0,1 C 0,4 C 1,6 km/h (1 Bft) 97,87 %
23.11.2017 01:44 0,4 C 5,0 C 98 % 1012,9 hPa 0,0 l/m 0,0 km/h (0 Bft) S-SW 198 0 min 0,000 mm 0,0 UV-I 0 W/m 0,1 C 0,4 C 0,0 km/h (0 Bft) 97,87 %
23.11.2017 01:46 0,5 C 5,0 C 98 % 1012,9 hPa 0,0 l/m 0,0 km/h (0 Bft) S-SW 198 0 min 0,000 mm 0,0 UV-I 0 W/m 0,2 C 0,5 C 0,0 km/h (0 Bft) 97,56 %
23.11.2017 01:48 0,5 C 5,0 C 98 % 1012,8 hPa 0,0 l/m 0,0 km/h (0 Bft) S-SW 198 0 min 0,000 mm 0,0 UV-I 0 W/m 0,2 C 0,5 C 0,0 km/h (0 Bft) 98,11 %
23.11.2017 01:50 0,3 C 5,0 C 98 % 1012,8 hPa 0,0 l/m 0,0 km/h (0 Bft) S-SW 198 0 min 0,000 mm 0,0 UV-I 0 W/m 0,0 C 0,3 C 0,0 km/h (0 Bft) 95,74 %
23.11.2017 01:52 0,3 C 5,0 C 98 % 1012,8 hPa 0,0 l/m 0,0 km/h (0 Bft) S-SW 198 0 min 0,000 mm 0,0 UV-I 0 W/m 0,0 C 0,3 C 0,0 km/h (0 Bft) 98,00 %
23.11.2017 01:54 0,2 C 5,0 C 98 % 1012,8 hPa 0,0 l/m 1,0 km/h (0 Bft) S-SW 198 0 min 0,000 mm 0,0 UV-I 0 W/m -0,1 C 0,2 C 1,6 km/h (1 Bft) 97,87 %
23.11.2017 01:56 0,2 C 5,0 C 98 % 1012,7 hPa 0,0 l/m 0,4 km/h (0 Bft) S-SW 198 0 min 0,000 mm 0,0 UV-I 0 W/m -0,1 C 0,2 C 1,6 km/h (1 Bft) 97,87 %
23.11.2017 01:58 0,2 C 5,0 C 98 % 1012,7 hPa 0,0 l/m 0,8 km/h (0 Bft) S-SW 198 0 min 0,000 mm 0,0 UV-I 0 W/m -0,1 C 0,2 C 1,6 km/h (1 Bft) 95,74 %
23.11.2017 02:00 0,3 C 5,0 C 98 % 1012,8 hPa 0,0 l/m 0,0 km/h (0 Bft) S-SW 198 0 min 0,000 mm 0,0 UV-I 0 W/m 0,0 C 0,3 C 0,0 km/h (0 Bft) 97,87 %
23.11.2017 02:02 0,2 C 5,0 C 98 % 1012,8 hPa 0,0 l/m 0,5 km/h (0 Bft) S-SW 198 0 min 0,000 mm 0,0 UV-I 0 W/m -0,1 C 0,2 C 1,6 km/h (1 Bft) 97,14 %
23.11.2017 02:04 0,3 C 5,0 C 98 % 1012,8 hPa 0,0 l/m 1,6 km/h (1 Bft) S-SW 198 0 min 0,000 mm 0,0 UV-I 0 W/m 0,0 C 0,3 C 3,2 km/h (1 Bft) 94,00 %
23.11.2017 02:06 0,6 C 5,0 C 98 % 1012,8 hPa 0,0 l/m 1,9 km/h (1 Bft) S-SW 198 0 min 0,000 mm 0,0 UV-I 0 W/m 0,3 C 0,6 C 3,2 km/h (1 Bft) 96,00 %
23.11.2017 02:08 0,6 C 5,0 C 98 % 1012,8 hPa 0,0 l/m 1,0 km/h (0 Bft) S-SW 198 0 min 0,000 mm 0,0 UV-I 0 W/m 0,3 C 0,6 C 3,2 km/h (1 Bft) 96,00 %
23.11.2017 02:10 0,3 C 5,0 C 98 % 1012,8 hPa 0,0 l/m 0,0 km/h (0 Bft) S-SW 198 0 min 0,000 mm 0,0 UV-I 0 W/m 0,0 C 0,3 C 0,0 km/h (0 Bft) 92,59 %
23.11.2017 02:12 0,2 C 5,0 C 98 % 1012,8 hPa 0,0 l/m 0,0 km/h (0 Bft) S-SW 198 0 min 0,000 mm 0,0 UV-I 0 W/m -0,1 C 0,2 C 0,0 km/h (0 Bft) 96,88 %
23.11.2017 02:14 0,1 C 5,0 C 98 % 1012,8 hPa 0,0 l/m 0,0 km/h (0 Bft) S-SW 198 0 min 0,000 mm 0,0 UV-I 0 W/m -0,2 C 0,1 C 0,0 km/h (0 Bft) 95,83 %
23.11.2017 02:16 -0,1 C 5,0 C 98 % 1012,8 hPa 0,0 l/m 0,0 km/h (0 Bft) S-SW 198 0 min 0,000 mm 0,0 UV-I 0 W/m -0,4 C -0,1 C 0,0 km/h (0 Bft) 93,62 %
23.11.2017 02:18 -0,2 C 5,0 C 98 % 1012,8 hPa 0,0 l/m 0,0 km/h (0 Bft) S-SW 198 0 min 0,000 mm 0,0 UV-I 0 W/m -0,5 C -0,2 C 1,6 km/h (1 Bft) 96,00 %
23.11.2017 02:20 -0,3 C 5,0 C 98 % 1012,8 hPa 0,0 l/m 0,0 km/h (0 Bft) S-SW 198 0 min 0,000 mm 0,0 UV-I 0 W/m -0,6 C -0,3 C 0,0 km/h (0 Bft) 91,49 %
23.11.2017 02:22 -0,4 C 5,0 C 98 % 1012,8 hPa 0,0 l/m 0,0 km/h (0 Bft) S-SW 198 0 min 0,000 mm 0,0 UV-I 0 W/m -0,7 C -0,4 C 0,0 km/h (0 Bft) 94,74 %
23.11.2017 02:24 -0,4 C 5,0 C 98 % 1012,7 hPa 0,0 l/m 0,0 km/h (0 Bft) S-SW 198 0 min 0,000 mm 0,0 UV-I 0 W/m -0,7 C -0,4 C 0,0 km/h (0 Bft) 93,62 %
23.11.2017 02:26 -0,4 C 5,0 C 98 % 1012,8 hPa 0,0 l/m 0,0 km/h (0 Bft) S-SW 198 0 min 0,000 mm 0,0 UV-I 0 W/m -0,7 C -0,4 C 0,0 km/h (0 Bft) 98,04 %
23.11.2017 02:28 -0,4 C 5,0 C 98 % 1012,7 hPa 0,0 l/m 0,0 km/h (0 Bft) S-SW 198 0 min 0,000 mm 0,0 UV-I 0 W/m -0,7 C -0,4 C 0,0 km/h (0 Bft) 98,00 %
23.11.2017 02:30 -0,3 C 5,0 C 98 % 1012,7 hPa 0,0 l/m 0,0 km/h (0 Bft) S-SW 198 0 min 0,000 mm 0,0 UV-I 0 W/m -0,6 C -0,3 C 0,0 km/h (0 Bft) 97,37 %
23.11.2017 02:32 -0,2 C 5,0 C 98 % 1012,7 hPa 0,0 l/m 0,0 km/h (0 Bft) S-SW 198 0 min 0,000 mm 0,0 UV-I 0 W/m -0,5 C -0,2 C 0,0 km/h (0 Bft) 98,00 %
23.11.2017 02:34 -0,2 C 5,0 C 98 % 1012,7 hPa 0,0 l/m 0,0 km/h (0 Bft) S-SW 198 0 min 0,000 mm 0,0 UV-I 0 W/m -0,5 C -0,2 C 0,0 km/h (0 Bft) 98,00 %
23.11.2017 02:36 -0,2 C 5,0 C 98 % 1012,6 hPa 0,0 l/m 0,0 km/h (0 Bft) S-SW 198 0 min 0,000 mm 0,0 UV-I 0 W/m -0,5 C -0,2 C 0,0 km/h (0 Bft) 98,00 %
23.11.2017 02:38 -0,2 C 5,0 C 98 % 1012,6 hPa 0,0 l/m 0,0 km/h (0 Bft) S-SW 198 0 min 0,000 mm 0,0 UV-I 0 W/m -0,5 C -0,2 C 0,0 km/h (0 Bft) 97,87 %
23.11.2017 02:40 -0,2 C 5,0 C 98 % 1012,7 hPa 0,0 l/m 0,0 km/h (0 Bft) S-SW 198 0 min 0,000 mm 0,0 UV-I 0 W/m -0,5 C -0,2 C 0,0 km/h (0 Bft) 97,87 %
23.11.2017 02:42 -0,1 C 5,0 C 98 % 1012,6 hPa 0,0 l/m 0,0 km/h (0 Bft) S-SW 198 0 min 0,000 mm 0,0 UV-I 0 W/m -0,4 C -0,1 C 0,0 km/h (0 Bft) 97,37 %
23.11.2017 02:44 -0,1 C 5,0 C 98 % 1012,6 hPa 0,0 l/m 0,0 km/h (0 Bft) S-SW 198 0 min 0,000 mm 0,0 UV-I 0 W/m -0,4 C -0,1 C 0,0 km/h (0 Bft) 96,00 %
23.11.2017 02:46 -0,1 C 5,0 C 98 % 1012,7 hPa 0,0 l/m 0,0 km/h (0 Bft) S-SW 198 0 min 0,000 mm 0,0 UV-I 0 W/m -0,4 C -0,1 C 0,0 km/h (0 Bft) 98,00 %
23.11.2017 02:48 -0,1 C 5,0 C 98 % 1012,7 hPa 0,0 l/m 0,0 km/h (0 Bft) S-SW 198 0 min 0,000 mm 0,0 UV-I 0 W/m -0,4 C -0,1 C 0,0 km/h (0 Bft) 97,87 %
23.11.2017 02:50 -0,2 C 5,0 C 98 % 1012,7 hPa 0,0 l/m 0,0 km/h (0 Bft) S-SW 198 0 min 0,000 mm 0,0 UV-I 0 W/m -0,5 C -0,2 C 0,0 km/h (0 Bft) 97,62 %
23.11.2017 02:52 -0,3 C 5,0 C 98 % 1012,7 hPa 0,0 l/m 0,0 km/h (0 Bft) S-SW 198 0 min 0,000 mm 0,0 UV-I 0 W/m -0,6 C -0,3 C 0,0 km/h (0 Bft) 97,87 %
23.11.2017 02:54 -0,3 C 5,0 C 98 % 1012,7 hPa 0,0 l/m 0,0 km/h (0 Bft) S-SW 198 0 min 0,000 mm 0,0 UV-I 0 W/m -0,6 C -0,3 C 0,0 km/h (0 Bft) 97,87 %
23.11.2017 02:56 -0,4 C 5,0 C 98 % 1012,7 hPa 0,0 l/m 0,0 km/h (0 Bft) S-SW 198 0 min 0,000 mm 0,0 UV-I 0 W/m -0,7 C -0,4 C 0,0 km/h (0 Bft) 97,87 %
23.11.2017 02:58 -0,4 C 5,0 C 98 % 1012,8 hPa 0,0 l/m 0,0 km/h (0 Bft) S-SW 198 0 min 0,000 mm 0,0 UV-I 0 W/m -0,7 C -0,4 C 0,0 km/h (0 Bft) 95,74 %
23.11.2017 03:00 -0,4 C 5,0 C 98 % 1012,8 hPa 0,0 l/m 0,0 km/h (0 Bft) S-SW 198 0 min 0,000 mm 0,0 UV-I 0 W/m -0,7 C -0,4 C 0,0 km/h (0 Bft) 97,87 %
23.11.2017 03:02 -0,4 C 5,0 C 98 % 1012,8 hPa 0,0 l/m 0,0 km/h (0 Bft) S-SW 198 0 min 0,000 mm 0,0 UV-I 0 W/m -0,7 C -0,4 C 0,0 km/h (0 Bft) 97,87 %
23.11.2017 03:04 -0,4 C 5,0 C 98 % 1012,8 hPa 0,0 l/m 0,0 km/h (0 Bft) S-SW 198 0 min 0,000 mm 0,0 UV-I 0 W/m -0,7 C -0,4 C 0,0 km/h (0 Bft) 98,00 %
23.11.2017 03:06 -0,5 C 5,0 C 98 % 1012,7 hPa 0,0 l/m 0,0 km/h (0 Bft) S-SW 198 0 min 0,000 mm 0,0 UV-I 0 W/m -0,8 C -0,5 C 0,0 km/h (0 Bft) 98,00 %
23.11.2017 03:08 -0,6 C 5,0 C 98 % 1012,7 hPa 0,0 l/m 0,0 km/h (0 Bft) S-SW 198 0 min 0,000 mm 0,0 UV-I 0 W/m -0,9 C -0,6 C 0,0 km/h (0 Bft) 97,37 %
23.11.2017 03:10 -0,6 C 5,0 C 98 % 1012,7 hPa 0,0 l/m 0,0 km/h (0 Bft) S-SW 198 0 min 0,000 mm 0,0 UV-I 0 W/m -0,9 C -0,6 C 0,0 km/h (0 Bft) 100,00 %
23.11.2017 03:12 -0,6 C 5,0 C 98 % 1012,7 hPa 0,0 l/m 0,0 km/h (0 Bft) S-SW 198 0 min 0,000 mm 0,0 UV-I 0 W/m -0,9 C -0,6 C 0,0 km/h (0 Bft) 98,00 %
23.11.2017 03:14 -0,6 C 5,0 C 98 % 1012,7 hPa 0,0 l/m 0,0 km/h (0 Bft) S-SW 198 0 min 0,000 mm 0,0 UV-I 0 W/m -0,9 C -0,6 C 0,0 km/h (0 Bft) 100,00 %
23.11.2017 03:16 -0,6 C 5,0 C 98 % 1012,7 hPa 0,0 l/m 0,0 km/h (0 Bft) S-SW 198 0 min 0,000 mm 0,0 UV-I 0 W/m -0,9 C -0,6 C 0,0 km/h (0 Bft) 100,00 %
23.11.2017 03:18 -0,7 C 5,0 C 98 % 1012,7 hPa 0,0 l/m 0,0 km/h (0 Bft) S-SW 198 0 min 0,000 mm 0,0 UV-I 0 W/m -1,0 C -0,7 C 0,0 km/h (0 Bft) 97,14 %
23.11.2017 03:20 -0,6 C 5,0 C 98 % 1012,7 hPa 0,0 l/m 0,0 km/h (0 Bft) S-SW 198 0 min 0,000 mm 0,0 UV-I 0 W/m -0,9 C -0,6 C 0,0 km/h (0 Bft) 100,00 %
23.11.2017 03:22 -0,6 C 5,0 C 98 % 1012,7 hPa 0,0 l/m 0,0 km/h (0 Bft) S-SW 198 0 min 0,000 mm 0,0 UV-I 0 W/m -0,9 C -0,6 C 1,6 km/h (1 Bft) 100,00 %
23.11.2017 03:24 -0,6 C 5,0 C 98 % 1012,6 hPa 0,0 l/m 0,0 km/h (0 Bft) S-SW 198 0 min 0,000 mm 0,0 UV-I 0 W/m -0,9 C -0,6 C 0,0 km/h (0 Bft) 100,00 %
23.11.2017 03:26 -0,6 C 5,0 C 98 % 1012,6 hPa 0,0 l/m 0,0 km/h (0 Bft) S-SW 198 0 min 0,000 mm 0,0 UV-I 0 W/m -0,9 C -0,6 C 0,0 km/h (0 Bft) 100,00 %
23.11.2017 03:28 -0,6 C 5,0 C 98 % 1012,7 hPa 0,0 l/m 1,0 km/h (0 Bft) S-SW 198 0 min 0,000 mm 0,0 UV-I 0 W/m -0,9 C -0,6 C 3,2 km/h (1 Bft) 97,87 %
23.11.2017 03:30 -0,6 C 5,0 C 98 % 1012,7 hPa 0,0 l/m 2,7 km/h (1 Bft) S-SW 198 0 min 0,000 mm 0,0 UV-I 0 W/m -0,9 C -0,6 C 3,2 km/h (1 Bft) 100,00 %
23.11.2017 03:32 -0,6 C 5,0 C 98 % 1012,7 hPa 0,0 l/m 3,5 km/h (1 Bft) S-SW 198 0 min 0,000 mm 0,0 UV-I 0 W/m -0,9 C -0,6 C 4,8 km/h (1 Bft) 100,00 %
23.11.2017 03:34 -0,6 C 5,0 C 98 % 1012,6 hPa 0,0 l/m 2,4 km/h (1 Bft) S-SW 198 0 min 0,000 mm 0,0 UV-I 0 W/m -0,9 C -0,6 C 3,2 km/h (1 Bft) 100,00 %
23.11.2017 03:36 -0,6 C 5,0 C 98 % 1012,5 hPa 0,0 l/m 0,1 km/h (0 Bft) S-SW 198 0 min 0,000 mm 0,0 UV-I 0 W/m -0,9 C -0,6 C 1,6 km/h (1 Bft) 100,00 %
23.11.2017 03:38 -0,6 C 5,0 C 98 % 1012,6 hPa 0,0 l/m 0,3 km/h (0 Bft) S-SW 198 0 min 0,000 mm 0,0 UV-I 0 W/m -0,9 C -0,6 C 1,6 km/h (1 Bft) 95,74 %
23.11.2017 03:40 -0,6 C 5,0 C 98 % 1012,6 hPa 0,0 l/m 1,1 km/h (1 Bft) S-SW 198 0 min 0,000 mm 0,0 UV-I 0 W/m -0,9 C -0,6 C 3,2 km/h (1 Bft) 100,00 %
23.11.2017 03:42 -0,6 C 5,0 C 98 % 1012,6 hPa 0,0 l/m 0,5 km/h (0 Bft) S-SW 198 0 min 0,000 mm 0,0 UV-I 0 W/m -0,9 C -0,6 C 1,6 km/h (1 Bft) 100,00 %
23.11.2017 03:44 -0,6 C 5,0 C 98 % 1012,5 hPa 0,0 l/m 0,3 km/h (0 Bft) S-SW 198 0 min 0,000 mm 0,0 UV-I 0 W/m -0,9 C -0,6 C 1,6 km/h (1 Bft) 100,00 %
23.11.2017 03:46 -0,6 C 5,0 C 98 % 1012,5 hPa 0,0 l/m 1,4 km/h (1 Bft) S-SW 198 0 min 0,000 mm 0,0 UV-I 0 W/m -0,9 C -0,6 C 3,2 km/h (1 Bft) 98,11 %
23.11.2017 03:48 -0,6 C 5,0 C 98 % 1012,5 hPa 0,0 l/m 0,8 km/h (0 Bft) S-SW 198 0 min 0,000 mm 0,0 UV-I 0 W/m -0,9 C -0,6 C 3,2 km/h (1 Bft) 100,00 %
23.11.2017 03:50 -0,6 C 5,0 C 98 % 1012,4 hPa 0,0 l/m 2,1 km/h (1 Bft) S-SW 198 0 min 0,000 mm 0,0 UV-I 0 W/m -0,9 C -0,6 C 3,2 km/h (1 Bft) 100,00 %
23.11.2017 03:52 -0,6 C 5,0 C 98 % 1012,4 hPa 0,0 l/m 0,9 km/h (0 Bft) S-SW 198 0 min 0,000 mm 0,0 UV-I 0 W/m -0,9 C -0,6 C 1,6 km/h (1 Bft) 97,87 %
23.11.2017 03:54 -0,6 C 5,0 C 98 % 1012,4 hPa 0,0 l/m 0,1 km/h (0 Bft) S-SW 198 0 min 0,000 mm 0,0 UV-I 0 W/m -0,9 C -0,6 C 1,6 km/h (1 Bft) 97,87 %
23.11.2017 03:56 -0,6 C 5,0 C 98 % 1012,4 hPa 0,0 l/m 0,0 km/h (0 Bft) S-SW 198 0 min 0,000 mm 0,0 UV-I 0 W/m -0,9 C -0,6 C 0,0 km/h (0 Bft) 94,74 %
23.11.2017 03:58 -0,6 C 5,0 C 98 % 1012,4 hPa 0,0 l/m 0,1 km/h (0 Bft) S-SW 198 0 min 0,000 mm 0,0 UV-I 0 W/m -0,9 C -0,6 C 1,6 km/h (1 Bft) 98,11 %
23.11.2017 04:00 -0,6 C 5,0 C 98 % 1012,4 hPa 0,0 l/m 0,3 km/h (0 Bft) S-SW 198 0 min 0,000 mm 0,0 UV-I 0 W/m -0,9 C -0,6 C 1,6 km/h (1 Bft) 98,00 %
23.11.2017 04:02 -0,6 C 5,0 C 98 % 1012,5 hPa 0,0 l/m 0,0 km/h (0 Bft) S-SW 198 0 min 0,000 mm 0,0 UV-I 0 W/m -0,9 C -0,6 C 0,0 km/h (0 Bft) 100,00 %
23.11.2017 04:04 -0,6 C 5,0 C 98 % 1012,5 hPa 0,0 l/m 0,0 km/h (0 Bft) S-SW 198 0 min 0,000 mm 0,0 UV-I 0 W/m -0,9 C -0,6 C 0,0 km/h (0 Bft) 95,74 %
23.11.2017 04:06 -0,6 C 5,0 C 98 % 1012,5 hPa 0,0 l/m 0,0 km/h (0 Bft) S-SW 198 0 min 0,000 mm 0,0 UV-I 0 W/m -0,9 C -0,6 C 0,0 km/h (0 Bft) 97,22 %
23.11.2017 04:08 -0,7 C 5,0 C 98 % 1012,5 hPa 0,0 l/m 0,0 km/h (0 Bft) S-SW 198 0 min 0,000 mm 0,0 UV-I 0 W/m -1,0 C -0,7 C 0,0 km/h (0 Bft) 96,88 %
23.11.2017 04:10 -0,7 C 5,0 C 98 % 1012,4 hPa 0,0 l/m 0,0 km/h (0 Bft) S-SW 198 0 min 0,000 mm 0,0 UV-I 0 W/m -1,0 C -0,7 C 0,0 km/h (0 Bft) 97,37 %
23.11.2017 04:12 -0,7 C 5,0 C 98 % 1012,4 hPa 0,0 l/m 0,0 km/h (0 Bft) S-SW 198 0 min 0,000 mm 0,0 UV-I 0 W/m -1,0 C -0,7 C 1,6 km/h (1 Bft) 96,00 %
23.11.2017 04:14 -0,7 C 5,0 C 98 % 1012,3 hPa 0,0 l/m 0,0 km/h (0 Bft) S-SW 198 0 min 0,000 mm 0,0 UV-I 0 W/m -1,0 C -0,7 C 0,0 km/h (0 Bft) 95,74 %
23.11.2017 04:16 -0,8 C 5,0 C 98 % 1012,3 hPa 0,0 l/m 0,0 km/h (0 Bft) S-SW 198 0 min 0,000 mm 0,0 UV-I 0 W/m -1,1 C -0,8 C 0,0 km/h (0 Bft) 95,92 %
23.11.2017 04:18 -0,8 C 5,0 C 98 % 1012,3 hPa 0,0 l/m 0,0 km/h (0 Bft) S-SW 198 0 min 0,000 mm 0,0 UV-I 0 W/m -1,1 C -0,8 C 0,0 km/h (0 Bft) 100,00 %
23.11.2017 04:20 -0,8 C 5,0 C 98 % 1012,3 hPa 0,0 l/m 0,6 km/h (0 Bft) S-SW 198 0 min 0,000 mm 0,0 UV-I 0 W/m -1,1 C -0,8 C 1,6 km/h (1 Bft) 94,34 %
23.11.2017 04:22 -0,8 C 5,0 C 98 % 1012,3 hPa 0,0 l/m 0,5 km/h (0 Bft) S-SW 198 0 min 0,000 mm 0,0 UV-I 0 W/m -1,1 C -0,8 C 1,6 km/h (1 Bft) 97,87 %
23.11.2017 04:24 -0,9 C 5,0 C 98 % 1012,3 hPa 0,0 l/m 0,0 km/h (0 Bft) S-SW 198 0 min 0,000 mm 0,0 UV-I 0 W/m -1,2 C -0,9 C 1,6 km/h (1 Bft) 96,23 %
23.11.2017 04:26 -0,9 C 5,0 C 98 % 1012,4 hPa 0,0 l/m 1,5 km/h (1 Bft) S-SW 198 0 min 0,000 mm 0,0 UV-I 0 W/m -1,2 C -0,9 C 3,2 km/h (1 Bft) 100,00 %
23.11.2017 04:28 -0,9 C 5,0 C 98 % 1012,4 hPa 0,0 l/m 1,6 km/h (1 Bft) S-SW 198 0 min 0,000 mm 0,0 UV-I 0 W/m -1,2 C -0,9 C 3,2 km/h (1 Bft) 100,00 %
23.11.2017 04:30 -0,9 C 5,0 C 98 % 1012,4 hPa 0,0 l/m 1,1 km/h (1 Bft) S-SW 198 0 min 0,000 mm 0,0 UV-I 0 W/m -1,2 C -0,9 C 3,2 km/h (1 Bft) 100,00 %
23.11.2017 04:32 -0,9 C 5,0 C 98 % 1012,4 hPa 0,0 l/m 0,8 km/h (0 Bft) S-SW 198 0 min 0,000 mm 0,0 UV-I 0 W/m -1,2 C -0,9 C 1,6 km/h (1 Bft) 100,00 %
23.11.2017 04:34 -1,0 C 5,0 C 98 % 1012,3 hPa 0,0 l/m 0,5 km/h (0 Bft) S-SW 198 0 min 0,000 mm 0,0 UV-I 0 W/m -1,3 C -1,0 C 1,6 km/h (1 Bft) 100,00 %
23.11.2017 04:36 -1,0 C 5,0 C 98 % 1012,4 hPa 0,0 l/m 0,0 km/h (0 Bft) S-SW 198 0 min 0,000 mm 0,0 UV-I 0 W/m -1,3 C -1,0 C 1,6 km/h (1 Bft) 98,00 %
23.11.2017 04:38 -1,1 C 5,0 C 98 % 1012,4 hPa 0,0 l/m 0,2 km/h (0 Bft) S-SW 198 0 min 0,000 mm 0,0 UV-I 0 W/m -1,4 C -1,1 C 1,6 km/h (1 Bft) 97,73 %
23.11.2017 04:40 -1,1 C 5,0 C 98 % 1012,3 hPa 0,0 l/m 0,6 km/h (0 Bft) S-SW 198 0 min 0,000 mm 0,0 UV-I 0 W/m -1,4 C -1,1 C 1,6 km/h (1 Bft) 100,00 %
23.11.2017 04:42 -1,0 C 5,0 C 98 % 1012,4 hPa 0,0 l/m 0,4 km/h (0 Bft) S-SW 198 0 min 0,000 mm 0,0 UV-I 0 W/m -1,3 C -1,0 C 1,6 km/h (1 Bft) 100,00 %
23.11.2017 04:44 -1,1 C 5,0 C 98 % 1012,3 hPa 0,0 l/m 0,0 km/h (0 Bft) S-SW 198 0 min 0,000 mm 0,0 UV-I 0 W/m -1,4 C -1,1 C 0,0 km/h (0 Bft) 100,00 %
23.11.2017 04:46 -1,1 C 5,0 C 98 % 1012,4 hPa 0,0 l/m 0,0 km/h (0 Bft) S-SW 198 0 min 0,000 mm 0,0 UV-I 0 W/m -1,4 C -1,1 C 0,0 km/h (0 Bft) 100,00 %
23.11.2017 04:48 -1,1 C 5,0 C 98 % 1012,4 hPa 0,0 l/m 1,6 km/h (1 Bft) S-SW 198 0 min 0,000 mm 0,0 UV-I 0 W/m -1,4 C -1,1 C 3,2 km/h (1 Bft) 95,74 %
23.11.2017 04:50 -1,1 C 5,0 C 98 % 1012,4 hPa 0,0 l/m 3,5 km/h (1 Bft) S-SW 198 0 min 0,000 mm 0,0 UV-I 0 W/m -1,4 C -1,1 C 4,8 km/h (1 Bft) 100,00 %
23.11.2017 04:52 -1,2 C 5,0 C 98 % 1012,4 hPa 0,0 l/m 4,1 km/h (1 Bft) S-SW 198 0 min 0,000 mm 0,0 UV-I 0 W/m -1,5 C -1,2 C 4,8 km/h (1 Bft) 100,00 %
23.11.2017 04:54 -1,2 C 5,0 C 98 % 1012,3 hPa 0,0 l/m 3,5 km/h (1 Bft) S-SW 198 0 min 0,000 mm 0,0 UV-I 0 W/m -1,5 C -1,2 C 4,8 km/h (1 Bft) 100,00 %
23.11.2017 04:56 -1,2 C 5,0 C 98 % 1012,3 hPa 0,0 l/m 3,4 km/h (1 Bft) S-SW 198 0 min 0,000 mm 0,0 UV-I 0 W/m -1,5 C -1,2 C 4,8 km/h (1 Bft) 97,44 %
23.11.2017 04:58 -1,2 C 5,0 C 98 % 1012,2 hPa 0,0 l/m 2,6 km/h (1 Bft) S-SW 198 0 min 0,000 mm 0,0 UV-I 0 W/m -1,5 C -1,2 C 4,8 km/h (1 Bft) 100,00 %
23.11.2017 05:00 -1,2 C 5,0 C 98 % 1012,1 hPa 0,0 l/m 3,1 km/h (1 Bft) S-SW 198 0 min 0,000 mm 0,0 UV-I 0 W/m -1,5 C -1,2 C 4,8 km/h (1 Bft) 100,00 %
23.11.2017 05:02 -1,1 C 5,0 C 98 % 1012,2 hPa 0,0 l/m 4,6 km/h (1 Bft) S-SW 198 0 min 0,000 mm 0,0 UV-I 0 W/m -1,4 C -1,1 C 4,8 km/h (1 Bft) 96,00 %
23.11.2017 05:04 -1,0 C 5,0 C 98 % 1012,2 hPa 0,0 l/m 4,8 km/h (1 Bft) S-SW 198 0 min 0,000 mm 0,0 UV-I 0 W/m -1,3 C -1,0 C 6,4 km/h (2 Bft) 100,00 %
23.11.2017 05:06 -0,9 C 5,0 C 98 % 1012,2 hPa 0,0 l/m 2,8 km/h (1 Bft) S-SW 198 0 min 0,000 mm 0,0 UV-I 0 W/m -1,2 C -0,9 C 4,8 km/h (1 Bft) 100,00 %
23.11.2017 05:08 -0,9 C 5,0 C 98 % 1012,1 hPa 0,0 l/m 1,7 km/h (1 Bft) S-SW 198 0 min 0,000 mm 0,0 UV-I 0 W/m -1,2 C -0,9 C 3,2 km/h (1 Bft) 100,00 %
23.11.2017 05:10 -0,9 C 5,0 C 98 % 1012,1 hPa 0,0 l/m 2,6 km/h (1 Bft) S-SW 198 0 min 0,000 mm 0,0 UV-I 0 W/m -1,2 C -0,9 C 3,2 km/h (1 Bft) 97,87 %
23.11.2017 05:12 -0,9 C 5,0 C 98 % 1012,1 hPa 0,0 l/m 2,9 km/h (1 Bft) S-SW 198 0 min 0,000 mm 0,0 UV-I 0 W/m -1,2 C -0,9 C 4,8 km/h (1 Bft) 100,00 %
23.11.2017 05:14 -0,9 C 5,0 C 98 % 1012,1 hPa 0,0 l/m 1,7 km/h (1 Bft) S-SW 198 0 min 0,000 mm 0,0 UV-I 0 W/m -1,2 C -0,9 C 3,2 km/h (1 Bft) 100,00 %
23.11.2017 05:16 -0,9 C 5,0 C 98 % 1012,1 hPa 0,0 l/m 2,8 km/h (1 Bft) S-SW 198 0 min 0,000 mm 0,0 UV-I 0 W/m -1,2 C -0,9 C 4,8 km/h (1 Bft) 97,14 %
23.11.2017 05:18 -0,9 C 5,0 C 98 % 1012,1 hPa 0,0 l/m 2,0 km/h (1 Bft) S-SW 198 0 min 0,000 mm 0,0 UV-I 0 W/m -1,2 C -0,9 C 3,2 km/h (1 Bft) 98,21 %
23.11.2017 05:20 -0,9 C 5,0 C 98 % 1012,1 hPa 0,0 l/m 1,4 km/h (1 Bft) S-SW 198 0 min 0,000 mm 0,0 UV-I 0 W/m -1,2 C -0,9 C 3,2 km/h (1 Bft) 97,87 %
23.11.2017 05:22 -0,9 C 5,0 C 98 % 1012,1 hPa 0,0 l/m 1,6 km/h (1 Bft) S-SW 198 0 min 0,000 mm 0,0 UV-I 0 W/m -1,2 C -0,9 C 3,2 km/h (1 Bft) 97,87 %
23.11.2017 05:24 -0,9 C 5,0 C 98 % 1012,1 hPa 0,0 l/m 0,7 km/h (0 Bft) S-SW 198 0 min 0,000 mm 0,0 UV-I 0 W/m -1,2 C -0,9 C 1,6 km/h (1 Bft) 93,62 %
23.11.2017 05:26 -0,9 C 5,0 C 98 % 1012,2 hPa 0,0 l/m 1,2 km/h (1 Bft) S-SW 198 0 min 0,000 mm 0,0 UV-I 0 W/m -1,2 C -0,9 C 3,2 km/h (1 Bft) 95,74 %
23.11.2017 05:28 -1,0 C 5,0 C 98 % 1012,2 hPa 0,0 l/m 0,8 km/h (0 Bft) S-SW 198 0 min 0,000 mm 0,0 UV-I 0 W/m -1,3 C -1,0 C 1,6 km/h (1 Bft) 90,24 %
23.11.2017 05:30 -1,1 C 5,0 C 98 % 1012,2 hPa 0,0 l/m 0,3 km/h (0 Bft) S-SW 198 0 min 0,000 mm 0,0 UV-I 0 W/m -1,4 C -1,1 C 1,6 km/h (1 Bft) 97,87 %
23.11.2017 05:32 -1,1 C 5,0 C 98 % 1012,2 hPa 0,0 l/m 0,0 km/h (0 Bft) S-SW 198 0 min 0,000 mm 0,0 UV-I 0 W/m -1,4 C -1,1 C 0,0 km/h (0 Bft) 97,92 %
23.11.2017 05:34 -1,1 C 5,0 C 98 % 1012,1 hPa 0,0 l/m 0,0 km/h (0 Bft) S-SW 198 0 min 0,000 mm 0,0 UV-I 0 W/m -1,4 C -1,1 C 0,0 km/h (0 Bft) 96,00 %
23.11.2017 05:36 -1,1 C 5,0 C 98 % 1012,2 hPa 0,0 l/m 0,0 km/h (0 Bft) S-SW 198 0 min 0,000 mm 0,0 UV-I 0 W/m -1,4 C -1,1 C 0,0 km/h (0 Bft) 97,87 %
23.11.2017 05:38 -1,1 C 5,0 C 98 % 1012,1 hPa 0,0 l/m 0,0 km/h (0 Bft) S-SW 198 0 min 0,000 mm 0,0 UV-I 0 W/m -1,4 C -1,1 C 0,0 km/h (0 Bft) 97,87 %
23.11.2017 05:40 -1,1 C 5,0 C 98 % 1012,2 hPa 0,0 l/m 0,0 km/h (0 Bft) S-SW 198 0 min 0,000 mm 0,0 UV-I 0 W/m -1,4 C -1,1 C 0,0 km/h (0 Bft) 96,00 %
23.11.2017 05:42 -1,1 C 5,0 C 98 % 1012,2 hPa 0,0 l/m 0,0 km/h (0 Bft) S-SW 198 0 min 0,000 mm 0,0 UV-I 0 W/m -1,4 C -1,1 C 0,0 km/h (0 Bft) 97,37 %
23.11.2017 05:44 -1,1 C 5,0 C 98 % 1012,2 hPa 0,0 l/m 0,0 km/h (0 Bft) S-SW 198 0 min 0,000 mm 0,0 UV-I 0 W/m -1,4 C -1,1 C 1,6 km/h (1 Bft) 95,45 %
23.11.2017 05:46 -1,0 C 5,0 C 98 % 1012,2 hPa 0,0 l/m 0,0 km/h (0 Bft) S-SW 198 0 min 0,000 mm 0,0 UV-I 0 W/m -1,3 C -1,0 C 0,0 km/h (0 Bft) 97,87 %
23.11.2017 05:48 -1,0 C 5,0 C 98 % 1012,2 hPa 0,0 l/m 0,5 km/h (0 Bft) S-SW 198 0 min 0,000 mm 0,0 UV-I 0 W/m -1,3 C -1,0 C 1,6 km/h (1 Bft) 98,21 %
23.11.2017 05:50 -0,9 C 5,0 C 98 % 1012,2 hPa 0,0 l/m 0,0 km/h (0 Bft) S-SW 198 0 min 0,000 mm 0,0 UV-I 0 W/m -1,2 C -0,9 C 1,6 km/h (1 Bft) 97,87 %
23.11.2017 05:52 -0,9 C 5,0 C 98 % 1012,2 hPa 0,0 l/m 0,0 km/h (0 Bft) S-SW 198 0 min 0,000 mm 0,0 UV-I 0 W/m -1,2 C -0,9 C 0,0 km/h (0 Bft) 97,37 %
23.11.2017 05:54 -1,0 C 5,0 C 98 % 1012,2 hPa 0,0 l/m 0,0 km/h (0 Bft) S-SW 198 0 min 0,000 mm 0,0 UV-I 0 W/m -1,3 C -1,0 C 0,0 km/h (0 Bft) 97,87 %
23.11.2017 05:56 -0,9 C 5,0 C 98 % 1012,2 hPa 0,0 l/m 0,6 km/h (0 Bft) S-SW 198 0 min 0,000 mm 0,0 UV-I 0 W/m -1,2 C -0,9 C 1,6 km/h (1 Bft) 96,43 %
23.11.2017 05:58 -0,9 C 5,0 C 98 % 1012,2 hPa 0,0 l/m 0,1 km/h (0 Bft) S-SW 198 0 min 0,000 mm 0,0 UV-I 0 W/m -1,2 C -0,9 C 1,6 km/h (1 Bft) 97,37 %
23.11.2017 06:00 -0,9 C 5,0 C 98 % 1012,2 hPa 0,0 l/m 0,0 km/h (0 Bft) S-SW 198 0 min 0,000 mm 0,0 UV-I 0 W/m -1,2 C -0,9 C 1,6 km/h (1 Bft) 96,23 %
23.11.2017 06:02 -1,0 C 5,0 C 98 % 1012,2 hPa 0,0 l/m 0,3 km/h (0 Bft) S-SW 198 0 min 0,000 mm 0,0 UV-I 0 W/m -1,3 C -1,0 C 1,6 km/h (1 Bft) 94,00 %
23.11.2017 06:04 -1,0 C 5,0 C 98 % 1012,3 hPa 0,0 l/m 0,0 km/h (0 Bft) S-SW 198 0 min 0,000 mm 0,0 UV-I 0 W/m -1,3 C -1,0 C 0,0 km/h (0 Bft) 95,74 %
23.11.2017 06:06 -1,0 C 5,0 C 98 % 1012,4 hPa 0,0 l/m 0,0 km/h (0 Bft) S-SW 198 0 min 0,000 mm 0,0 UV-I 0 W/m -1,3 C -1,0 C 0,0 km/h (0 Bft) 93,62 %
23.11.2017 06:08 -1,1 C 5,0 C 98 % 1012,4 hPa 0,0 l/m 0,0 km/h (0 Bft) S-SW 198 0 min 0,000 mm 0,0 UV-I 0 W/m -1,4 C -1,1 C 0,0 km/h (0 Bft) 91,67 %
23.11.2017 06:10 -1,1 C 5,0 C 98 % 1012,4 hPa 0,0 l/m 0,0 km/h (0 Bft) S-SW 198 0 min 0,000 mm 0,0 UV-I 0 W/m -1,4 C -1,1 C 0,0 km/h (0 Bft) 95,31 %
23.11.2017 06:12 -1,2 C 5,0 C 98 % 1012,4 hPa 0,0 l/m 1,1 km/h (1 Bft) S-SW 198 0 min 0,000 mm 0,0 UV-I 0 W/m -1,5 C -1,2 C 3,2 km/h (1 Bft) 92,86 %
23.11.2017 06:14 -1,1 C 5,0 C 98 % 1012,5 hPa 0,0 l/m 0,0 km/h (0 Bft) S-SW 198 0 min 0,000 mm 0,0 UV-I 0 W/m -1,4 C -1,1 C 0,0 km/h (0 Bft) 98,00 %
23.11.2017 06:16 -1,1 C 5,0 C 98 % 1012,6 hPa 0,0 l/m 0,1 km/h (0 Bft) S-SW 198 0 min 0,000 mm 0,0 UV-I 0 W/m -1,4 C -1,1 C 1,6 km/h (1 Bft) 98,00 %
23.11.2017 06:18 -1,2 C 5,0 C 98 % 1012,6 hPa 0,0 l/m 0,0 km/h (0 Bft) S-SW 198 0 min 0,000 mm 0,0 UV-I 0 W/m -1,5 C -1,2 C 1,6 km/h (1 Bft) 96,00 %
23.11.2017 06:20 -1,2 C 5,0 C 98 % 1012,6 hPa 0,0 l/m 1,0 km/h (0 Bft) S-SW 198 0 min 0,000 mm 0,0 UV-I 0 W/m -1,5 C -1,2 C 3,2 km/h (1 Bft) 100,00 %
23.11.2017 06:22 -1,3 C 5,0 C 98 % 1012,6 hPa 0,0 l/m 1,1 km/h (1 Bft) S-SW 198 0 min 0,000 mm 0,0 UV-I 0 W/m -1,6 C -1,3 C 3,2 km/h (1 Bft) 96,23 %
23.11.2017 06:24 -1,3 C 5,0 C 98 % 1012,6 hPa 0,0 l/m 0,0 km/h (0 Bft) S-SW 198 0 min 0,000 mm 0,0 UV-I 0 W/m -1,6 C -1,3 C 1,6 km/h (1 Bft) 98,00 %
23.11.2017 06:26 -1,3 C 5,0 C 98 % 1012,6 hPa 0,0 l/m 0,0 km/h (0 Bft) S-SW 198 0 min 0,000 mm 0,0 UV-I 0 W/m -1,6 C -1,3 C 0,0 km/h (0 Bft) 97,37 %
23.11.2017 06:28 -1,4 C 5,0 C 98 % 1012,6 hPa 0,0 l/m 0,0 km/h (0 Bft) S-SW 198 0 min 0,000 mm 0,0 UV-I 0 W/m -1,7 C -1,4 C 0,0 km/h (0 Bft) 97,87 %
23.11.2017 06:30 -1,4 C 5,0 C 98 % 1012,6 hPa 0,0 l/m 0,0 km/h (0 Bft) S-SW 198 0 min 0,000 mm 0,0 UV-I 0 W/m -1,7 C -1,4 C 0,0 km/h (0 Bft) 98,11 %
23.11.2017 06:32 -1,3 C 5,0 C 98 % 1012,6 hPa 0,0 l/m 0,0 km/h (0 Bft) S-SW 198 0 min 0,000 mm 0,0 UV-I 0 W/m -1,6 C -1,3 C 0,0 km/h (0 Bft) 98,00 %
23.11.2017 06:34 -1,3 C 5,0 C 98 % 1012,6 hPa 0,0 l/m 0,0 km/h (0 Bft) S-SW 198 0 min 0,000 mm 0,0 UV-I 0 W/m -1,6 C -1,3 C 0,0 km/h (0 Bft) 95,74 %
23.11.2017 06:36 -1,3 C 5,0 C 98 % 1012,6 hPa 0,0 l/m 0,0 km/h (0 Bft) S-SW 198 0 min 0,000 mm 0,0 UV-I 0 W/m -1,6 C -1,3 C 0,0 km/h (0 Bft) 100,00 %
23.11.2017 06:38 -1,3 C 5,0 C 98 % 1012,5 hPa 0,0 l/m 0,0 km/h (0 Bft) S-SW 198 0 min 0,000 mm 0,0 UV-I 0 W/m -1,6 C -1,3 C 0,0 km/h (0 Bft) 98,11 %
23.11.2017 06:40 -1,3 C 5,0 C 98 % 1012,5 hPa 0,0 l/m 0,0 km/h (0 Bft) S-SW 198 0 min 0,000 mm 0,0 UV-I 0 W/m -1,6 C -1,3 C 0,0 km/h (0 Bft) 100,00 %
23.11.2017 06:42 -1,3 C 5,0 C 98 % 1012,5 hPa 0,0 l/m 0,0 km/h (0 Bft) S-SW 198 0 min 0,000 mm 0,0 UV-I 0 W/m -1,6 C -1,3 C 0,0 km/h (0 Bft) 94,29 %
23.11.2017 06:44 -1,3 C 5,0 C 98 % 1012,5 hPa 0,0 l/m 0,0 km/h (0 Bft) S-SW 198 0 min 0,000 mm 0,0 UV-I 0 W/m -1,6 C -1,3 C 0,0 km/h (0 Bft) 100,00 %
23.11.2017 06:46 -1,4 C 5,0 C 98 % 1012,5 hPa 0,0 l/m 0,0 km/h (0 Bft) S-SW 198 0 min 0,000 mm 0,0 UV-I 0 W/m -1,7 C -1,4 C 0,0 km/h (0 Bft) 97,44 %
23.11.2017 06:48 -1,4 C 5,0 C 98 % 1012,4 hPa 0,0 l/m 0,0 km/h (0 Bft) S-SW 198 0 min 0,000 mm 0,0 UV-I 0 W/m -1,7 C -1,4 C 1,6 km/h (1 Bft) 100,00 %
23.11.2017 06:50 -1,4 C 5,0 C 98 % 1012,5 hPa 0,0 l/m 1,7 km/h (1 Bft) S-SW 198 0 min 0,000 mm 0,0 UV-I 0 W/m -1,7 C -1,4 C 3,2 km/h (1 Bft) 100,00 %
23.11.2017 06:52 -1,4 C 5,0 C 98 % 1012,4 hPa 0,0 l/m 0,3 km/h (0 Bft) S-SW 198 0 min 0,000 mm 0,0 UV-I 0 W/m -1,7 C -1,4 C 1,6 km/h (1 Bft) 100,00 %
23.11.2017 06:54 -1,4 C 5,0 C 98 % 1012,5 hPa 0,0 l/m 0,0 km/h (0 Bft) S-SW 198 0 min 0,000 mm 0,0 UV-I 0 W/m -1,7 C -1,4 C 0,0 km/h (0 Bft) 98,00 %
23.11.2017 06:56 -1,4 C 5,0 C 98 % 1012,5 hPa 0,0 l/m 0,0 km/h (0 Bft) S-SW 198 0 min 0,000 mm 0,0 UV-I 0 W/m -1,7 C -1,4 C 0,0 km/h (0 Bft) 95,74 %
23.11.2017 06:58 -1,5 C 5,0 C 98 % 1012,6 hPa 0,0 l/m 0,0 km/h (0 Bft) S-SW 198 0 min 0,000 mm 0,0 UV-I 0 W/m -1,8 C -1,5 C 0,0 km/h (0 Bft) 100,00 %
23.11.2017 07:00 -1,5 C 5,0 C 98 % 1012,7 hPa 0,0 l/m 0,0 km/h (0 Bft) S-SW 198 0 min 0,000 mm 0,0 UV-I 0 W/m -1,8 C -1,5 C 0,0 km/h (0 Bft) 100,00 %
23.11.2017 07:02 -1,6 C 5,0 C 98 % 1012,7 hPa 0,0 l/m 0,0 km/h (0 Bft) S-SW 198 0 min 0,000 mm 0,0 UV-I 0 W/m -1,9 C -1,6 C 0,0 km/h (0 Bft) 100,00 %
23.11.2017 07:04 -1,6 C 5,0 C 98 % 1012,7 hPa 0,0 l/m 0,0 km/h (0 Bft) S-SW 198 0 min 0,000 mm 0,0 UV-I 5 W/m -1,9 C -1,6 C 0,0 km/h (0 Bft) 100,00 %
23.11.2017 07:06 -1,5 C 5,0 C 98 % 1012,7 hPa 0,0 l/m 0,0 km/h (0 Bft) S-SW 198 0 min 0,000 mm 0,0 UV-I 5 W/m -1,8 C -1,5 C 1,6 km/h (1 Bft) 97,87 %
23.11.2017 07:08 -1,6 C 5,0 C 98 % 1012,7 hPa 0,0 l/m 0,2 km/h (0 Bft) S-SW 198 0 min 0,000 mm 0,0 UV-I 7 W/m -1,9 C -1,6 C 1,6 km/h (1 Bft) 100,00 %
23.11.2017 07:10 -1,6 C 5,0 C 98 % 1012,7 hPa 0,0 l/m 0,4 km/h (0 Bft) S-SW 198 0 min 0,000 mm 0,0 UV-I 7 W/m -1,9 C -1,6 C 1,6 km/h (1 Bft) 97,87 %
23.11.2017 07:12 -1,5 C 5,0 C 98 % 1012,7 hPa 0,0 l/m 0,0 km/h (0 Bft) S-SW 198 0 min 0,000 mm 0,0 UV-I 7 W/m -1,8 C -1,5 C 0,0 km/h (0 Bft) 100,00 %
23.11.2017 07:14 -1,5 C 5,0 C 98 % 1012,7 hPa 0,0 l/m 0,0 km/h (0 Bft) S-SW 198 0 min 0,000 mm 0,0 UV-I 7 W/m -1,8 C -1,5 C 0,0 km/h (0 Bft) 95,74 %
23.11.2017 07:16 -1,5 C 5,0 C 98 % 1012,8 hPa 0,0 l/m 0,3 km/h (0 Bft) S-SW 198 0 min 0,000 mm 0,0 UV-I 7 W/m -1,8 C -1,5 C 1,6 km/h (1 Bft) 100,00 %
23.11.2017 07:18 -1,5 C 5,0 C 98 % 1012,7 hPa 0,0 l/m 0,0 km/h (0 Bft) S-SW 198 0 min 0,000 mm 0,0 UV-I 7 W/m -1,8 C -1,5 C 0,0 km/h (0 Bft) 100,00 %
23.11.2017 07:20 -1,6 C 5,0 C 98 % 1012,8 hPa 0,0 l/m 0,0 km/h (0 Bft) S-SW 198 0 min 0,000 mm 0,0 UV-I 7 W/m -1,9 C -1,6 C 0,0 km/h (0 Bft) 98,00 %
23.11.2017 07:22 -1,5 C 5,0 C 98 % 1012,8 hPa 0,0 l/m 0,0 km/h (0 Bft) S-SW 198 0 min 0,000 mm 0,0 UV-I 7 W/m -1,8 C -1,5 C 1,6 km/h (1 Bft) 100,00 %
23.11.2017 07:24 -1,5 C 5,0 C 98 % 1012,8 hPa 0,0 l/m 0,0 km/h (0 Bft) S-SW 198 0 min 0,000 mm 0,0 UV-I 7 W/m -1,8 C -1,5 C 1,6 km/h (1 Bft) 100,00 %
23.11.2017 07:26 -1,5 C 5,0 C 98 % 1012,8 hPa 0,0 l/m 0,0 km/h (0 Bft) S-SW 198 0 min 0,000 mm 0,0 UV-I 9 W/m -1,8 C -1,5 C 0,0 km/h (0 Bft) 97,87 %
23.11.2017 07:28 -1,6 C 5,0 C 98 % 1012,7 hPa 0,0 l/m 0,0 km/h (0 Bft) S-SW 198 0 min 0,000 mm 0,0 UV-I 9 W/m -1,9 C -1,6 C 0,0 km/h (0 Bft) 100,00 %
23.11.2017 07:30 -1,6 C 5,0 C 98 % 1012,8 hPa 0,0 l/m 1,6 km/h (1 Bft) S-SW 198 0 min 0,000 mm 0,0 UV-I 9 W/m -1,9 C -1,6 C 3,2 km/h (1 Bft) 100,00 %
23.11.2017 07:32 -1,6 C 5,0 C 98 % 1012,9 hPa 0,0 l/m 0,0 km/h (0 Bft) S-SW 198 0 min 0,000 mm 0,0 UV-I 11 W/m -1,9 C -1,6 C 0,0 km/h (0 Bft) 100,00 %
23.11.2017 07:34 -1,6 C 5,0 C 98 % 1012,9 hPa 0,0 l/m 1,6 km/h (1 Bft) S-SW 198 2 min 0,000 mm 0,0 UV-I 11 W/m -1,9 C -1,6 C 3,2 km/h (1 Bft) 97,87 %
23.11.2017 07:36 -1,6 C 5,0 C 98 % 1013,0 hPa 0,0 l/m 0,2 km/h (0 Bft) S-SW 198 2 min 0,000 mm 0,0 UV-I 12 W/m -1,9 C -1,6 C 1,6 km/h (1 Bft) 100,00 %
23.11.2017 07:38 -1,6 C 5,0 C 98 % 1013,0 hPa 0,0 l/m 0,0 km/h (0 Bft) S-SW 198 0 min 0,000 mm 0,0 UV-I 12 W/m -1,9 C -1,6 C 0,0 km/h (0 Bft) 100,00 %
23.11.2017 07:40 -1,6 C 5,0 C 98 % 1012,9 hPa 0,0 l/m 0,0 km/h (0 Bft) S-SW 198 0 min 0,000 mm 0,0 UV-I 12 W/m -1,9 C -1,6 C 0,0 km/h (0 Bft) 100,00 %
23.11.2017 07:42 -1,5 C 5,0 C 98 % 1012,9 hPa 0,0 l/m 0,0 km/h (0 Bft) S-SW 198 0 min 0,000 mm 0,0 UV-I 13 W/m -1,8 C -1,5 C 0,0 km/h (0 Bft) 97,87 %
23.11.2017 07:44 -1,4 C 5,0 C 98 % 1012,9 hPa 0,0 l/m 2,0 km/h (1 Bft) S-SW 198 0 min 0,000 mm 0,0 UV-I 15 W/m -1,7 C -1,4 C 3,2 km/h (1 Bft) 97,87 %
23.11.2017 07:46 -1,5 C 5,0 C 98 % 1012,9 hPa 0,0 l/m 1,3 km/h (1 Bft) S-SW 198 0 min 0,000 mm 0,0 UV-I 17 W/m -1,8 C -1,5 C 3,2 km/h (1 Bft) 94,74 %
23.11.2017 07:48 -1,5 C 5,0 C 98 % 1012,9 hPa 0,0 l/m 0,2 km/h (0 Bft) S-SW 198 0 min 0,000 mm 0,0 UV-I 21 W/m -1,8 C -1,5 C 1,6 km/h (1 Bft) 100,00 %
23.11.2017 07:50 -1,5 C 5,0 C 98 % 1012,9 hPa 0,0 l/m 0,7 km/h (0 Bft) S-SW 198 0 min 0,000 mm 0,0 UV-I 24 W/m -1,8 C -1,5 C 1,6 km/h (1 Bft) 97,87 %
23.11.2017 07:52 -1,4 C 5,0 C 98 % 1012,9 hPa 0,0 l/m 1,7 km/h (1 Bft) S-SW 198 0 min 0,000 mm 0,0 UV-I 25 W/m -1,7 C -1,4 C 3,2 km/h (1 Bft) 97,87 %
23.11.2017 07:54 -1,4 C 5,0 C 98 % 1012,9 hPa 0,0 l/m 2,3 km/h (1 Bft) S-SW 198 0 min 0,000 mm 0,0 UV-I 25 W/m -1,7 C -1,4 C 3,2 km/h (1 Bft) 100,00 %
23.11.2017 07:56 -1,4 C 5,0 C 98 % 1012,9 hPa 0,0 l/m 2,1 km/h (1 Bft) S-SW 198 0 min 0,000 mm 0,0 UV-I 26 W/m -1,7 C -1,4 C 4,8 km/h (1 Bft) 100,00 %
23.11.2017 07:58 -1,4 C 5,0 C 98 % 1013,0 hPa 0,0 l/m 0,1 km/h (0 Bft) S-SW 198 0 min 0,000 mm 0,0 UV-I 27 W/m -1,7 C -1,4 C 1,6 km/h (1 Bft) 97,14 %
23.11.2017 08:00 -1,4 C 5,0 C 98 % 1013,1 hPa 0,0 l/m 0,0 km/h (0 Bft) S-SW 198 0 min 0,000 mm 0,0 UV-I 31 W/m -1,7 C -1,4 C 0,0 km/h (0 Bft) 98,21 %
23.11.2017 08:02 -1,4 C 5,0 C 98 % 1013,1 hPa 0,0 l/m 0,0 km/h (0 Bft) S-SW 198 0 min 0,000 mm 0,0 UV-I 32 W/m -1,7 C -1,4 C 0,0 km/h (0 Bft) 96,00 %
23.11.2017 08:04 -1,4 C 5,0 C 98 % 1013,1 hPa 0,0 l/m 0,0 km/h (0 Bft) S-SW 198 0 min 0,000 mm 0,0 UV-I 33 W/m -1,7 C -1,4 C 0,0 km/h (0 Bft) 93,62 %
23.11.2017 08:06 -1,4 C 5,0 C 98 % 1013,1 hPa 0,0 l/m 0,0 km/h (0 Bft) S-SW 198 0 min 0,000 mm 0,0 UV-I 39 W/m -1,7 C -1,4 C 0,0 km/h (0 Bft) 97,87 %
23.11.2017 08:08 -1,5 C 5,0 C 98 % 1013,1 hPa 0,0 l/m 0,0 km/h (0 Bft) S-SW 198 0 min 0,000 mm 0,0 UV-I 49 W/m -1,8 C -1,5 C 0,0 km/h (0 Bft) 97,22 %
23.11.2017 08:10 -1,4 C 5,0 C 98 % 1013,0 hPa 0,0 l/m 1,3 km/h (1 Bft) S-SW 198 0 min 0,000 mm 0,0 UV-I 42 W/m -1,7 C -1,4 C 3,2 km/h (1 Bft) 96,43 %
23.11.2017 08:12 -1,4 C 5,0 C 98 % 1013,0 hPa 0,0 l/m 3,6 km/h (1 Bft) S-SW 198 0 min 0,000 mm 0,0 UV-I 40 W/m -1,7 C -1,4 C 4,8 km/h (1 Bft) 98,00 %
23.11.2017 08:14 -1,4 C 5,0 C 98 % 1012,9 hPa 0,0 l/m 3,5 km/h (1 Bft) S-SW 198 0 min 0,000 mm 0,0 UV-I 41 W/m -1,7 C -1,4 C 4,8 km/h (1 Bft) 97,62 %
23.11.2017 08:16 -1,4 C 5,0 C 98 % 1013,0 hPa 0,0 l/m 1,8 km/h (1 Bft) S-SW 198 0 min 0,000 mm 0,0 UV-I 46 W/m -1,7 C -1,4 C 3,2 km/h (1 Bft) 97,56 %
23.11.2017 08:18 -1,4 C 5,0 C 98 % 1013,0 hPa 0,0 l/m 0,0 km/h (0 Bft) S-SW 198 0 min 0,000 mm 0,0 UV-I 46 W/m -1,7 C -1,4 C 0,0 km/h (0 Bft) 96,00 %
23.11.2017 08:20 -1,3 C 5,0 C 98 % 1012,9 hPa 0,0 l/m 0,7 km/h (0 Bft) S-SW 198 0 min 0,000 mm 0,0 UV-I 42 W/m -1,6 C -1,3 C 3,2 km/h (1 Bft) 96,00 %
23.11.2017 08:22 -1,3 C 5,0 C 98 % 1013,0 hPa 0,0 l/m 1,3 km/h (1 Bft) S-SW 198 0 min 0,000 mm 0,0 UV-I 44 W/m -1,6 C -1,3 C 3,2 km/h (1 Bft) 91,49 %
23.11.2017 08:24 -1,3 C 5,0 C 98 % 1013,0 hPa 0,0 l/m 0,2 km/h (0 Bft) S-SW 198 0 min 0,000 mm 0,0 UV-I 46 W/m -1,6 C -1,3 C 1,6 km/h (1 Bft) 95,12 %
23.11.2017 08:26 -1,3 C 5,0 C 98 % 1013,0 hPa 0,0 l/m 0,0 km/h (0 Bft) S-SW 198 0 min 0,000 mm 0,0 UV-I 51 W/m -1,6 C -1,3 C 0,0 km/h (0 Bft) 91,49 %
23.11.2017 08:28 -1,3 C 5,0 C 98 % 1013,1 hPa 0,0 l/m 1,6 km/h (1 Bft) S-SW 198 2 min 0,000 mm 0,0 UV-I 92 W/m -1,6 C -1,3 C 3,2 km/h (1 Bft) 94,64 %
23.11.2017 08:30 -1,3 C 5,0 C 98 % 1013,1 hPa 0,0 l/m 1,0 km/h (0 Bft) S-SW 198 2 min 0,000 mm 0,0 UV-I 104 W/m -1,6 C -1,3 C 1,6 km/h (1 Bft) 94,74 %
23.11.2017 08:32 -1,3 C 5,0 C 98 % 1013,2 hPa 0,0 l/m 0,0 km/h (0 Bft) S-SW 198 2 min 0,000 mm 0,0 UV-I 83 W/m -1,6 C -1,3 C 0,0 km/h (0 Bft) 96,23 %
23.11.2017 08:34 -1,3 C 5,0 C 98 % 1013,3 hPa 0,0 l/m 1,9 km/h (1 Bft) S-SW 198 0 min 0,000 mm 0,0 UV-I 82 W/m -1,6 C -1,3 C 3,2 km/h (1 Bft) 95,74 %
23.11.2017 08:36 -1,3 C 5,0 C 98 % 1013,3 hPa 0,0 l/m 3,4 km/h (1 Bft) S-SW 198 2 min 0,000 mm 0,0 UV-I 104 W/m -1,6 C -1,3 C 4,8 km/h (1 Bft) 95,83 %
23.11.2017 08:38 -1,3 C 5,0 C 98 % 1013,3 hPa 0,0 l/m 3,7 km/h (1 Bft) S-SW 198 2 min 0,000 mm 0,0 UV-I 117 W/m -1,6 C -1,3 C 4,8 km/h (1 Bft) 98,51 %
23.11.2017 08:40 -1,3 C 5,0 C 98 % 1013,3 hPa 0,0 l/m 2,1 km/h (1 Bft) S-SW 198 2 min 0,000 mm 0,0 UV-I 146 W/m -1,6 C -1,3 C 3,2 km/h (1 Bft) 97,87 %
23.11.2017 08:42 -1,3 C 5,0 C 98 % 1013,3 hPa 0,0 l/m 0,1 km/h (0 Bft) S-SW 198 2 min 0,000 mm 0,0 UV-I 124 W/m -1,6 C -1,3 C 1,6 km/h (1 Bft) 94,00 %
23.11.2017 08:44 -1,1 C 5,0 C 98 % 1013,3 hPa 0,0 l/m 0,7 km/h (0 Bft) S-SW 198 2 min 0,000 mm 0,0 UV-I 168 W/m -1,4 C -1,1 C 1,6 km/h (1 Bft) 100,00 %
23.11.2017 08:46 -1,1 C 5,0 C 98 % 1013,3 hPa 0,0 l/m 0,1 km/h (0 Bft) S-SW 198 2 min 0,000 mm 0,0 UV-I 146 W/m -1,4 C -1,1 C 1,6 km/h (1 Bft) 95,74 %
23.11.2017 08:48 -0,9 C 5,0 C 98 % 1013,3 hPa 0,0 l/m 0,0 km/h (0 Bft) S-SW 198 0 min 0,000 mm 0,0 UV-I 84 W/m -1,2 C -0,9 C 0,0 km/h (0 Bft) 98,00 %
23.11.2017 08:50 -0,8 C 5,0 C 98 % 1013,3 hPa 0,0 l/m 0,0 km/h (0 Bft) S-SW 198 0 min 0,000 mm 0,0 UV-I 79 W/m -1,1 C -0,8 C 0,0 km/h (0 Bft) 98,00 %
23.11.2017 08:52 -0,8 C 5,0 C 98 % 1013,4 hPa 0,0 l/m 0,0 km/h (0 Bft) S-SW 198 2 min 0,000 mm 0,0 UV-I 141 W/m -1,1 C -0,8 C 0,0 km/h (0 Bft) 95,24 %
23.11.2017 08:54 -0,7 C 5,0 C 98 % 1013,4 hPa 0,0 l/m 0,0 km/h (0 Bft) S-SW 198 2 min 0,000 mm 0,0 UV-I 152 W/m -1,0 C -0,7 C 0,0 km/h (0 Bft) 97,87 %
23.11.2017 08:56 -0,6 C 5,0 C 98 % 1013,5 hPa 0,0 l/m 0,0 km/h (0 Bft) S-SW 198 2 min 0,000 mm 0,0 UV-I 189 W/m -0,9 C -0,6 C 0,0 km/h (0 Bft) 94,74 %
23.11.2017 08:58 -0,4 C 5,0 C 98 % 1013,4 hPa 0,0 l/m 0,0 km/h (0 Bft) S-SW 198 2 min 0,000 mm 0,0 UV-I 154 W/m -0,7 C -0,4 C 0,0 km/h (0 Bft) 94,92 %
23.11.2017 09:00 -0,3 C 5,0 C 98 % 1013,4 hPa 0,0 l/m 0,0 km/h (0 Bft) S-SW 198 2 min 0,025 mm 0,0 UV-I 129 W/m -0,6 C -0,3 C 0,0 km/h (0 Bft) 97,87 %
23.11.2017 09:02 -0,2 C 5,0 C 98 % 1013,5 hPa 0,0 l/m 0,0 km/h (0 Bft) S-SW 198 2 min 0,000 mm 0,0 UV-I 126 W/m -0,5 C -0,2 C 0,0 km/h (0 Bft) 98,00 %
23.11.2017 09:04 -0,3 C 5,0 C 98 % 1013,5 hPa 0,0 l/m 0,0 km/h (0 Bft) S-SW 198 2 min 0,000 mm 0,0 UV-I 155 W/m -0,6 C -0,3 C 0,0 km/h (0 Bft) 95,74 %
23.11.2017 09:06 -0,2 C 5,0 C 98 % 1013,5 hPa 0,0 l/m 0,0 km/h (0 Bft) S-SW 198 2 min 0,000 mm 0,0 UV-I 169 W/m -0,5 C -0,2 C 0,0 km/h (0 Bft) 95,74 %
23.11.2017 09:08 -0,2 C 5,0 C 98 % 1013,6 hPa 0,0 l/m 0,4 km/h (0 Bft) S-SW 198 2 min 0,000 mm 0,0 UV-I 194 W/m -0,5 C -0,2 C 3,2 km/h (1 Bft) 94,74 %
23.11.2017 09:10 -0,2 C 5,0 C 98 % 1013,6 hPa 0,0 l/m 3,0 km/h (1 Bft) S-SW 198 2 min 0,000 mm 0,0 UV-I 185 W/m -0,5 C -0,2 C 4,8 km/h (1 Bft) 97,73 %
23.11.2017 09:12 -0,2 C 5,0 C 98 % 1013,6 hPa 0,0 l/m 0,2 km/h (0 Bft) S-SW 198 2 min 0,000 mm 0,0 UV-I 149 W/m -0,5 C -0,2 C 1,6 km/h (1 Bft) 98,11 %
23.11.2017 09:14 -0,2 C 5,0 C 98 % 1013,6 hPa 0,0 l/m 0,0 km/h (0 Bft) S-SW 198 2 min 0,000 mm 0,0 UV-I 152 W/m -0,5 C -0,2 C 0,0 km/h (0 Bft) 97,87 %
23.11.2017 09:16 -0,3 C 5,0 C 98 % 1013,6 hPa 0,0 l/m 0,0 km/h (0 Bft) S-SW 198 2 min 0,000 mm 0,0 UV-I 148 W/m -0,6 C -0,3 C 0,0 km/h (0 Bft) 98,00 %
23.11.2017 09:18 -0,3 C 5,0 C 98 % 1013,6 hPa 0,0 l/m 0,4 km/h (0 Bft) S-SW 198 2 min 0,000 mm 0,0 UV-I 165 W/m -0,6 C -0,3 C 1,6 km/h (1 Bft) 97,87 %
23.11.2017 09:20 -0,2 C 5,0 C 98 % 1013,6 hPa 0,0 l/m 2,1 km/h (1 Bft) S-SW 198 2 min 0,000 mm 0,0 UV-I 208 W/m -0,5 C -0,2 C 3,2 km/h (1 Bft) 95,12 %
23.11.2017 09:22 -0,2 C 5,0 C 98 % 1013,7 hPa 0,0 l/m 1,7 km/h (1 Bft) S-SW 198 2 min 0,000 mm 0,0 UV-I 224 W/m -0,5 C -0,2 C 3,2 km/h (1 Bft) 95,45 %
23.11.2017 09:24 -0,1 C 5,0 C 98 % 1013,7 hPa 0,0 l/m 1,5 km/h (1 Bft) S-SW 198 2 min 0,000 mm 0,0 UV-I 204 W/m -0,4 C -0,1 C 3,2 km/h (1 Bft) 98,00 %
23.11.2017 09:26 0,0 C 5,0 C 98 % 1013,9 hPa 0,0 l/m 3,2 km/h (1 Bft) S-SW 198 2 min 0,000 mm 0,0 UV-I 202 W/m -0,3 C 0,0 C 4,8 km/h (1 Bft) 97,62 %
23.11.2017 09:28 0,1 C 5,0 C 98 % 1013,9 hPa 0,0 l/m 3,0 km/h (1 Bft) S-SW 198 2 min 0,000 mm 0,0 UV-I 213 W/m -0,2 C 0,1 C 4,8 km/h (1 Bft) 98,08 %
23.11.2017 09:30 0,1 C 5,0 C 98 % 1014,0 hPa 0,0 l/m 3,1 km/h (1 Bft) S-SW 198 2 min 0,000 mm 0,0 UV-I 218 W/m -0,2 C 0,1 C 4,8 km/h (1 Bft) 94,00 %
23.11.2017 09:32 0,1 C 5,0 C 98 % 1014,0 hPa 0,0 l/m 4,2 km/h (1 Bft) S-SW 198 2 min 0,000 mm 0,0 UV-I 245 W/m -0,2 C 0,1 C 4,8 km/h (1 Bft) 98,00 %
23.11.2017 09:34 0,1 C 5,0 C 98 % 1014,1 hPa 0,0 l/m 2,0 km/h (1 Bft) S-SW 198 2 min 0,000 mm 0,0 UV-I 250 W/m -0,2 C 0,1 C 3,2 km/h (1 Bft) 97,22 %
23.11.2017 09:36 0,2 C 5,0 C 98 % 1014,1 hPa 0,0 l/m 1,4 km/h (1 Bft) S-SW 198 2 min 0,000 mm 0,0 UV-I 247 W/m -0,1 C 0,2 C 3,2 km/h (1 Bft) 100,00 %
23.11.2017 09:38 0,3 C 5,0 C 98 % 1014,1 hPa 0,0 l/m 2,6 km/h (1 Bft) S-SW 198 2 min 0,000 mm 0,0 UV-I 244 W/m 0,0 C 0,3 C 3,2 km/h (1 Bft) 97,87 %
23.11.2017 09:40 0,3 C 5,0 C 98 % 1014,2 hPa 0,0 l/m 0,7 km/h (0 Bft) S-SW 198 2 min 0,000 mm 0,0 UV-I 247 W/m 0,0 C 0,3 C 3,2 km/h (1 Bft) 92,31 %
23.11.2017 09:42 0,4 C 5,0 C 98 % 1014,2 hPa 0,0 l/m 0,5 km/h (0 Bft) S-SW 198 2 min 0,000 mm 0,0 UV-I 240 W/m 0,1 C 0,4 C 3,2 km/h (1 Bft) 95,16 %
23.11.2017 09:44 0,5 C 5,0 C 98 % 1014,3 hPa 0,0 l/m 0,2 km/h (0 Bft) S-SW 198 2 min 0,000 mm 0,5 UV-I 245 W/m 0,2 C 0,5 C 1,6 km/h (1 Bft) 95,74 %
23.11.2017 09:46 0,6 C 5,0 C 98 % 1014,3 hPa 0,0 l/m 0,0 km/h (0 Bft) S-SW 198 2 min 0,000 mm 0,5 UV-I 259 W/m 0,3 C 0,6 C 1,6 km/h (1 Bft) 93,62 %
23.11.2017 09:48 0,7 C 5,0 C 98 % 1014,4 hPa 0,0 l/m 0,9 km/h (0 Bft) S-SW 198 2 min 0,000 mm 0,5 UV-I 255 W/m 0,4 C 0,7 C 1,6 km/h (1 Bft) 92,00 %
23.11.2017 09:50 0,7 C 5,0 C 98 % 1014,4 hPa 0,0 l/m 0,2 km/h (0 Bft) S-SW 198 2 min 0,000 mm 0,5 UV-I 268 W/m 0,4 C 0,7 C 1,6 km/h (1 Bft) 94,00 %
23.11.2017 09:52 0,8 C 5,0 C 98 % 1014,5 hPa 0,0 l/m 0,5 km/h (0 Bft) S-SW 198 2 min 0,000 mm 0,5 UV-I 272 W/m 0,5 C 0,8 C 1,6 km/h (1 Bft) 97,56 %
23.11.2017 09:54 0,9 C 5,0 C 98 % 1014,4 hPa 0,0 l/m 0,7 km/h (0 Bft) S-SW 198 2 min 0,000 mm 0,5 UV-I 260 W/m 0,6 C 0,9 C 3,2 km/h (1 Bft) 91,49 %
23.11.2017 09:56 0,9 C 5,0 C 98 % 1014,5 hPa 0,0 l/m 0,1 km/h (0 Bft) S-SW 198 2 min 0,000 mm 0,5 UV-I 277 W/m 0,6 C 0,9 C 1,6 km/h (1 Bft) 96,00 %
23.11.2017 09:58 0,9 C 5,0 C 98 % 1014,5 hPa 0,0 l/m 0,1 km/h (0 Bft) S-SW 198 2 min 0,000 mm 0,5 UV-I 281 W/m 0,6 C 0,9 C 1,6 km/h (1 Bft) 96,00 %
23.11.2017 10:00 0,9 C 5,0 C 98 % 1014,5 hPa 0,0 l/m 0,1 km/h (0 Bft) S-SW 198 2 min 0,077 mm 0,5 UV-I 281 W/m 0,6 C 0,9 C 1,6 km/h (1 Bft) 95,12 %
23.11.2017 10:02 0,9 C 5,0 C 98 % 1014,6 hPa 0,0 l/m 0,1 km/h (0 Bft) S-SW 198 2 min 0,000 mm 0,5 UV-I 279 W/m 0,6 C 0,9 C 1,6 km/h (1 Bft) 98,11 %
23.11.2017 10:04 0,9 C 5,0 C 98 % 1014,6 hPa 0,0 l/m 0,0 km/h (0 Bft) S-SW 198 2 min 0,000 mm 0,5 UV-I 274 W/m 0,6 C 0,9 C 0,0 km/h (0 Bft) 97,37 %
23.11.2017 10:06 1,0 C 5,0 C 98 % 1014,7 hPa 0,0 l/m 1,7 km/h (1 Bft) S-SW 198 2 min 0,000 mm 0,6 UV-I 292 W/m 0,7 C 1,0 C 3,2 km/h (1 Bft) 98,31 %
23.11.2017 10:08 1,2 C 5,0 C 98 % 1014,6 hPa 0,0 l/m 2,8 km/h (1 Bft) S-SW 198 2 min 0,000 mm 0,6 UV-I 298 W/m 0,9 C 1,2 C 3,2 km/h (1 Bft) 97,73 %
23.11.2017 10:10 1,3 C 5,0 C 98 % 1014,7 hPa 0,0 l/m 4,7 km/h (1 Bft) SW 225 2 min 0,000 mm 0,6 UV-I 306 W/m 1,0 C 1,3 C 6,4 km/h (2 Bft) 97,62 %
23.11.2017 10:12 1,4 C 5,0 C 98 % 1014,8 hPa 0,0 l/m 5,4 km/h (1 Bft) W-SW 242 2 min 0,000 mm 0,6 UV-I 313 W/m 1,1 C 1,4 C 8,0 km/h (2 Bft) 97,37 %
23.11.2017 10:14 1,3 C 5,0 C 98 % 1014,8 hPa 0,0 l/m 6,7 km/h (2 Bft) S-SW 209 2 min 0,000 mm 0,6 UV-I 312 W/m 1,0 C 1,0 C 9,7 km/h (2 Bft) 98,11 %
23.11.2017 10:16 1,2 C 5,0 C 98 % 1014,8 hPa 0,0 l/m 5,6 km/h (1 Bft) S-SW 212 2 min 0,000 mm 0,6 UV-I 318 W/m 0,9 C 1,2 C 8,0 km/h (2 Bft) 96,23 %
23.11.2017 10:18 1,3 C 5,0 C 98 % 1014,7 hPa 0,0 l/m 4,4 km/h (1 Bft) S-SW 196 2 min 0,000 mm 0,6 UV-I 315 W/m 1,0 C 1,3 C 6,4 km/h (2 Bft) 97,87 %
23.11.2017 10:20 1,2 C 5,0 C 98 % 1014,6 hPa 0,0 l/m 3,0 km/h (1 Bft) S 177 2 min 0,000 mm 0,6 UV-I 328 W/m 0,9 C 1,2 C 6,4 km/h (2 Bft) 100,00 %
23.11.2017 10:22 1,2 C 5,0 C 98 % 1014,7 hPa 0,0 l/m 5,2 km/h (1 Bft) S 188 2 min 0,000 mm 0,6 UV-I 328 W/m 0,9 C 1,2 C 9,7 km/h (2 Bft) 97,56 %
23.11.2017 10:24 1,4 C 5,0 C 98 % 1014,7 hPa 0,0 l/m 5,1 km/h (1 Bft) S 182 2 min 0,000 mm 0,6 UV-I 292 W/m 1,1 C 1,4 C 8,0 km/h (2 Bft) 100,00 %
23.11.2017 10:26 1,3 C 5,0 C 98 % 1014,7 hPa 0,0 l/m 3,0 km/h (1 Bft) S-SW 193 2 min 0,000 mm 0,7 UV-I 326 W/m 1,0 C 1,3 C 4,8 km/h (1 Bft) 100,00 %
23.11.2017 10:28 1,3 C 5,0 C 98 % 1014,7 hPa 0,0 l/m 1,4 km/h (1 Bft) S-SW 193 2 min 0,000 mm 0,7 UV-I 319 W/m 1,0 C 1,3 C 3,2 km/h (1 Bft) 100,00 %
23.11.2017 10:30 1,3 C 5,0 C 98 % 1014,7 hPa 0,0 l/m 3,8 km/h (1 Bft) S-SW 193 2 min 0,000 mm 0,7 UV-I 296 W/m 1,0 C 1,3 C 6,4 km/h (2 Bft) 100,00 %
23.11.2017 10:32 1,5 C 5,0 C 98 % 1014,7 hPa 0,0 l/m 3,6 km/h (1 Bft) W-SW 237 2 min 0,000 mm 0,7 UV-I 306 W/m 1,2 C 1,5 C 4,8 km/h (1 Bft) 100,00 %
23.11.2017 10:34 1,6 C 5,0 C 98 % 1014,7 hPa 0,0 l/m 1,5 km/h (1 Bft) SW 236 2 min 0,000 mm 0,7 UV-I 321 W/m 1,3 C 1,6 C 3,2 km/h (1 Bft) 100,00 %
23.11.2017 10:36 1,9 C 5,0 C 98 % 1014,7 hPa 0,0 l/m 3,4 km/h (1 Bft) SW 229 2 min 0,000 mm 0,7 UV-I 324 W/m 1,6 C 1,9 C 6,4 km/h (2 Bft) 100,00 %
23.11.2017 10:38 2,0 C 5,0 C 98 % 1014,8 hPa 0,0 l/m 4,9 km/h (1 Bft) SW 225 2 min 0,000 mm 0,7 UV-I 332 W/m 1,7 C 2,0 C 6,4 km/h (2 Bft) 100,00 %
23.11.2017 10:40 2,1 C 5,0 C 98 % 1014,9 hPa 0,0 l/m 4,2 km/h (1 Bft) SW 226 2 min 0,000 mm 0,7 UV-I 332 W/m 1,8 C 2,1 C 6,4 km/h (2 Bft) 100,00 %
23.11.2017 10:42 2,0 C 5,0 C 98 % 1015,0 hPa 0,0 l/m 6,0 km/h (2 Bft) SW 230 2 min 0,000 mm 0,7 UV-I 323 W/m 1,7 C 2,0 C 8,0 km/h (2 Bft) 100,00 %
23.11.2017 10:44 2,1 C 5,0 C 98 % 1015,0 hPa 0,0 l/m 4,3 km/h (1 Bft) SW 234 2 min 0,000 mm 0,7 UV-I 325 W/m 1,8 C 2,1 C 6,4 km/h (2 Bft) 97,87 %
23.11.2017 10:46 2,2 C 5,0 C 98 % 1015,0 hPa 0,0 l/m 3,8 km/h (1 Bft) SW 229 2 min 0,000 mm 0,7 UV-I 327 W/m 1,9 C 2,2 C 4,8 km/h (1 Bft) 97,22 %
23.11.2017 10:48 2,3 C 5,0 C 98 % 1015,0 hPa 0,0 l/m 5,6 km/h (1 Bft) SW 215 2 min 0,000 mm 0,7 UV-I 322 W/m 2,0 C 2,3 C 8,0 km/h (2 Bft) 100,00 %
23.11.2017 10:50 2,4 C 5,0 C 98 % 1015,0 hPa 0,0 l/m 4,5 km/h (1 Bft) SW 215 2 min 0,000 mm 0,7 UV-I 320 W/m 2,1 C 2,4 C 6,4 km/h (2 Bft) 98,08 %
23.11.2017 10:52 2,6 C 5,0 C 98 % 1015,1 hPa 0,0 l/m 4,1 km/h (1 Bft) SW 215 2 min 0,000 mm 0,8 UV-I 332 W/m 2,3 C 2,6 C 6,4 km/h (2 Bft) 100,00 %
23.11.2017 10:54 2,5 C 5,0 C 98 % 1015,1 hPa 0,0 l/m 4,3 km/h (1 Bft) W-SW 248 2 min 0,000 mm 0,8 UV-I 335 W/m 2,2 C 2,5 C 6,4 km/h (2 Bft) 97,22 %
23.11.2017 10:56 2,6 C 5,0 C 98 % 1015,1 hPa 0,0 l/m 5,4 km/h (1 Bft) W-SW 238 2 min 0,000 mm 0,8 UV-I 336 W/m 2,3 C 2,6 C 8,0 km/h (2 Bft) 94,64 %
23.11.2017 10:58 2,6 C 5,0 C 98 % 1015,1 hPa 0,0 l/m 5,0 km/h (1 Bft) SW 219 2 min 0,000 mm 0,8 UV-I 338 W/m 2,3 C 2,6 C 6,4 km/h (2 Bft) 94,00 %
23.11.2017 11:00 2,7 C 5,0 C 98 % 1015,2 hPa 0,0 l/m 3,1 km/h (1 Bft) W-SW 250 2 min 0,101 mm 0,8 UV-I 339 W/m 2,4 C 2,7 C 6,4 km/h (2 Bft) 97,37 %
23.11.2017 11:02 2,8 C 5,0 C 98 % 1015,1 hPa 0,0 l/m 1,5 km/h (1 Bft) W-SW 250 2 min 0,000 mm 0,8 UV-I 340 W/m 2,5 C 2,8 C 3,2 km/h (1 Bft) 98,00 %
23.11.2017 11:04 2,9 C 5,0 C 98 % 1015,2 hPa 0,0 l/m 3,9 km/h (1 Bft) W-SW 247 2 min 0,000 mm 0,8 UV-I 345 W/m 2,6 C 2,9 C 4,8 km/h (1 Bft) 97,87 %
23.11.2017 11:06 3,1 C 5,0 C 98 % 1015,1 hPa 0,0 l/m 2,6 km/h (1 Bft) W-SW 247 2 min 0,000 mm 0,8 UV-I 350 W/m 2,8 C 3,1 C 4,8 km/h (1 Bft) 97,87 %
23.11.2017 11:08 3,2 C 5,0 C 98 % 1015,1 hPa 0,0 l/m 3,9 km/h (1 Bft) W-SW 248 2 min 0,000 mm 0,8 UV-I 354 W/m 2,9 C 3,2 C 4,8 km/h (1 Bft) 98,00 %
23.11.2017 11:10 3,2 C 5,0 C 98 % 1015,1 hPa 0,0 l/m 2,9 km/h (1 Bft) W-SW 248 2 min 0,000 mm 0,8 UV-I 348 W/m 2,9 C 3,2 C 4,8 km/h (1 Bft) 97,56 %
23.11.2017 11:12 3,2 C 5,0 C 98 % 1015,1 hPa 0,0 l/m 2,6 km/h (1 Bft) W-SW 258 2 min 0,000 mm 0,8 UV-I 346 W/m 2,9 C 3,2 C 4,8 km/h (1 Bft) 98,00 %
23.11.2017 11:14 3,3 C 5,0 C 98 % 1015,1 hPa 0,0 l/m 3,3 km/h (1 Bft) W 261 2 min 0,000 mm 0,8 UV-I 332 W/m 3,0 C 3,3 C 4,8 km/h (1 Bft) 100,00 %
23.11.2017 11:16 3,3 C 5,0 C 98 % 1015,0 hPa 0,0 l/m 3,6 km/h (1 Bft) W 260 2 min 0,000 mm 0,8 UV-I 319 W/m 3,0 C 3,3 C 6,4 km/h (2 Bft) 95,74 %
23.11.2017 11:18 3,3 C 5,0 C 98 % 1015,1 hPa 0,0 l/m 3,7 km/h (1 Bft) W-SW 258 2 min 0,000 mm 0,8 UV-I 341 W/m 3,0 C 3,3 C 6,4 km/h (2 Bft) 100,00 %
23.11.2017 11:20 3,4 C 5,0 C 98 % 1015,1 hPa 0,0 l/m 5,5 km/h (1 Bft) W 269 2 min 0,000 mm 0,8 UV-I 340 W/m 3,1 C 3,4 C 9,7 km/h (2 Bft) 100,00 %
23.11.2017 11:22 3,6 C 5,0 C 98 % 1015,2 hPa 0,0 l/m 4,6 km/h (1 Bft) W 267 2 min 0,000 mm 0,8 UV-I 357 W/m 3,3 C 3,6 C 6,4 km/h (2 Bft) 100,00 %
23.11.2017 11:24 3,6 C 5,0 C 98 % 1015,1 hPa 0,0 l/m 5,5 km/h (1 Bft) W-SW 248 2 min 0,000 mm 0,8 UV-I 360 W/m 3,3 C 3,6 C 8,0 km/h (2 Bft) 98,00 %
23.11.2017 11:26 3,7 C 5,0 C 98 % 1015,2 hPa 0,0 l/m 4,7 km/h (1 Bft) W-SW 248 2 min 0,000 mm 0,8 UV-I 358 W/m 3,4 C 3,7 C 6,4 km/h (2 Bft) 98,04 %
23.11.2017 11:28 3,7 C 5,0 C 98 % 1015,2 hPa 0,0 l/m 3,4 km/h (1 Bft) W-SW 248 2 min 0,000 mm 0,8 UV-I 346 W/m 3,4 C 3,7 C 4,8 km/h (1 Bft) 100,00 %
23.11.2017 11:30 3,8 C 5,0 C 98 % 1015,1 hPa 0,0 l/m 4,3 km/h (1 Bft) W 280 2 min 0,000 mm 0,8 UV-I 337 W/m 3,5 C 3,8 C 6,4 km/h (2 Bft) 100,00 %
23.11.2017 11:32 3,9 C 5,0 C 98 % 1015,2 hPa 0,0 l/m 4,8 km/h (1 Bft) W-SW 254 2 min 0,000 mm 0,8 UV-I 366 W/m 3,6 C 3,9 C 6,4 km/h (2 Bft) 100,00 %
23.11.2017 11:34 3,9 C 5,0 C 98 % 1015,2 hPa 0,0 l/m 4,2 km/h (1 Bft) W-SW 254 2 min 0,000 mm 0,8 UV-I 323 W/m 3,6 C 3,9 C 4,8 km/h (1 Bft) 97,62 %
23.11.2017 11:36 4,0 C 5,0 C 98 % 1015,2 hPa 0,0 l/m 3,0 km/h (1 Bft) W-SW 254 2 min 0,000 mm 0,8 UV-I 282 W/m 3,7 C 4,0 C 6,4 km/h (2 Bft) 98,11 %
23.11.2017 11:38 4,2 C 5,0 C 98 % 1015,1 hPa 0,0 l/m 3,2 km/h (1 Bft) W-SW 255 2 min 0,000 mm 0,8 UV-I 262 W/m 3,9 C 4,2 C 4,8 km/h (1 Bft) 100,00 %
23.11.2017 11:40 4,3 C 5,0 C 98 % 1015,1 hPa 0,0 l/m 1,9 km/h (1 Bft) W 271 2 min 0,000 mm 0,8 UV-I 340 W/m 4,0 C 4,3 C 4,8 km/h (1 Bft) 100,00 %
23.11.2017 11:42 4,3 C 5,0 C 98 % 1015,1 hPa 0,0 l/m 1,6 km/h (1 Bft) W 269 2 min 0,000 mm 0,8 UV-I 339 W/m 4,0 C 4,3 C 4,8 km/h (1 Bft) 100,00 %
23.11.2017 11:44 4,4 C 5,0 C 98 % 1015,2 hPa 0,0 l/m 1,2 km/h (1 Bft) W 269 2 min 0,000 mm 0,8 UV-I 343 W/m 4,1 C 4,4 C 3,2 km/h (1 Bft) 97,87 %
23.11.2017 11:46 4,6 C 5,0 C 98 % 1015,2 hPa 0,0 l/m 1,6 km/h (1 Bft) W 271 2 min 0,000 mm 0,8 UV-I 348 W/m 4,3 C 4,6 C 3,2 km/h (1 Bft) 100,00 %
23.11.2017 11:48 4,6 C 5,0 C 97 % 1015,2 hPa 0,0 l/m 1,0 km/h (0 Bft) W 271 2 min 0,000 mm 0,8 UV-I 323 W/m 4,2 C 4,6 C 3,2 km/h (1 Bft) 100,00 %
23.11.2017 11:50 4,7 C 5,0 C 97 % 1015,2 hPa 0,0 l/m 1,3 km/h (1 Bft) W 271 2 min 0,000 mm 0,8 UV-I 325 W/m 4,3 C 4,7 C 3,2 km/h (1 Bft) 100,00 %
23.11.2017 11:52 4,8 C 5,0 C 97 % 1015,3 hPa 0,0 l/m 3,6 km/h (1 Bft) W 271 2 min 0,000 mm 0,8 UV-I 337 W/m 4,4 C 4,8 C 6,4 km/h (2 Bft) 100,00 %
23.11.2017 11:54 4,8 C 5,0 C 97 % 1015,3 hPa 0,0 l/m 3,1 km/h (1 Bft) W 271 2 min 0,000 mm 0,8 UV-I 344 W/m 4,4 C 4,8 C 4,8 km/h (1 Bft) 100,00 %
23.11.2017 11:56 4,9 C 5,0 C 97 % 1015,3 hPa 0,0 l/m 2,3 km/h (1 Bft) W 271 2 min 0,000 mm 0,8 UV-I 347 W/m 4,5 C 4,9 C 3,2 km/h (1 Bft) 97,56 %
23.11.2017 11:58 5,1 C 5,0 C 97 % 1015,4 hPa 0,0 l/m 4,8 km/h (1 Bft) W-SW 252 2 min 0,000 mm 0,9 UV-I 367 W/m 4,7 C 5,1 C 8,0 km/h (2 Bft) 100,00 %
23.11.2017 12:00 5,2 C 5,0 C 97 % 1015,4 hPa 0,0 l/m 6,5 km/h (2 Bft) W-SW 246 2 min 0,127 mm 0,8 UV-I 340 W/m 4,8 C 5,1 C 8,0 km/h (2 Bft) 98,00 %
23.11.2017 12:02 5,1 C 5,0 C 96 % 1015,4 hPa 0,0 l/m 5,5 km/h (1 Bft) W-SW 252 2 min 0,000 mm 0,8 UV-I 347 W/m 4,5 C 5,1 C 8,0 km/h (2 Bft) 100,00 %
23.11.2017 12:04 5,3 C 5,0 C 96 % 1015,3 hPa 0,0 l/m 3,7 km/h (1 Bft) W-SW 252 2 min 0,000 mm 0,8 UV-I 354 W/m 4,7 C 5,3 C 4,8 km/h (1 Bft) 98,21 %
23.11.2017 12:06 5,6 C 5,0 C 96 % 1015,4 hPa 0,0 l/m 2,9 km/h (1 Bft) W-SW 252 2 min 0,000 mm 0,9 UV-I 362 W/m 5,0 C 5,6 C 4,8 km/h (1 Bft) 100,00 %
23.11.2017 12:08 5,7 C 5,0 C 96 % 1015,4 hPa 0,0 l/m 5,7 km/h (1 Bft) W-SW 253 2 min 0,000 mm 0,9 UV-I 363 W/m 5,1 C 5,7 C 8,0 km/h (2 Bft) 98,51 %
23.11.2017 12:10 5,7 C 5,0 C 95 % 1015,4 hPa 0,0 l/m 4,3 km/h (1 Bft) W-SW 257 2 min 0,000 mm 0,8 UV-I 350 W/m 5,0 C 5,7 C 6,4 km/h (2 Bft) 97,44 %
23.11.2017 12:12 5,8 C 5,0 C 95 % 1015,4 hPa 0,0 l/m 3,3 km/h (1 Bft) W 267 2 min 0,000 mm 0,8 UV-I 343 W/m 5,1 C 5,8 C 4,8 km/h (1 Bft) 98,00 %
23.11.2017 12:14 5,9 C 5,0 C 94 % 1015,5 hPa 0,0 l/m 3,8 km/h (1 Bft) W-SW 240 2 min 0,000 mm 0,8 UV-I 324 W/m 5,0 C 5,9 C 6,4 km/h (2 Bft) 97,56 %
23.11.2017 12:16 5,9 C 5,0 C 93 % 1015,4 hPa 0,0 l/m 1,7 km/h (1 Bft) W-SW 240 2 min 0,000 mm 0,8 UV-I 338 W/m 4,9 C 5,9 C 3,2 km/h (1 Bft) 98,00 %
23.11.2017 12:18 6,1 C 5,0 C 93 % 1015,4 hPa 0,0 l/m 0,7 km/h (0 Bft) W-SW 240 2 min 0,000 mm 0,8 UV-I 352 W/m 5,1 C 6,1 C 3,2 km/h (1 Bft) 96,23 %
23.11.2017 12:20 6,3 C 5,0 C 92 % 1015,4 hPa 0,0 l/m 4,1 km/h (1 Bft) W-SW 240 2 min 0,000 mm 0,8 UV-I 334 W/m 5,1 C 6,3 C 6,4 km/h (2 Bft) 97,87 %
23.11.2017 12:22 6,4 C 5,0 C 92 % 1015,4 hPa 0,0 l/m 2,0 km/h (1 Bft) W-SW 240 2 min 0,000 mm 0,8 UV-I 303 W/m 5,2 C 6,4 C 4,8 km/h (1 Bft) 97,56 %
23.11.2017 12:24 6,4 C 5,0 C 90 % 1015,5 hPa 0,0 l/m 5,2 km/h (1 Bft) W 262 2 min 0,000 mm 0,8 UV-I 306 W/m 4,9 C 6,4 C 6,4 km/h (2 Bft) 96,23 %
23.11.2017 12:26 6,5 C 5,0 C 89 % 1015,4 hPa 0,0 l/m 3,3 km/h (1 Bft) W-SW 244 2 min 0,000 mm 0,8 UV-I 355 W/m 4,8 C 6,5 C 6,4 km/h (2 Bft) 97,37 %
23.11.2017 12:28 6,6 C 5,0 C 89 % 1015,4 hPa 0,0 l/m 4,7 km/h (1 Bft) SW 217 2 min 0,000 mm 0,8 UV-I 347 W/m 4,9 C 6,6 C 6,4 km/h (2 Bft) 98,00 %
23.11.2017 12:30 6,7 C 5,0 C 88 % 1015,4 hPa 0,0 l/m 5,3 km/h (1 Bft) SW 221 2 min 0,000 mm 0,8 UV-I 366 W/m 4,9 C 6,7 C 8,0 km/h (2 Bft) 100,00 %
23.11.2017 12:32 6,7 C 5,0 C 87 % 1015,4 hPa 0,0 l/m 5,2 km/h (1 Bft) W 259 2 min 0,000 mm 0,8 UV-I 314 W/m 4,7 C 6,7 C 9,7 km/h (2 Bft) 100,00 %
23.11.2017 12:34 6,8 C 5,0 C 87 % 1015,4 hPa 0,0 l/m 3,2 km/h (1 Bft) W 259 2 min 0,000 mm 0,8 UV-I 321 W/m 4,8 C 6,8 C 4,8 km/h (1 Bft) 100,00 %
23.11.2017 12:36 6,8 C 5,0 C 86 % 1015,4 hPa 0,0 l/m 2,0 km/h (1 Bft) W 259 2 min 0,000 mm 0,8 UV-I 355 W/m 4,6 C 6,8 C 3,2 km/h (1 Bft) 100,00 %
23.11.2017 12:38 7,0 C 5,0 C 86 % 1015,4 hPa 0,0 l/m 2,8 km/h (1 Bft) W 259 2 min 0,000 mm 0,8 UV-I 315 W/m 4,8 C 7,0 C 4,8 km/h (1 Bft) 100,00 %
23.11.2017 12:40 7,1 C 5,0 C 85 % 1015,4 hPa 0,0 l/m 3,4 km/h (1 Bft) W 259 2 min 0,000 mm 0,8 UV-I 336 W/m 4,8 C 7,1 C 6,4 km/h (2 Bft) 100,00 %
23.11.2017 12:42 7,1 C 5,0 C 85 % 1015,4 hPa 0,0 l/m 1,7 km/h (1 Bft) W 259 2 min 0,000 mm 0,8 UV-I 343 W/m 4,8 C 7,1 C 4,8 km/h (1 Bft) 96,00 %
23.11.2017 12:44 7,3 C 5,0 C 85 % 1015,3 hPa 0,0 l/m 0,1 km/h (0 Bft) W 259 2 min 0,000 mm 0,8 UV-I 344 W/m 4,9 C 7,3 C 1,6 km/h (1 Bft) 98,00 %
23.11.2017 12:46 7,5 C 5,0 C 85 % 1015,4 hPa 0,0 l/m 0,1 km/h (0 Bft) W 259 2 min 0,000 mm 0,8 UV-I 340 W/m 5,1 C 7,5 C 1,6 km/h (1 Bft) 97,87 %
23.11.2017 12:48 7,7 C 5,0 C 83 % 1015,3 hPa 0,0 l/m 1,2 km/h (1 Bft) W 259 2 min 0,000 mm 0,8 UV-I 334 W/m 5,0 C 7,7 C 3,2 km/h (1 Bft) 97,62 %
23.11.2017 12:50 7,6 C 5,0 C 82 % 1015,3 hPa 0,0 l/m 1,8 km/h (1 Bft) W 259 2 min 0,000 mm 0,8 UV-I 329 W/m 4,7 C 7,6 C 4,8 km/h (1 Bft) 96,00 %
23.11.2017 12:52 7,6 C 5,0 C 83 % 1015,3 hPa 0,0 l/m 0,9 km/h (0 Bft) W 259 2 min 0,000 mm 0,8 UV-I 345 W/m 4,9 C 7,6 C 3,2 km/h (1 Bft) 97,87 %
23.11.2017 12:54 7,6 C 5,0 C 82 % 1015,3 hPa 0,0 l/m 2,3 km/h (1 Bft) W 259 2 min 0,000 mm 0,8 UV-I 342 W/m 4,7 C 7,6 C 4,8 km/h (1 Bft) 97,56 %
23.11.2017 12:56 7,7 C 5,0 C 82 % 1015,3 hPa 0,0 l/m 2,8 km/h (1 Bft) W 259 2 min 0,000 mm 0,7 UV-I 316 W/m 4,8 C 7,7 C 4,8 km/h (1 Bft) 98,00 %
23.11.2017 12:58 7,7 C 5,0 C 81 % 1015,3 hPa 0,0 l/m 2,7 km/h (1 Bft) W 259 2 min 0,000 mm 0,7 UV-I 343 W/m 4,7 C 7,7 C 4,8 km/h (1 Bft) 98,00 %
23.11.2017 13:00 7,9 C 5,0 C 82 % 1015,3 hPa 0,0 l/m 1,0 km/h (0 Bft) W 259 2 min 0,153 mm 0,7 UV-I 347 W/m 5,0 C 7,9 C 3,2 km/h (1 Bft) 96,00 %
23.11.2017 13:02 8,2 C 5,0 C 84 % 1015,3 hPa 0,0 l/m 0,0 km/h (0 Bft) W 259 2 min 0,000 mm 0,7 UV-I 358 W/m 5,7 C 8,2 C 1,6 km/h (1 Bft) 97,37 %
23.11.2017 13:04 8,3 C 5,0 C 81 % 1015,2 hPa 0,0 l/m 0,0 km/h (0 Bft) W 259 2 min 0,000 mm 0,7 UV-I 349 W/m 5,2 C 8,3 C 1,6 km/h (1 Bft) 95,74 %
23.11.2017 13:06 8,4 C 5,0 C 80 % 1015,2 hPa 0,0 l/m 1,5 km/h (1 Bft) W 259 2 min 0,000 mm 0,7 UV-I 331 W/m 5,2 C 8,4 C 3,2 km/h (1 Bft) 98,11 %
23.11.2017 13:08 8,6 C 5,0 C 81 % 1015,1 hPa 0,0 l/m 0,7 km/h (0 Bft) W 259 2 min 0,000 mm 0,7 UV-I 324 W/m 5,5 C 8,6 C 1,6 km/h (1 Bft) 97,37 %
23.11.2017 13:10 8,6 C 5,0 C 79 % 1015,1 hPa 0,0 l/m 0,6 km/h (0 Bft) W 259 2 min 0,000 mm 0,7 UV-I 304 W/m 5,2 C 8,6 C 1,6 km/h (1 Bft) 98,00 %
23.11.2017 13:13 8,7 C 5,0 C 78 % 1015,2 hPa 0,0 l/m 1,1 km/h (1 Bft) W 259 3 min 0,000 mm 0,7 UV-I 330 W/m 5,1 C 8,7 C 3,2 km/h (1 Bft) 96,10 %
23.11.2017 13:14 8,7 C 5,0 C 79 % 1015,2 hPa 0,0 l/m 1,4 km/h (1 Bft) W 259 1 min 0,000 mm 0,7 UV-I 323 W/m 5,3 C 8,7 C 3,2 km/h (1 Bft) 100,00 %
23.11.2017 13:16 8,7 C 5,0 C 79 % 1015,2 hPa 0,0 l/m 0,3 km/h (0 Bft) W 259 2 min 0,000 mm 0,7 UV-I 325 W/m 5,3 C 8,7 C 1,6 km/h (1 Bft) 95,74 %
23.11.2017 13:18 8,7 C 5,0 C 80 % 1015,2 hPa 0,0 l/m 0,1 km/h (0 Bft) W 259 2 min 0,000 mm 0,7 UV-I 324 W/m 5,4 C 8,7 C 1,6 km/h (1 Bft) 96,23 %
23.11.2017 13:20 8,8 C 5,0 C 79 % 1015,2 hPa 0,0 l/m 0,1 km/h (0 Bft) W 259 2 min 0,000 mm 0,7 UV-I 325 W/m 5,4 C 8,8 C 1,6 km/h (1 Bft) 97,56 %
23.11.2017 13:22 8,9 C 5,0 C 80 % 1015,2 hPa 0,0 l/m 2,1 km/h (1 Bft) N-NO 16 2 min 0,000 mm 0,7 UV-I 317 W/m 5,6 C 8,9 C 4,8 km/h (1 Bft) 98,11 %
23.11.2017 13:24 9,0 C 5,0 C 80 % 1015,2 hPa 0,0 l/m 1,8 km/h (1 Bft) N-NO 16 2 min 0,000 mm 0,6 UV-I 314 W/m 5,7 C 9,0 C 4,8 km/h (1 Bft) 97,44 %
23.11.2017 13:26 9,1 C 5,0 C 82 % 1015,2 hPa 0,0 l/m 0,3 km/h (0 Bft) N-NO 17 2 min 0,000 mm 0,6 UV-I 297 W/m 6,2 C 9,1 C 1,6 km/h (1 Bft) 94,83 %
23.11.2017 13:28 9,1 C 5,0 C 82 % 1015,1 hPa 0,0 l/m 0,8 km/h (0 Bft) N-NO 16 2 min 0,000 mm 0,6 UV-I 314 W/m 6,2 C 9,1 C 1,6 km/h (1 Bft) 97,44 %
23.11.2017 13:30 9,1 C 5,0 C 81 % 1015,1 hPa 0,0 l/m 0,5 km/h (0 Bft) N-NO 16 2 min 0,000 mm 0,6 UV-I 322 W/m 6,0 C 9,1 C 1,6 km/h (1 Bft) 97,87 %
23.11.2017 13:32 9,1 C 5,0 C 81 % 1015,1 hPa 0,0 l/m 0,6 km/h (0 Bft) N-NO 16 2 min 0,000 mm 0,6 UV-I 290 W/m 6,0 C 9,1 C 3,2 km/h (1 Bft) 95,74 %
23.11.2017 13:34 9,1 C 5,0 C 82 % 1015,1 hPa 0,0 l/m 1,5 km/h (1 Bft) N-NO 16 2 min 0,000 mm 0,6 UV-I 302 W/m 6,2 C 9,1 C 3,2 km/h (1 Bft) 94,34 %
23.11.2017 13:36 9,1 C 5,0 C 81 % 1015,1 hPa 0,0 l/m 0,5 km/h (0 Bft) N-NO 28 2 min 0,000 mm 0,6 UV-I 308 W/m 6,0 C 9,1 C 3,2 km/h (1 Bft) 95,74 %
23.11.2017 13:38 9,1 C 5,0 C 82 % 1015,1 hPa 0,0 l/m 2,2 km/h (1 Bft) N-NO 20 2 min 0,000 mm 0,6 UV-I 279 W/m 6,2 C 9,1 C 4,8 km/h (1 Bft) 97,87 %
23.11.2017 13:40 9,1 C 5,0 C 83 % 1015,1 hPa 0,0 l/m 1,4 km/h (1 Bft) N-NO 23 2 min 0,000 mm 0,5 UV-I 222 W/m 6,4 C 9,1 C 3,2 km/h (1 Bft) 97,73 %
23.11.2017 13:42 9,1 C 5,0 C 82 % 1015,1 hPa 0,0 l/m 0,4 km/h (0 Bft) N-NO 23 2 min 0,000 mm 0,5 UV-I 199 W/m 6,2 C 9,1 C 1,6 km/h (1 Bft) 97,87 %
23.11.2017 13:44 9,1 C 5,0 C 82 % 1015,1 hPa 0,0 l/m 0,2 km/h (0 Bft) N-NO 23 2 min 0,000 mm 0,5 UV-I 182 W/m 6,2 C 9,1 C 1,6 km/h (1 Bft) 97,87 %
23.11.2017 13:46 9,0 C 5,0 C 79 % 1015,1 hPa 0,0 l/m 0,0 km/h (0 Bft) N-NO 23 2 min 0,000 mm 0,5 UV-I 179 W/m 5,6 C 9,0 C 1,6 km/h (1 Bft) 98,00 %
23.11.2017 13:48 9,1 C 5,0 C 78 % 1015,1 hPa 0,0 l/m 1,6 km/h (1 Bft) N-NO 23 2 min 0,000 mm 0,5 UV-I 185 W/m 5,5 C 9,1 C 3,2 km/h (1 Bft) 94,74 %
23.11.2017 13:50 9,1 C 5,0 C 78 % 1015,1 hPa 0,0 l/m 0,6 km/h (0 Bft) N-NO 23 2 min 0,000 mm 0,5 UV-I 193 W/m 5,5 C 9,1 C 3,2 km/h (1 Bft) 96,00 %
23.11.2017 13:52 8,8 C 5,0 C 80 % 1015,1 hPa 0,0 l/m 4,2 km/h (1 Bft) NO 48 2 min 0,000 mm 0,0 UV-I 201 W/m 5,5 C 8,8 C 6,4 km/h (2 Bft) 98,00 %
23.11.2017 13:54 8,8 C 5,0 C 82 % 1015,1 hPa 0,0 l/m 3,5 km/h (1 Bft) NO 48 2 min 0,000 mm 0,0 UV-I 206 W/m 5,9 C 8,8 C 4,8 km/h (1 Bft) 97,87 %
23.11.2017 13:56 8,8 C 5,0 C 81 % 1015,1 hPa 0,0 l/m 4,2 km/h (1 Bft) NO 48 2 min 0,000 mm 0,0 UV-I 197 W/m 5,7 C 8,8 C 6,4 km/h (2 Bft) 97,56 %
23.11.2017 13:58 8,8 C 5,0 C 82 % 1015,0 hPa 0,0 l/m 4,0 km/h (1 Bft) NO 48 2 min 0,000 mm 0,0 UV-I 187 W/m 5,9 C 8,8 C 6,4 km/h (2 Bft) 98,00 %
23.11.2017 14:00 8,8 C 5,0 C 81 % 1015,0 hPa 0,0 l/m 3,9 km/h (1 Bft) NO 48 2 min 0,000 mm 0,0 UV-I 171 W/m 5,7 C 8,8 C 4,8 km/h (1 Bft) 92,68 %
23.11.2017 14:02 8,7 C 5,0 C 82 % 1015,0 hPa 0,0 l/m 3,8 km/h (1 Bft) NO 48 2 min 0,127 mm 0,0 UV-I 190 W/m 5,8 C 8,7 C 4,8 km/h (1 Bft) 100,00 %
23.11.2017 14:04 8,7 C 5,0 C 82 % 1015,0 hPa 0,0 l/m 4,3 km/h (1 Bft) NO 48 2 min 0,000 mm 0,0 UV-I 202 W/m 5,8 C 8,7 C 4,8 km/h (1 Bft) 98,00 %
23.11.2017 14:06 8,7 C 5,0 C 83 % 1015,0 hPa 0,0 l/m 4,9 km/h (1 Bft) NO 48 2 min 0,000 mm 0,0 UV-I 206 W/m 6,0 C 8,7 C 6,4 km/h (2 Bft) 100,00 %
23.11.2017 14:08 8,7 C 5,0 C 83 % 1015,0 hPa 0,0 l/m 5,3 km/h (1 Bft) NO 48 2 min 0,000 mm 0,0 UV-I 220 W/m 6,0 C 8,7 C 6,4 km/h (2 Bft) 97,87 %
23.11.2017 14:10 8,6 C 5,0 C 82 % 1015,1 hPa 0,0 l/m 5,7 km/h (1 Bft) NO 42 2 min 0,000 mm 0,0 UV-I 230 W/m 5,7 C 8,6 C 8,0 km/h (2 Bft) 100,00 %
23.11.2017 14:12 8,6 C 5,0 C 82 % 1015,1 hPa 0,0 l/m 6,2 km/h (2 Bft) N-NO 32 2 min 0,000 mm 0,0 UV-I 219 W/m 5,7 C 8,6 C 8,0 km/h (2 Bft) 100,00 %
23.11.2017 14:14 8,6 C 5,0 C 82 % 1015,1 hPa 0,0 l/m 6,1 km/h (2 Bft) N-NO 28 2 min 0,000 mm 0,0 UV-I 216 W/m 5,7 C 8,6 C 8,0 km/h (2 Bft) 100,00 %
23.11.2017 14:16 8,5 C 5,0 C 82 % 1015,2 hPa 0,0 l/m 6,0 km/h (2 Bft) N-NO 28 2 min 0,000 mm 0,0 UV-I 233 W/m 5,6 C 8,5 C 8,0 km/h (2 Bft) 100,00 %
23.11.2017 14:18 8,6 C 5,0 C 81 % 1015,2 hPa 0,0 l/m 4,0 km/h (1 Bft) N-NO 28 2 min 0,000 mm 0,0 UV-I 229 W/m 5,5 C 8,6 C 6,4 km/h (2 Bft) 100,00 %
23.11.2017 14:20 8,6 C 5,0 C 80 % 1015,3 hPa 0,0 l/m 3,0 km/h (1 Bft) N-NO 28 2 min 0,000 mm 0,0 UV-I 232 W/m 5,3 C 8,6 C 6,4 km/h (2 Bft) 100,00 %
23.11.2017 14:22 8,7 C 5,0 C 80 % 1015,3 hPa 0,0 l/m 3,8 km/h (1 Bft) N-NO 28 2 min 0,000 mm 0,0 UV-I 235 W/m 5,4 C 8,7 C 4,8 km/h (1 Bft) 100,00 %
23.11.2017 14:24 8,7 C 5,0 C 80 % 1015,3 hPa 0,0 l/m 4,1 km/h (1 Bft) N-NO 28 2 min 0,000 mm 0,0 UV-I 225 W/m 5,4 C 8,7 C 4,8 km/h (1 Bft) 100,00 %
23.11.2017 14:26 8,6 C 5,0 C 80 % 1015,3 hPa 0,0 l/m 3,5 km/h (1 Bft) N-NO 28 2 min 0,000 mm 0,0 UV-I 209 W/m 5,3 C 8,6 C 4,8 km/h (1 Bft) 100,00 %
23.11.2017 14:28 8,6 C 5,0 C 80 % 1015,2 hPa 0,0 l/m 3,5 km/h (1 Bft) N-NO 28 2 min 0,000 mm 0,0 UV-I 155 W/m 5,3 C 8,6 C 4,8 km/h (1 Bft) 100,00 %
23.11.2017 14:30 8,6 C 5,0 C 80 % 1015,2 hPa 0,0 l/m 4,6 km/h (1 Bft) N-NO 29 2 min 0,000 mm 0,0 UV-I 157 W/m 5,3 C 8,6 C 6,4 km/h (2 Bft) 100,00 %
23.11.2017 14:32 8,6 C 5,0 C 79 % 1015,2 hPa 0,0 l/m 4,1 km/h (1 Bft) NO 36 2 min 0,000 mm 0,0 UV-I 153 W/m 5,2 C 8,6 C 4,8 km/h (1 Bft) 100,00 %
23.11.2017 14:34 8,6 C 5,0 C 79 % 1015,3 hPa 0,0 l/m 3,0 km/h (1 Bft) NO 36 2 min 0,000 mm 0,0 UV-I 147 W/m 5,2 C 8,6 C 6,4 km/h (2 Bft) 100,00 %
23.11.2017 14:36 8,6 C 5,0 C 79 % 1015,3 hPa 0,0 l/m 3,1 km/h (1 Bft) NO 36 2 min 0,000 mm 0,0 UV-I 166 W/m 5,2 C 8,6 C 4,8 km/h (1 Bft) 98,11 %
23.11.2017 14:38 8,5 C 5,0 C 80 % 1015,2 hPa 0,0 l/m 3,8 km/h (1 Bft) NO 36 2 min 0,000 mm 0,0 UV-I 178 W/m 5,3 C 8,5 C 6,4 km/h (2 Bft) 98,00 %
23.11.2017 14:40 8,4 C 5,0 C 82 % 1015,3 hPa 0,0 l/m 3,7 km/h (1 Bft) NO 36 2 min 0,000 mm 0,0 UV-I 173 W/m 5,5 C 8,4 C 4,8 km/h (1 Bft) 100,00 %
23.11.2017 14:42 8,3 C 5,0 C 83 % 1015,4 hPa 0,0 l/m 2,3 km/h (1 Bft) NO 36 2 min 0,000 mm 0,0 UV-I 169 W/m 5,6 C 8,3 C 4,8 km/h (1 Bft) 100,00 %
23.11.2017 14:44 8,3 C 5,0 C 82 % 1015,3 hPa 0,0 l/m 3,6 km/h (1 Bft) NO 36 2 min 0,000 mm 0,0 UV-I 178 W/m 5,4 C 8,3 C 4,8 km/h (1 Bft) 98,00 %
23.11.2017 14:46 8,3 C 5,0 C 83 % 1015,3 hPa 0,0 l/m 3,2 km/h (1 Bft) NO 36 2 min 0,000 mm 0,0 UV-I 174 W/m 5,6 C 8,3 C 4,8 km/h (1 Bft) 100,00 %
23.11.2017 14:48 8,3 C 5,0 C 84 % 1015,4 hPa 0,0 l/m 3,1 km/h (1 Bft) NO 36 2 min 0,000 mm 0,0 UV-I 171 W/m 5,8 C 8,3 C 4,8 km/h (1 Bft) 100,00 %
23.11.2017 14:50 8,2 C 5,0 C 84 % 1015,5 hPa 0,0 l/m 4,7 km/h (1 Bft) N-NO 24 2 min 0,000 mm 0,0 UV-I 160 W/m 5,7 C 8,2 C 8,0 km/h (2 Bft) 100,00 %
23.11.2017 14:52 8,2 C 5,0 C 83 % 1015,5 hPa 0,0 l/m 5,2 km/h (1 Bft) N-NO 18 2 min 0,000 mm 0,0 UV-I 135 W/m 5,5 C 8,2 C 8,0 km/h (2 Bft) 100,00 %
23.11.2017 14:54 8,1 C 5,0 C 83 % 1015,5 hPa 0,0 l/m 5,8 km/h (2 Bft) N-NO 18 2 min 0,000 mm 0,0 UV-I 120 W/m 5,4 C 8,1 C 8,0 km/h (2 Bft) 100,00 %
23.11.2017 14:56 8,1 C 5,0 C 83 % 1015,4 hPa 0,0 l/m 6,7 km/h (2 Bft) NO 37 2 min 0,000 mm 0,0 UV-I 117 W/m 5,4 C 7,9 C 8,0 km/h (2 Bft) 100,00 %
23.11.2017 14:58 8,1 C 5,0 C 83 % 1015,4 hPa 0,0 l/m 4,8 km/h (1 Bft) N-NO 32 2 min 0,000 mm 0,0 UV-I 138 W/m 5,4 C 8,1 C 6,4 km/h (2 Bft) 100,00 %
23.11.2017 15:00 8,0 C 5,0 C 83 % 1015,4 hPa 0,0 l/m 4,5 km/h (1 Bft) N-NO 32 2 min 0,000 mm 0,0 UV-I 148 W/m 5,3 C 8,0 C 6,4 km/h (2 Bft) 97,56 %
23.11.2017 15:02 8,0 C 5,0 C 84 % 1015,4 hPa 0,0 l/m 4,0 km/h (1 Bft) N-NO 32 2 min 0,101 mm 0,0 UV-I 148 W/m 5,5 C 8,0 C 4,8 km/h (1 Bft) 100,00 %
23.11.2017 15:04 8,1 C 5,0 C 83 % 1015,4 hPa 0,0 l/m 3,3 km/h (1 Bft) N-NO 32 2 min 0,000 mm 0,0 UV-I 112 W/m 5,4 C 8,1 C 4,8 km/h (1 Bft) 100,00 %
23.11.2017 15:06 8,0 C 5,0 C 84 % 1015,4 hPa 0,0 l/m 4,6 km/h (1 Bft) N-NO 32 2 min 0,000 mm 0,0 UV-I 124 W/m 5,5 C 8,0 C 6,4 km/h (2 Bft) 98,00 %
23.11.2017 15:08 7,9 C 5,0 C 84 % 1015,5 hPa 0,0 l/m 3,7 km/h (1 Bft) N-NO 32 2 min 0,000 mm 0,0 UV-I 115 W/m 5,4 C 7,9 C 6,4 km/h (2 Bft) 100,00 %
23.11.2017 15:10 7,9 C 5,0 C 84 % 1015,5 hPa 0,0 l/m 2,3 km/h (1 Bft) N-NO 32 2 min 0,000 mm 0,0 UV-I 112 W/m 5,4 C 7,9 C 3,2 km/h (1 Bft) 97,87 %
23.11.2017 15:12 7,9 C 5,0 C 84 % 1015,4 hPa 0,0 l/m 2,8 km/h (1 Bft) N-NO 32 2 min 0,000 mm 0,0 UV-I 101 W/m 5,4 C 7,9 C 4,8 km/h (1 Bft) 98,11 %
23.11.2017 15:14 7,9 C 5,0 C 85 % 1015,5 hPa 0,0 l/m 2,6 km/h (1 Bft) N-NO 32 2 min 0,000 mm 0,0 UV-I 106 W/m 5,5 C 7,9 C 4,8 km/h (1 Bft) 100,00 %
23.11.2017 15:16 7,9 C 5,0 C 85 % 1015,5 hPa 0,0 l/m 3,6 km/h (1 Bft) N-NO 32 2 min 0,000 mm 0,0 UV-I 94 W/m 5,5 C 7,9 C 6,4 km/h (2 Bft) 100,00 %
23.11.2017 15:18 7,8 C 5,0 C 85 % 1015,4 hPa 0,0 l/m 5,1 km/h (1 Bft) N-NO 33 2 min 0,000 mm 0,0 UV-I 101 W/m 5,4 C 7,8 C 6,4 km/h (2 Bft) 97,37 %
23.11.2017 15:20 7,7 C 5,0 C 86 % 1015,5 hPa 0,0 l/m 6,2 km/h (2 Bft) N-NO 22 2 min 0,000 mm 0,0 UV-I 94 W/m 5,5 C 7,7 C 8,0 km/h (2 Bft) 98,00 %
23.11.2017 15:22 7,7 C 5,0 C 86 % 1015,5 hPa 0,0 l/m 4,9 km/h (1 Bft) N-NO 30 2 min 0,000 mm 0,0 UV-I 80 W/m 5,5 C 7,7 C 6,4 km/h (2 Bft) 97,22 %
23.11.2017 15:24 7,6 C 5,0 C 87 % 1015,5 hPa 0,0 l/m 7,0 km/h (2 Bft) NO 40 2 min 0,000 mm 0,0 UV-I 70 W/m 5,6 C 7,1 C 9,7 km/h (2 Bft) 98,11 %
23.11.2017 15:26 7,5 C 5,0 C 87 % 1015,6 hPa 0,0 l/m 4,7 km/h (1 Bft) N-NO 31 2 min 0,000 mm 0,0 UV-I 64 W/m 5,5 C 7,5 C 6,4 km/h (2 Bft) 98,00 %
23.11.2017 15:28 7,4 C 5,0 C 88 % 1015,6 hPa 0,0 l/m 5,7 km/h (1 Bft) NO 53 2 min 0,000 mm 0,0 UV-I 72 W/m 5,5 C 7,4 C 8,0 km/h (2 Bft) 97,87 %
23.11.2017 15:30 7,4 C 5,0 C 88 % 1015,7 hPa 0,0 l/m 2,4 km/h (1 Bft) NO 49 2 min 0,000 mm 0,0 UV-I 72 W/m 5,5 C 7,4 C 4,8 km/h (1 Bft) 98,04 %
23.11.2017 15:32 7,3 C 5,0 C 88 % 1015,6 hPa 0,0 l/m 3,8 km/h (1 Bft) NO 49 2 min 0,000 mm 0,0 UV-I 63 W/m 5,4 C 7,3 C 4,8 km/h (1 Bft) 97,87 %
23.11.2017 15:34 7,2 C 5,0 C 89 % 1015,7 hPa 0,0 l/m 4,0 km/h (1 Bft) NO 49 2 min 0,000 mm 0,0 UV-I 54 W/m 5,5 C 7,2 C 4,8 km/h (1 Bft) 97,56 %
23.11.2017 15:36 7,1 C 5,0 C 89 % 1015,7 hPa 0,0 l/m 4,0 km/h (1 Bft) NO 49 2 min 0,000 mm 0,0 UV-I 49 W/m 5,4 C 7,1 C 4,8 km/h (1 Bft) 97,87 %
23.11.2017 15:38 7,0 C 5,0 C 89 % 1015,8 hPa 0,0 l/m 3,2 km/h (1 Bft) NO 49 2 min 0,000 mm 0,0 UV-I 48 W/m 5,3 C 7,0 C 4,8 km/h (1 Bft) 92,00 %
23.11.2017 15:40 6,9 C 5,0 C 90 % 1015,7 hPa 0,0 l/m 3,1 km/h (1 Bft) NO 49 0 min 0,000 mm 0,0 UV-I 41 W/m 5,4 C 6,9 C 4,8 km/h (1 Bft) 94,74 %
23.11.2017 15:42 6,8 C 5,0 C 90 % 1015,8 hPa 0,0 l/m 2,6 km/h (1 Bft) NO 49 2 min 0,000 mm 0,0 UV-I 49 W/m 5,3 C 6,8 C 4,8 km/h (1 Bft) 94,00 %
23.11.2017 15:44 6,8 C 5,0 C 90 % 1015,7 hPa 0,0 l/m 2,9 km/h (1 Bft) NO 49 2 min 0,000 mm 0,0 UV-I 46 W/m 5,3 C 6,8 C 3,2 km/h (1 Bft) 93,62 %
23.11.2017 15:46 6,8 C 5,0 C 91 % 1015,8 hPa 0,0 l/m 3,6 km/h (1 Bft) NO 49 2 min 0,000 mm 0,0 UV-I 42 W/m 5,4 C 6,8 C 4,8 km/h (1 Bft) 96,43 %
23.11.2017 15:48 6,8 C 5,0 C 90 % 1015,9 hPa 0,0 l/m 3,3 km/h (1 Bft) NO 49 2 min 0,000 mm 0,0 UV-I 42 W/m 5,3 C 6,8 C 4,8 km/h (1 Bft) 93,18 %
23.11.2017 15:50 6,7 C 5,0 C 90 % 1015,9 hPa 0,0 l/m 3,4 km/h (1 Bft) NO 49 2 min 0,000 mm 0,0 UV-I 39 W/m 5,2 C 6,7 C 4,8 km/h (1 Bft) 95,74 %
23.11.2017 15:52 6,6 C 5,0 C 91 % 1015,9 hPa 0,0 l/m 3,0 km/h (1 Bft) NO 49 2 min 0,000 mm 0,0 UV-I 37 W/m 5,2 C 6,6 C 4,8 km/h (1 Bft) 94,00 %
23.11.2017 15:54 6,4 C 5,0 C 91 % 1015,9 hPa 0,0 l/m 2,3 km/h (1 Bft) NO 49 2 min 0,000 mm 0,0 UV-I 35 W/m 5,0 C 6,4 C 3,2 km/h (1 Bft) 95,74 %
23.11.2017 15:56 6,4 C 5,0 C 91 % 1015,9 hPa 0,0 l/m 3,0 km/h (1 Bft) NO 49 2 min 0,000 mm 0,0 UV-I 27 W/m 5,0 C 6,4 C 4,8 km/h (1 Bft) 93,62 %
23.11.2017 15:58 6,5 C 5,0 C 92 % 1015,8 hPa 0,0 l/m 4,2 km/h (1 Bft) NO 49 2 min 0,000 mm 0,0 UV-I 25 W/m 5,3 C 6,5 C 6,4 km/h (2 Bft) 95,45 %
23.11.2017 16:00 6,5 C 5,0 C 91 % 1015,8 hPa 0,0 l/m 3,7 km/h (1 Bft) NO 49 2 min 0,000 mm 0,0 UV-I 21 W/m 5,1 C 6,5 C 4,8 km/h (1 Bft) 91,49 %
23.11.2017 16:02 6,3 C 5,0 C 91 % 1015,8 hPa 0,0 l/m 3,5 km/h (1 Bft) NO 49 2 min 0,026 mm 0,0 UV-I 21 W/m 4,9 C 6,3 C 4,8 km/h (1 Bft) 94,00 %
23.11.2017 16:04 6,2 C 5,0 C 91 % 1015,9 hPa 0,2 l/m 2,9 km/h (1 Bft) NO 49 2 min 0,000 mm 0,0 UV-I 19 W/m 4,8 C 6,2 C 4,8 km/h (1 Bft) 94,87 %
23.11.2017 16:06 6,1 C 5,0 C 91 % 1015,9 hPa 0,0 l/m 2,9 km/h (1 Bft) NO 49 0 min 0,000 mm 0,0 UV-I 18 W/m 4,7 C 6,1 C 4,8 km/h (1 Bft) 96,00 %
23.11.2017 16:08 6,1 C 5,0 C 91 % 1015,9 hPa 0,0 l/m 1,9 km/h (1 Bft) NO 49 0 min 0,000 mm 0,0 UV-I 16 W/m 4,7 C 6,1 C 3,2 km/h (1 Bft) 93,62 %
23.11.2017 16:10 6,1 C 5,0 C 91 % 1015,9 hPa 0,0 l/m 1,6 km/h (1 Bft) NO 49 0 min 0,000 mm 0,0 UV-I 15 W/m 4,7 C 6,1 C 3,2 km/h (1 Bft) 97,37 %
23.11.2017 16:12 6,1 C 5,0 C 92 % 1015,9 hPa 0,0 l/m 1,6 km/h (1 Bft) NO 49 0 min 0,000 mm 0,0 UV-I 13 W/m 4,9 C 6,1 C 3,2 km/h (1 Bft) 94,34 %
23.11.2017 16:14 6,2 C 5,0 C 92 % 1016,0 hPa 0,0 l/m 1,8 km/h (1 Bft) NO 49 0 min 0,000 mm 0,0 UV-I 11 W/m 5,0 C 6,2 C 3,2 km/h (1 Bft) 96,23 %
23.11.2017 16:16 6,2 C 5,0 C 91 % 1016,0 hPa 0,0 l/m 2,3 km/h (1 Bft) NO 49 0 min 0,000 mm 0,0 UV-I 9 W/m 4,8 C 6,2 C 3,2 km/h (1 Bft) 94,74 %
23.11.2017 16:18 6,2 C 5,0 C 91 % 1016,1 hPa 0,0 l/m 2,5 km/h (1 Bft) NO 49 0 min 0,000 mm 0,0 UV-I 8 W/m 4,8 C 6,2 C 3,2 km/h (1 Bft) 95,35 %
23.11.2017 16:20 6,1 C 5,0 C 91 % 1016,1 hPa 0,0 l/m 3,5 km/h (1 Bft) NO 49 0 min 0,000 mm 0,0 UV-I 7 W/m 4,7 C 6,1 C 6,4 km/h (2 Bft) 96,00 %
23.11.2017 16:22 6,1 C 5,0 C 91 % 1016,1 hPa 0,0 l/m 4,2 km/h (1 Bft) NO 49 0 min 0,000 mm 0,0 UV-I 6 W/m 4,7 C 6,1 C 6,4 km/h (2 Bft) 94,00 %
23.11.2017 16:24 5,9 C 5,0 C 91 % 1016,1 hPa 0,0 l/m 3,4 km/h (1 Bft) NO 49 0 min 0,000 mm 0,0 UV-I 5 W/m 4,5 C 5,9 C 4,8 km/h (1 Bft) 92,45 %
23.11.2017 16:26 5,7 C 5,0 C 91 % 1016,1 hPa 0,0 l/m 2,7 km/h (1 Bft) NO 49 0 min 0,000 mm 0,0 UV-I 5 W/m 4,3 C 5,7 C 4,8 km/h (1 Bft) 100,00 %
23.11.2017 16:28 5,6 C 5,0 C 92 % 1016,2 hPa 0,0 l/m 0,8 km/h (0 Bft) NO 49 0 min 0,000 mm 0,0 UV-I 5 W/m 4,4 C 5,6 C 3,2 km/h (1 Bft) 93,88 %
23.11.2017 16:30 5,3 C 5,0 C 91 % 1016,2 hPa 0,0 l/m 2,3 km/h (1 Bft) NO 49 0 min 0,000 mm 0,0 UV-I 5 W/m 4,0 C 5,3 C 3,2 km/h (1 Bft) 97,56 %
23.11.2017 16:32 5,2 C 5,0 C 93 % 1016,2 hPa 0,0 l/m 3,7 km/h (1 Bft) NO 49 0 min 0,000 mm 0,0 UV-I 1 W/m 4,2 C 5,2 C 4,8 km/h (1 Bft) 98,00 %
23.11.2017 16:34 5,3 C 5,0 C 93 % 1016,2 hPa 0,0 l/m 3,2 km/h (1 Bft) NO 49 0 min 0,000 mm 0,0 UV-I 0 W/m 4,3 C 5,3 C 4,8 km/h (1 Bft) 96,23 %
23.11.2017 16:36 5,3 C 5,0 C 93 % 1016,1 hPa 0,0 l/m 3,2 km/h (1 Bft) NO 49 0 min 0,000 mm 0,0 UV-I 0 W/m 4,3 C 5,3 C 4,8 km/h (1 Bft) 100,00 %
23.11.2017 16:38 5,2 C 5,0 C 93 % 1016,2 hPa 0,0 l/m 1,9 km/h (1 Bft) NO 49 0 min 0,000 mm 0,0 UV-I 0 W/m 4,2 C 5,2 C 4,8 km/h (1 Bft) 100,00 %
23.11.2017 16:40 5,1 C 5,0 C 93 % 1016,2 hPa 0,0 l/m 2,4 km/h (1 Bft) NO 49 0 min 0,000 mm 0,0 UV-I 0 W/m 4,1 C 5,1 C 3,2 km/h (1 Bft) 100,00 %
23.11.2017 16:42 4,8 C 5,0 C 93 % 1016,2 hPa 0,0 l/m 4,5 km/h (1 Bft) NO 49 0 min 0,000 mm 0,0 UV-I 0 W/m 3,8 C 4,8 C 6,4 km/h (2 Bft) 100,00 %
23.11.2017 16:44 4,6 C 5,0 C 93 % 1016,1 hPa 0,0 l/m 4,2 km/h (1 Bft) NO 49 0 min 0,000 mm 0,0 UV-I 0 W/m 3,6 C 4,6 C 6,4 km/h (2 Bft) 100,00 %
23.11.2017 16:46 4,4 C 5,0 C 94 % 1016,1 hPa 0,0 l/m 4,2 km/h (1 Bft) NO 49 0 min 0,000 mm 0,0 UV-I 0 W/m 3,5 C 4,4 C 8,0 km/h (2 Bft) 100,00 %
23.11.2017 16:48 4,7 C 5,0 C 95 % 1016,2 hPa 0,0 l/m 4,3 km/h (1 Bft) NO 49 0 min 0,000 mm 0,0 UV-I 0 W/m 4,0 C 4,7 C 6,4 km/h (2 Bft) 100,00 %
23.11.2017 16:50 4,9 C 5,0 C 95 % 1016,2 hPa 0,0 l/m 4,4 km/h (1 Bft) NO 49 0 min 0,000 mm 0,0 UV-I 0 W/m 4,2 C 4,9 C 6,4 km/h (2 Bft) 97,87 %
23.11.2017 16:52 4,9 C 5,0 C 95 % 1016,2 hPa 0,0 l/m 4,4 km/h (1 Bft) NO 49 0 min 0,000 mm 0,0 UV-I 0 W/m 4,2 C 4,9 C 6,4 km/h (2 Bft) 100,00 %
23.11.2017 16:54 4,9 C 5,0 C 95 % 1016,2 hPa 0,0 l/m 4,2 km/h (1 Bft) NO 49 0 min 0,000 mm 0,0 UV-I 0 W/m 4,2 C 4,9 C 6,4 km/h (2 Bft) 100,00 %
23.11.2017 16:56 4,8 C 5,0 C 94 % 1016,2 hPa 0,0 l/m 6,1 km/h (2 Bft) NO 49 0 min 0,000 mm 0,0 UV-I 0 W/m 3,9 C 4,8 C 8,0 km/h (2 Bft) 100,00 %
23.11.2017 16:58 4,6 C 5,0 C 94 % 1016,2 hPa 0,0 l/m 3,2 km/h (1 Bft) NO 49 0 min 0,000 mm 0,0 UV-I 0 W/m 3,7 C 4,6 C 6,4 km/h (2 Bft) 100,00 %
23.11.2017 17:00 4,3 C 5,0 C 94 % 1016,2 hPa 0,0 l/m 0,8 km/h (0 Bft) NO 49 0 min 0,000 mm 0,0 UV-I 0 W/m 3,4 C 4,3 C 1,6 km/h (1 Bft) 100,00 %
23.11.2017 17:02 4,2 C 5,0 C 94 % 1016,2 hPa 0,0 l/m 0,0 km/h (0 Bft) NO 49 0 min 0,000 mm 0,0 UV-I 0 W/m 3,3 C 4,2 C 0,0 km/h (0 Bft) 97,87 %
23.11.2017 17:04 4,1 C 5,0 C 95 % 1016,2 hPa 0,0 l/m 0,0 km/h (0 Bft) NO 49 0 min 0,000 mm 0,0 UV-I 0 W/m 3,4 C 4,1 C 0,0 km/h (0 Bft) 100,00 %
23.11.2017 17:06 4,1 C 5,0 C 95 % 1016,3 hPa 0,0 l/m 0,0 km/h (0 Bft) NO 49 0 min 0,000 mm 0,0 UV-I 0 W/m 3,4 C 4,1 C 0,0 km/h (0 Bft) 100,00 %
23.11.2017 17:08 4,0 C 5,0 C 95 % 1016,2 hPa 0,0 l/m 0,0 km/h (0 Bft) NO 49 0 min 0,000 mm 0,0 UV-I 0 W/m 3,3 C 4,0 C 0,0 km/h (0 Bft) 100,00 %
23.11.2017 17:10 4,0 C 5,0 C 95 % 1016,3 hPa 0,0 l/m 0,0 km/h (0 Bft) NO 49 0 min 0,000 mm 0,0 UV-I 0 W/m 3,3 C 4,0 C 0,0 km/h (0 Bft) 100,00 %
23.11.2017 17:12 3,9 C 5,0 C 95 % 1016,3 hPa 0,0 l/m 0,0 km/h (0 Bft) NO 49 0 min 0,000 mm 0,0 UV-I 0 W/m 3,2 C 3,9 C 0,0 km/h (0 Bft) 100,00 %
23.11.2017 17:14 3,8 C 5,0 C 95 % 1016,3 hPa 0,0 l/m 0,0 km/h (0 Bft) NO 49 0 min 0,000 mm 0,0 UV-I 0 W/m 3,1 C 3,8 C 0,0 km/h (0 Bft) 96,00 %
23.11.2017 17:16 3,8 C 5,0 C 95 % 1016,3 hPa 0,0 l/m 0,0 km/h (0 Bft) NO 49 0 min 0,000 mm 0,0 UV-I 0 W/m 3,1 C 3,8 C 0,0 km/h (0 Bft) 100,00 %
23.11.2017 17:18 3,8 C 5,0 C 96 % 1016,4 hPa 0,0 l/m 0,0 km/h (0 Bft) NO 49 0 min 0,000 mm 0,0 UV-I 0 W/m 3,2 C 3,8 C 0,0 km/h (0 Bft) 100,00 %
23.11.2017 17:20 3,8 C 5,0 C 95 % 1016,3 hPa 0,0 l/m 0,0 km/h (0 Bft) NO 49 0 min 0,000 mm 0,0 UV-I 0 W/m 3,1 C 3,8 C 0,0 km/h (0 Bft) 97,87 %
23.11.2017 17:22 3,8 C 5,0 C 96 % 1016,4 hPa 0,0 l/m 0,0 km/h (0 Bft) NO 49 0 min 0,000 mm 0,0 UV-I 0 W/m 3,2 C 3,8 C 0,0 km/h (0 Bft) 100,00 %
23.11.2017 17:24 3,8 C 5,0 C 95 % 1016,4 hPa 0,0 l/m 0,0 km/h (0 Bft) NO 49 0 min 0,000 mm 0,0 UV-I 0 W/m 3,1 C 3,8 C 0,0 km/h (0 Bft) 100,00 %
23.11.2017 17:26 3,6 C 5,0 C 95 % 1016,3 hPa 0,0 l/m 0,0 km/h (0 Bft) NO 49 0 min 0,000 mm 0,0 UV-I 0 W/m 2,9 C 3,6 C 0,0 km/h (0 Bft) 100,00 %
23.11.2017 17:28 3,2 C 5,0 C 95 % 1016,3 hPa 0,0 l/m 0,0 km/h (0 Bft) NO 49 0 min 0,000 mm 0,0 UV-I 0 W/m 2,5 C 3,2 C 0,0 km/h (0 Bft) 100,00 %
23.11.2017 17:30 3,1 C 5,0 C 95 % 1016,4 hPa 0,0 l/m 0,0 km/h (0 Bft) NO 49 0 min 0,000 mm 0,0 UV-I 0 W/m 2,4 C 3,1 C 1,6 km/h (1 Bft) 100,00 %
23.11.2017 17:32 3,1 C 5,0 C 95 % 1016,4 hPa 0,0 l/m 1,6 km/h (1 Bft) NO 49 0 min 0,000 mm 0,0 UV-I 0 W/m 2,4 C 3,1 C 3,2 km/h (1 Bft) 97,92 %
23.11.2017 17:34 3,2 C 5,0 C 96 % 1016,4 hPa 0,0 l/m 1,5 km/h (1 Bft) NO 49 0 min 0,000 mm 0,0 UV-I 0 W/m 2,6 C 3,2 C 3,2 km/h (1 Bft) 96,00 %
23.11.2017 17:36 3,2 C 5,0 C 96 % 1016,4 hPa 0,0 l/m 3,0 km/h (1 Bft) NO 49 0 min 0,000 mm 0,0 UV-I 0 W/m 2,6 C 3,2 C 4,8 km/h (1 Bft) 97,37 %
23.11.2017 17:38 3,2 C 5,0 C 96 % 1016,5 hPa 0,0 l/m 1,6 km/h (1 Bft) NO 49 0 min 0,000 mm 0,0 UV-I 0 W/m 2,6 C 3,2 C 3,2 km/h (1 Bft) 100,00 %
23.11.2017 17:40 3,1 C 5,0 C 96 % 1016,5 hPa 0,0 l/m 0,2 km/h (0 Bft) NO 49 0 min 0,000 mm 0,0 UV-I 0 W/m 2,5 C 3,1 C 1,6 km/h (1 Bft) 100,00 %
23.11.2017 17:42 2,8 C 5,0 C 96 % 1016,4 hPa 0,0 l/m 0,8 km/h (0 Bft) NO 49 0 min 0,000 mm 0,0 UV-I 0 W/m 2,2 C 2,8 C 3,2 km/h (1 Bft) 100,00 %
23.11.2017 17:44 3,0 C 5,0 C 96 % 1016,4 hPa 0,0 l/m 2,2 km/h (1 Bft) NO 49 0 min 0,000 mm 0,0 UV-I 0 W/m 2,4 C 3,0 C 3,2 km/h (1 Bft) 98,00 %
23.11.2017 17:46 3,3 C 5,0 C 97 % 1016,4 hPa 0,0 l/m 2,5 km/h (1 Bft) NO 49 0 min 0,000 mm 0,0 UV-I 0 W/m 2,9 C 3,3 C 4,8 km/h (1 Bft) 100,00 %
23.11.2017 17:48 3,1 C 5,0 C 96 % 1016,4 hPa 0,0 l/m 1,1 km/h (1 Bft) NO 49 0 min 0,000 mm 0,0 UV-I 0 W/m 2,5 C 3,1 C 3,2 km/h (1 Bft) 100,00 %
23.11.2017 17:50 3,1 C 5,0 C 96 % 1016,4 hPa 0,0 l/m 0,0 km/h (0 Bft) NO 49 0 min 0,000 mm 0,0 UV-I 0 W/m 2,5 C 3,1 C 0,0 km/h (0 Bft) 100,00 %
23.11.2017 17:52 3,3 C 5,0 C 97 % 1016,5 hPa 0,0 l/m 0,0 km/h (0 Bft) NO 49 0 min 0,000 mm 0,0 UV-I 0 W/m 2,9 C 3,3 C 0,0 km/h (0 Bft) 100,00 %
23.11.2017 17:54 3,3 C 5,0 C 97 % 1016,5 hPa 0,0 l/m 0,9 km/h (0 Bft) NO 49 0 min 0,000 mm 0,0 UV-I 0 W/m 2,9 C 3,3 C 4,8 km/h (1 Bft) 97,87 %
23.11.2017 17:56 3,5 C 5,0 C 97 % 1016,4 hPa 0,0 l/m 4,5 km/h (1 Bft) NO 49 0 min 0,000 mm 0,0 UV-I 0 W/m 3,1 C 3,5 C 6,4 km/h (2 Bft) 98,00 %
23.11.2017 17:58 3,6 C 5,0 C 97 % 1016,4 hPa 0,0 l/m 3,7 km/h (1 Bft) NO 55 0 min 0,000 mm 0,0 UV-I 0 W/m 3,2 C 3,6 C 6,4 km/h (2 Bft) 100,00 %
23.11.2017 18:00 3,6 C 5,0 C 97 % 1016,4 hPa 0,0 l/m 3,3 km/h (1 Bft) NO 55 0 min 0,000 mm 0,0 UV-I 0 W/m 3,2 C 3,6 C 4,8 km/h (1 Bft) 97,56 %
23.11.2017 18:02 3,6 C 5,0 C 97 % 1016,4 hPa 0,0 l/m 2,5 km/h (1 Bft) NO 55 0 min 0,000 mm 0,0 UV-I 0 W/m 3,2 C 3,6 C 4,8 km/h (1 Bft) 100,00 %
23.11.2017 18:04 3,6 C 5,0 C 97 % 1016,4 hPa 0,0 l/m 1,3 km/h (1 Bft) NO 55 0 min 0,000 mm 0,0 UV-I 0 W/m 3,2 C 3,6 C 3,2 km/h (1 Bft) 95,74 %
23.11.2017 18:06 3,5 C 5,0 C 96 % 1016,5 hPa 0,0 l/m 0,2 km/h (0 Bft) NO 55 0 min 0,000 mm 0,0 UV-I 0 W/m 2,9 C 3,5 C 1,6 km/h (1 Bft) 100,00 %
23.11.2017 18:08 3,3 C 5,0 C 96 % 1016,6 hPa 0,0 l/m 2,4 km/h (1 Bft) NO 55 0 min 0,000 mm 0,0 UV-I 0 W/m 2,7 C 3,3 C 3,2 km/h (1 Bft) 98,00 %
23.11.2017 18:10 2,9 C 5,0 C 96 % 1016,6 hPa 0,0 l/m 1,9 km/h (1 Bft) NO 55 0 min 0,000 mm 0,0 UV-I 0 W/m 2,3 C 2,9 C 3,2 km/h (1 Bft) 100,00 %
23.11.2017 18:12 2,8 C 5,0 C 96 % 1016,6 hPa 0,0 l/m 2,4 km/h (1 Bft) NO 55 0 min 0,000 mm 0,0 UV-I 0 W/m 2,2 C 2,8 C 3,2 km/h (1 Bft) 100,00 %
23.11.2017 18:14 2,8 C 5,0 C 96 % 1016,6 hPa 0,0 l/m 1,4 km/h (1 Bft) NO 55 0 min 0,000 mm 0,0 UV-I 0 W/m 2,2 C 2,8 C 3,2 km/h (1 Bft) 94,34 %
23.11.2017 18:16 2,8 C 5,0 C 96 % 1016,5 hPa 0,0 l/m 0,6 km/h (0 Bft) NO 55 0 min 0,000 mm 0,0 UV-I 0 W/m 2,2 C 2,8 C 3,2 km/h (1 Bft) 92,68 %
23.11.2017 18:18 2,6 C 5,0 C 96 % 1016,6 hPa 0,0 l/m 0,0 km/h (0 Bft) NO 55 0 min 0,000 mm 0,0 UV-I 0 W/m 2,0 C 2,6 C 0,0 km/h (0 Bft) 98,00 %
23.11.2017 18:20 2,3 C 5,0 C 96 % 1016,6 hPa 0,0 l/m 0,0 km/h (0 Bft) NO 55 0 min 0,000 mm 0,0 UV-I 0 W/m 1,7 C 2,3 C 1,6 km/h (1 Bft) 96,00 %
23.11.2017 18:22 2,3 C 5,0 C 96 % 1016,6 hPa 0,0 l/m 0,0 km/h (0 Bft) NO 55 0 min 0,000 mm 0,0 UV-I 0 W/m 1,7 C 2,3 C 0,0 km/h (0 Bft) 97,37 %
23.11.2017 18:24 2,4 C 5,0 C 96 % 1016,7 hPa 0,0 l/m 1,9 km/h (1 Bft) NO 55 0 min 0,000 mm 0,0 UV-I 0 W/m 1,8 C 2,4 C 3,2 km/h (1 Bft) 96,23 %
23.11.2017 18:26 2,7 C 5,0 C 97 % 1016,7 hPa 0,0 l/m 2,4 km/h (1 Bft) NO 55 0 min 0,000 mm 0,0 UV-I 0 W/m 2,3 C 2,7 C 3,2 km/h (1 Bft) 96,00 %
23.11.2017 18:28 2,9 C 5,0 C 97 % 1016,7 hPa 0,0 l/m 1,6 km/h (1 Bft) NO 55 0 min 0,000 mm 0,0 UV-I 0 W/m 2,5 C 2,9 C 3,2 km/h (1 Bft) 97,56 %
23.11.2017 18:30 3,1 C 5,0 C 97 % 1016,7 hPa 0,0 l/m 1,5 km/h (1 Bft) NO 55 0 min 0,000 mm 0,0 UV-I 0 W/m 2,7 C 3,1 C 1,6 km/h (1 Bft) 98,00 %
23.11.2017 18:32 3,2 C 5,0 C 97 % 1016,8 hPa 0,0 l/m 1,6 km/h (1 Bft) NO 55 0 min 0,000 mm 0,0 UV-I 0 W/m 2,8 C 3,2 C 3,2 km/h (1 Bft) 95,74 %
23.11.2017 18:34 2,9 C 5,0 C 97 % 1016,7 hPa 0,0 l/m 1,6 km/h (1 Bft) NO 55 0 min 0,000 mm 0,0 UV-I 0 W/m 2,5 C 2,9 C 3,2 km/h (1 Bft) 97,56 %
23.11.2017 18:36 2,7 C 5,0 C 96 % 1016,6 hPa 0,0 l/m 0,7 km/h (0 Bft) NO 55 0 min 0,000 mm 0,0 UV-I 0 W/m 2,1 C 2,7 C 3,2 km/h (1 Bft) 96,00 %
23.11.2017 18:38 2,6 C 5,0 C 96 % 1016,6 hPa 0,0 l/m 1,2 km/h (1 Bft) NO 55 0 min 0,000 mm 0,0 UV-I 0 W/m 2,0 C 2,6 C 3,2 km/h (1 Bft) 95,74 %
23.11.2017 18:40 2,8 C 5,0 C 97 % 1016,6 hPa 0,0 l/m 1,6 km/h (1 Bft) NO 55 0 min 0,000 mm 0,0 UV-I 0 W/m 2,4 C 2,8 C 3,2 km/h (1 Bft) 97,62 %
23.11.2017 18:42 2,9 C 5,0 C 97 % 1016,6 hPa 0,0 l/m 0,6 km/h (0 Bft) NO 55 0 min 0,000 mm 0,0 UV-I 0 W/m 2,5 C 2,9 C 3,2 km/h (1 Bft) 98,00 %
23.11.2017 18:44 3,0 C 5,0 C 97 % 1016,6 hPa 0,0 l/m 2,4 km/h (1 Bft) NO 55 0 min 0,000 mm 0,0 UV-I 0 W/m 2,6 C 3,0 C 3,2 km/h (1 Bft) 96,15 %
23.11.2017 18:46 2,9 C 5,0 C 97 % 1016,7 hPa 0,0 l/m 2,8 km/h (1 Bft) NO 55 0 min 0,000 mm 0,0 UV-I 0 W/m 2,5 C 2,9 C 4,8 km/h (1 Bft) 97,44 %
23.11.2017 18:48 2,9 C 5,0 C 97 % 1016,7 hPa 0,0 l/m 2,1 km/h (1 Bft) NO 55 0 min 0,000 mm 0,0 UV-I 0 W/m 2,5 C 2,9 C 4,8 km/h (1 Bft) 95,74 %
23.11.2017 18:50 2,9 C 5,0 C 97 % 1016,7 hPa 0,0 l/m 2,2 km/h (1 Bft) NO 55 0 min 0,000 mm 0,0 UV-I 0 W/m 2,5 C 2,9 C 3,2 km/h (1 Bft) 97,56 %
23.11.2017 18:52 2,8 C 5,0 C 97 % 1016,8 hPa 0,0 l/m 1,1 km/h (1 Bft) NO 55 0 min 0,000 mm 0,0 UV-I 0 W/m 2,4 C 2,8 C 4,8 km/h (1 Bft) 96,23 %
23.11.2017 18:54 2,7 C 5,0 C 97 % 1016,8 hPa 0,0 l/m 3,5 km/h (1 Bft) NO 54 0 min 0,000 mm 0,0 UV-I 0 W/m 2,3 C 2,7 C 6,4 km/h (2 Bft) 98,11 %
23.11.2017 18:56 2,6 C 5,0 C 97 % 1016,9 hPa 0,0 l/m 0,4 km/h (0 Bft) NO 54 0 min 0,000 mm 0,0 UV-I 0 W/m 2,2 C 2,6 C 4,8 km/h (1 Bft) 100,00 %
23.11.2017 18:58 2,4 C 5,0 C 97 % 1016,8 hPa 0,0 l/m 2,5 km/h (1 Bft) NO 54 0 min 0,000 mm 0,0 UV-I 0 W/m 2,0 C 2,4 C 4,8 km/h (1 Bft) 100,00 %
23.11.2017 19:00 2,4 C 5,0 C 97 % 1016,8 hPa 0,0 l/m 5,9 km/h (2 Bft) NO 46 0 min 0,000 mm 0,0 UV-I 0 W/m 2,0 C 2,4 C 8,0 km/h (2 Bft) 100,00 %
23.11.2017 19:02 2,6 C 5,0 C 97 % 1016,8 hPa 0,0 l/m 6,1 km/h (2 Bft) N-NO 33 0 min 0,000 mm 0,0 UV-I 0 W/m 2,2 C 2,6 C 9,7 km/h (2 Bft) 100,00 %
23.11.2017 19:04 2,6 C 5,0 C 97 % 1016,8 hPa 0,0 l/m 7,6 km/h (2 Bft) NO 42 0 min 0,000 mm 0,0 UV-I 0 W/m 2,2 C 1,5 C 9,7 km/h (2 Bft) 100,00 %
23.11.2017 19:06 2,5 C 5,0 C 97 % 1016,9 hPa 0,0 l/m 4,8 km/h (1 Bft) NO 41 0 min 0,000 mm 0,0 UV-I 0 W/m 2,1 C 2,5 C 6,4 km/h (2 Bft) 100,00 %
23.11.2017 19:08 2,4 C 5,0 C 97 % 1016,8 hPa 0,0 l/m 5,6 km/h (1 Bft) NO 41 0 min 0,000 mm 0,0 UV-I 0 W/m 2,0 C 2,4 C 8,0 km/h (2 Bft) 100,00 %
23.11.2017 19:10 2,4 C 5,0 C 97 % 1016,8 hPa 0,0 l/m 4,2 km/h (1 Bft) NO 41 0 min 0,000 mm 0,0 UV-I 0 W/m 2,0 C 2,4 C 6,4 km/h (2 Bft) 100,00 %
23.11.2017 19:12 2,3 C 5,0 C 97 % 1016,7 hPa 0,0 l/m 5,6 km/h (1 Bft) NO 41 0 min 0,000 mm 0,0 UV-I 0 W/m 1,9 C 2,3 C 6,4 km/h (2 Bft) 96,23 %
23.11.2017 19:14 2,2 C 5,0 C 97 % 1016,8 hPa 0,0 l/m 3,6 km/h (1 Bft) NO 41 0 min 0,000 mm 0,0 UV-I 0 W/m 1,8 C 2,2 C 6,4 km/h (2 Bft) 97,56 %
23.11.2017 19:16 2,2 C 5,0 C 97 % 1016,9 hPa 0,0 l/m 4,4 km/h (1 Bft) NO 41 0 min 0,000 mm 0,0 UV-I 0 W/m 1,8 C 2,2 C 4,8 km/h (1 Bft) 97,87 %
23.11.2017 19:18 2,1 C 5,0 C 97 % 1016,9 hPa 0,0 l/m 4,1 km/h (1 Bft) NO 41 0 min 0,000 mm 0,0 UV-I 0 W/m 1,7 C 2,1 C 4,8 km/h (1 Bft) 98,00 %
23.11.2017 19:20 2,1 C 5,0 C 97 % 1017,0 hPa 0,0 l/m 3,0 km/h (1 Bft) NO 41 0 min 0,000 mm 0,0 UV-I 0 W/m 1,7 C 2,1 C 4,8 km/h (1 Bft) 95,74 %
23.11.2017 19:22 2,1 C 5,0 C 97 % 1017,0 hPa 0,0 l/m 3,8 km/h (1 Bft) NO 41 0 min 0,000 mm 0,0 UV-I 0 W/m 1,7 C 2,1 C 4,8 km/h (1 Bft) 96,67 %
23.11.2017 19:24 1,9 C 5,0 C 97 % 1017,0 hPa 0,0 l/m 4,6 km/h (1 Bft) NO 41 0 min 0,000 mm 0,0 UV-I 0 W/m 1,5 C 1,9 C 6,4 km/h (2 Bft) 97,01 %
23.11.2017 19:26 1,9 C 5,0 C 97 % 1016,9 hPa 0,0 l/m 4,2 km/h (1 Bft) NO 41 0 min 0,000 mm 0,0 UV-I 0 W/m 1,5 C 1,9 C 6,4 km/h (2 Bft) 97,44 %
23.11.2017 19:28 1,8 C 5,0 C 97 % 1016,9 hPa 0,0 l/m 4,9 km/h (1 Bft) NO 41 0 min 0,000 mm 0,0 UV-I 0 W/m 1,4 C 1,8 C 6,4 km/h (2 Bft) 97,87 %
23.11.2017 19:30 1,8 C 5,0 C 97 % 1016,9 hPa 0,0 l/m 3,5 km/h (1 Bft) NO 41 0 min 0,000 mm 0,0 UV-I 0 W/m 1,4 C 1,8 C 4,8 km/h (1 Bft) 96,23 %
23.11.2017 19:32 1,7 C 5,0 C 97 % 1016,9 hPa 0,0 l/m 3,4 km/h (1 Bft) NO 41 0 min 0,000 mm 0,0 UV-I 0 W/m 1,3 C 1,7 C 4,8 km/h (1 Bft) 97,87 %
23.11.2017 19:34 1,7 C 5,0 C 97 % 1016,9 hPa 0,0 l/m 2,3 km/h (1 Bft) NO 41 0 min 0,000 mm 0,0 UV-I 0 W/m 1,3 C 1,7 C 3,2 km/h (1 Bft) 93,62 %
23.11.2017 19:36 1,7 C 5,0 C 97 % 1016,9 hPa 0,0 l/m 2,7 km/h (1 Bft) NO 41 0 min 0,000 mm 0,0 UV-I 0 W/m 1,3 C 1,7 C 4,8 km/h (1 Bft) 97,56 %
23.11.2017 19:38 1,6 C 5,0 C 97 % 1016,9 hPa 0,0 l/m 2,3 km/h (1 Bft) NO 41 0 min 0,000 mm 0,0 UV-I 0 W/m 1,2 C 1,6 C 4,8 km/h (1 Bft) 97,73 %
23.11.2017 19:40 1,5 C 5,0 C 97 % 1017,0 hPa 0,0 l/m 2,7 km/h (1 Bft) NO 41 0 min 0,000 mm 0,0 UV-I 0 W/m 1,1 C 1,5 C 3,2 km/h (1 Bft) 98,00 %
23.11.2017 19:42 1,4 C 5,0 C 97 % 1016,9 hPa 0,0 l/m 1,1 km/h (1 Bft) NO 41 0 min 0,000 mm 0,0 UV-I 0 W/m 1,0 C 1,4 C 1,6 km/h (1 Bft) 97,56 %
23.11.2017 19:44 1,3 C 5,0 C 97 % 1017,0 hPa 0,0 l/m 0,8 km/h (0 Bft) NO 41 0 min 0,000 mm 0,0 UV-I 0 W/m 0,9 C 1,3 C 3,2 km/h (1 Bft) 98,21 %
23.11.2017 19:46 1,2 C 5,0 C 97 % 1016,9 hPa 0,0 l/m 2,7 km/h (1 Bft) NO 41 0 min 0,000 mm 0,0 UV-I 0 W/m 0,8 C 1,2 C 4,8 km/h (1 Bft) 96,00 %
23.11.2017 19:48 1,1 C 5,0 C 97 % 1017,0 hPa 0,0 l/m 1,4 km/h (1 Bft) NO 41 0 min 0,000 mm 0,0 UV-I 0 W/m 0,7 C 1,1 C 3,2 km/h (1 Bft) 95,74 %
23.11.2017 19:50 1,2 C 5,0 C 97 % 1017,0 hPa 0,0 l/m 0,7 km/h (0 Bft) NO 41 0 min 0,000 mm 0,0 UV-I 0 W/m 0,8 C 1,2 C 1,6 km/h (1 Bft) 94,74 %
23.11.2017 19:52 1,3 C 5,0 C 97 % 1017,0 hPa 0,0 l/m 0,0 km/h (0 Bft) NO 41 0 min 0,000 mm 0,0 UV-I 0 W/m 0,9 C 1,3 C 0,0 km/h (0 Bft) 98,11 %
23.11.2017 19:54 1,3 C 5,0 C 97 % 1017,1 hPa 0,0 l/m 0,0 km/h (0 Bft) NO 41 0 min 0,000 mm 0,0 UV-I 0 W/m 0,9 C 1,3 C 0,0 km/h (0 Bft) 98,00 %
23.11.2017 19:56 1,4 C 5,0 C 97 % 1017,1 hPa 0,0 l/m 0,0 km/h (0 Bft) NO 41 0 min 0,000 mm 0,0 UV-I 0 W/m 1,0 C 1,4 C 0,0 km/h (0 Bft) 95,45 %
23.11.2017 19:58 1,4 C 5,0 C 97 % 1017,1 hPa 0,0 l/m 0,0 km/h (0 Bft) NO 41 0 min 0,000 mm 0,0 UV-I 0 W/m 1,0 C 1,4 C 0,0 km/h (0 Bft) 98,00 %
23.11.2017 20:00 1,4 C 5,0 C 97 % 1017,1 hPa 0,0 l/m 0,0 km/h (0 Bft) NO 41 0 min 0,000 mm 0,0 UV-I 0 W/m 1,0 C 1,4 C 0,0 km/h (0 Bft) 97,22 %
23.11.2017 20:03 1,3 C 5,0 C 97 % 1017,2 hPa 0,0 l/m 0,0 km/h (0 Bft) NO 41 0 min 0,000 mm 0,0 UV-I 0 W/m 0,9 C 1,3 C 1,6 km/h (1 Bft) 97,26 %
23.11.2017 20:04 1,3 C 5,0 C 97 % 1017,3 hPa 0,0 l/m 0,0 km/h (0 Bft) NO 41 0 min 0,000 mm 0,0 UV-I 0 W/m 0,9 C 1,3 C 0,0 km/h (0 Bft) 96,30 %
23.11.2017 20:06 1,2 C 5,0 C 97 % 1017,3 hPa 0,0 l/m 0,0 km/h (0 Bft) NO 41 0 min 0,000 mm 0,0 UV-I 0 W/m 0,8 C 1,2 C 0,0 km/h (0 Bft) 97,87 %
23.11.2017 20:08 1,1 C 5,0 C 97 % 1017,4 hPa 0,0 l/m 0,0 km/h (0 Bft) NO 41 0 min 0,000 mm 0,0 UV-I 0 W/m 0,7 C 1,1 C 0,0 km/h (0 Bft) 95,74 %
23.11.2017 20:10 0,9 C 5,0 C 97 % 1017,4 hPa 0,0 l/m 0,0 km/h (0 Bft) NO 41 0 min 0,000 mm 0,0 UV-I 0 W/m 0,5 C 0,9 C 0,0 km/h (0 Bft) 100,00 %
23.11.2017 20:12 0,9 C 5,0 C 97 % 1017,4 hPa 0,0 l/m 0,0 km/h (0 Bft) NO 41 0 min 0,000 mm 0,0 UV-I 0 W/m 0,5 C 0,9 C 0,0 km/h (0 Bft) 100,00 %
23.11.2017 20:14 0,8 C 5,0 C 97 % 1017,4 hPa 0,0 l/m 0,0 km/h (0 Bft) NO 41 0 min 0,000 mm 0,0 UV-I 0 W/m 0,4 C 0,8 C 0,0 km/h (0 Bft) 97,87 %
23.11.2017 20:16 0,7 C 5,0 C 97 % 1017,3 hPa 0,0 l/m 1,2 km/h (1 Bft) NO 41 0 min 0,000 mm 0,0 UV-I 0 W/m 0,3 C 0,7 C 3,2 km/h (1 Bft) 100,00 %
23.11.2017 20:18 0,6 C 5,0 C 97 % 1017,3 hPa 0,0 l/m 1,1 km/h (1 Bft) NO 41 0 min 0,000 mm 0,0 UV-I 0 W/m 0,2 C 0,6 C 3,2 km/h (1 Bft) 100,00 %
23.11.2017 20:20 0,8 C 5,0 C 97 % 1017,4 hPa 0,0 l/m 0,7 km/h (0 Bft) NO 41 0 min 0,000 mm 0,0 UV-I 0 W/m 0,4 C 0,8 C 1,6 km/h (1 Bft) 100,00 %
23.11.2017 20:22 0,9 C 5,0 C 97 % 1017,4 hPa 0,0 l/m 0,7 km/h (0 Bft) NO 41 0 min 0,000 mm 0,0 UV-I 0 W/m 0,5 C 0,9 C 1,6 km/h (1 Bft) 98,00 %
23.11.2017 20:24 1,2 C 5,0 C 97 % 1017,3 hPa 0,0 l/m 0,9 km/h (0 Bft) NO 41 0 min 0,000 mm 0,0 UV-I 0 W/m 0,8 C 1,2 C 3,2 km/h (1 Bft) 97,56 %
23.11.2017 20:26 1,6 C 5,0 C 98 % 1017,3 hPa 0,0 l/m 2,4 km/h (1 Bft) NO 41 0 min 0,000 mm 0,0 UV-I 0 W/m 1,3 C 1,6 C 3,2 km/h (1 Bft) 100,00 %
23.11.2017 20:28 1,6 C 5,0 C 98 % 1017,3 hPa 0,0 l/m 2,0 km/h (1 Bft) NO 41 0 min 0,000 mm 0,0 UV-I 0 W/m 1,3 C 1,6 C 3,2 km/h (1 Bft) 98,00 %
23.11.2017 20:30 1,5 C 5,0 C 98 % 1017,4 hPa 0,0 l/m 2,6 km/h (1 Bft) NO 41 0 min 0,000 mm 0,0 UV-I 0 W/m 1,2 C 1,5 C 3,2 km/h (1 Bft) 98,00 %
23.11.2017 20:32 1,5 C 5,0 C 98 % 1017,3 hPa 0,0 l/m 2,6 km/h (1 Bft) NO 41 0 min 0,000 mm 0,0 UV-I 0 W/m 1,2 C 1,5 C 3,2 km/h (1 Bft) 98,00 %
23.11.2017 20:34 1,3 C 5,0 C 98 % 1017,3 hPa 0,0 l/m 2,0 km/h (1 Bft) NO 41 0 min 0,000 mm 0,0 UV-I 0 W/m 1,0 C 1,3 C 3,2 km/h (1 Bft) 97,87 %
23.11.2017 20:36 1,1 C 5,0 C 98 % 1017,4 hPa 0,0 l/m 2,7 km/h (1 Bft) NO 41 0 min 0,000 mm 0,0 UV-I 0 W/m 0,8 C 1,1 C 3,2 km/h (1 Bft) 97,56 %
23.11.2017 20:38 0,9 C 5,0 C 98 % 1017,4 hPa 0,0 l/m 3,4 km/h (1 Bft) NO 41 0 min 0,000 mm 0,0 UV-I 0 W/m 0,6 C 0,9 C 4,8 km/h (1 Bft) 95,83 %
23.11.2017 20:40 1,2 C 5,0 C 97 % 1017,4 hPa 0,0 l/m 3,1 km/h (1 Bft) NO 41 0 min 0,000 mm 0,0 UV-I 0 W/m 0,8 C 1,2 C 4,8 km/h (1 Bft) 98,00 %
23.11.2017 20:42 1,5 C 5,0 C 98 % 1017,4 hPa 0,0 l/m 2,5 km/h (1 Bft) NO 41 0 min 0,000 mm 0,0 UV-I 0 W/m 1,2 C 1,5 C 4,8 km/h (1 Bft) 93,88 %
23.11.2017 20:44 1,4 C 5,0 C 98 % 1017,4 hPa 0,0 l/m 3,5 km/h (1 Bft) NO 41 0 min 0,000 mm 0,0 UV-I 0 W/m 1,1 C 1,4 C 4,8 km/h (1 Bft) 97,92 %
23.11.2017 20:46 1,1 C 5,0 C 98 % 1017,5 hPa 0,0 l/m 2,4 km/h (1 Bft) NO 41 0 min 0,000 mm 0,0 UV-I 0 W/m 0,8 C 1,1 C 4,8 km/h (1 Bft) 95,74 %
23.11.2017 20:48 1,2 C 5,0 C 98 % 1017,5 hPa 0,0 l/m 0,2 km/h (0 Bft) NO 41 0 min 0,000 mm 0,0 UV-I 0 W/m 0,9 C 1,2 C 1,6 km/h (1 Bft) 98,00 %
23.11.2017 20:50 1,1 C 5,0 C 98 % 1017,5 hPa 0,0 l/m 0,3 km/h (0 Bft) NO 41 0 min 0,000 mm 0,0 UV-I 0 W/m 0,8 C 1,1 C 3,2 km/h (1 Bft) 97,14 %
23.11.2017 20:52 0,8 C 5,0 C 97 % 1017,6 hPa 0,0 l/m 2,1 km/h (1 Bft) NO 41 0 min 0,000 mm 0,0 UV-I 0 W/m 0,4 C 0,8 C 3,2 km/h (1 Bft) 98,11 %
23.11.2017 20:55 0,6 C 5,0 C 97 % 1017,7 hPa 0,0 l/m 0,0 km/h (0 Bft) NO 41 0 min 0,000 mm 0,0 UV-I 0 W/m 0,2 C 0,6 C 0,0 km/h (0 Bft) 94,52 %
23.11.2017 20:56 0,6 C 5,0 C 97 % 1017,7 hPa 0,0 l/m 0,0 km/h (0 Bft) NO 41 0 min 0,000 mm 0,0 UV-I 0 W/m 0,2 C 0,6 C 0,0 km/h (0 Bft) 100,00 %
23.11.2017 21:00 0,4 C 5,0 C 97 % 1017,6 hPa 0,0 l/m 0,5 km/h (0 Bft) NO 41 0 min 0,000 mm 0,0 UV-I 0 W/m -0,0 C 0,4 C 3,2 km/h (1 Bft) 97,94 %
23.11.2017 21:01 0,4 C 5,0 C 97 % 1017,6 hPa 0,0 l/m 2,2 km/h (1 Bft) NO 41 0 min 0,000 mm 0,0 UV-I 0 W/m -0,0 C 0,4 C 3,2 km/h (1 Bft) 93,33 %
23.11.2017 21:04 0,4 C 5,0 C 97 % 1017,6 hPa 0,0 l/m 0,9 km/h (0 Bft) NO 41 0 min 0,000 mm 0,0 UV-I 0 W/m -0,0 C 0,4 C 1,6 km/h (1 Bft) 93,75 %
23.11.2017 21:05 0,6 C 5,0 C 97 % 1017,6 hPa 0,0 l/m 1,6 km/h (1 Bft) NO 45 0 min 0,000 mm 0,0 UV-I 0 W/m 0,2 C 0,6 C 3,2 km/h (1 Bft) 100,00 %
23.11.2017 21:10 0,7 C 5,0 C 98 % 1017,7 hPa 0,0 l/m 0,0 km/h (0 Bft) N 0 0 min 0,000 mm 0,0 UV-I 0 W/m 0,4 C 0,7 C 0,0 km/h (0 Bft) 100,00 %
23.11.2017 21:15 1,3 C 5,0 C 98 % 1017,7 hPa 0,0 l/m 1,6 km/h (1 Bft) NO 45 0 min 0,000 mm 0,0 UV-I 0 W/m 1,0 C 1,3 C 3,2 km/h (1 Bft) 96,49 %
23.11.2017 21:20 1,1 C 5,0 C 98 % 1017,8 hPa 0,0 l/m 3,2 km/h (1 Bft) NO 45 0 min 0,000 mm 0,0 UV-I 0 W/m 0,8 C 1,1 C 4,8 km/h (1 Bft) 95,61 %
23.11.2017 21:25 1,1 C 5,0 C 98 % 1017,8 hPa 0,0 l/m 1,6 km/h (1 Bft) NO 45 0 min 0,000 mm 0,0 UV-I 0 W/m 0,8 C 1,1 C 4,8 km/h (1 Bft) 98,25 %
23.11.2017 21:30 0,6 C 5,0 C 97 % 1017,7 hPa 0,0 l/m 1,6 km/h (1 Bft) NO 45 0 min 0,000 mm 0,0 UV-I 0 W/m 0,2 C 0,6 C 6,4 km/h (2 Bft) 98,25 %
23.11.2017 21:35 0,9 C 5,0 C 98 % 1017,7 hPa 0,0 l/m 3,2 km/h (1 Bft) O 90 0 min 0,000 mm 0,0 UV-I 0 W/m 0,6 C 0,9 C 8,0 km/h (2 Bft) 97,37 %
23.11.2017 21:40 1,3 C 5,0 C 98 % 1017,7 hPa 0,0 l/m 0,0 km/h (0 Bft) O 90 0 min 0,000 mm 0,0 UV-I 0 W/m 1,0 C 1,3 C 3,2 km/h (1 Bft) 97,37 %
23.11.2017 21:45 1,3 C 5,0 C 98 % 1017,7 hPa 0,0 l/m 0,0 km/h (0 Bft) N 0 0 min 0,000 mm 0,0 UV-I 0 W/m 1,0 C 1,3 C 0,0 km/h (0 Bft) 98,25 %
23.11.2017 21:50 1,5 C 5,0 C 98 % 1017,8 hPa 0,0 l/m 1,6 km/h (1 Bft) O 90 0 min 0,000 mm 0,0 UV-I 0 W/m 1,2 C 1,5 C 4,8 km/h (1 Bft) 97,37 %
23.11.2017 21:55 1,3 C 5,0 C 98 % 1017,8 hPa 0,0 l/m 0,0 km/h (0 Bft) O 90 0 min 0,000 mm 0,0 UV-I 0 W/m 1,0 C 1,3 C 1,6 km/h (1 Bft) 96,49 %
23.11.2017 22:00 1,2 C 5,0 C 98 % 1017,8 hPa 0,0 l/m 0,0 km/h (0 Bft) O 90 0 min 0,000 mm 0,0 UV-I 0 W/m 0,9 C 1,2 C 3,2 km/h (1 Bft) 99,12 %
23.11.2017 22:05 1,0 C 5,0 C 98 % 1017,9 hPa 0,0 l/m 0,0 km/h (0 Bft) N 0 0 min 0,000 mm 0,0 UV-I 0 W/m 0,7 C 1,0 C 0,0 km/h (0 Bft) 97,37 %
23.11.2017 22:10 0,7 C 5,0 C 98 % 1017,9 hPa 0,0 l/m 0,0 km/h (0 Bft) N 0 0 min 0,000 mm 0,0 UV-I 0 W/m 0,4 C 0,7 C 0,0 km/h (0 Bft) 96,49 %
23.11.2017 22:15 0,7 C 5,0 C 98 % 1017,9 hPa 0,0 l/m 1,6 km/h (1 Bft) O 90 0 min 0,000 mm 0,0 UV-I 0 W/m 0,4 C 0,7 C 3,2 km/h (1 Bft) 99,12 %
23.11.2017 22:20 1,1 C 5,0 C 98 % 1018,0 hPa 0,0 l/m 0,0 km/h (0 Bft) O 90 0 min 0,000 mm 0,0 UV-I 0 W/m 0,8 C 1,1 C 1,6 km/h (1 Bft) 100,00 %
23.11.2017 22:25 1,3 C 5,0 C 98 % 1018,0 hPa 0,0 l/m 1,6 km/h (1 Bft) O 90 0 min 0,000 mm 0,0 UV-I 0 W/m 1,0 C 1,3 C 6,4 km/h (2 Bft) 100,00 %
23.11.2017 22:30 1,3 C 5,0 C 98 % 1018,0 hPa 0,0 l/m 1,6 km/h (1 Bft) O 90 0 min 0,000 mm 0,0 UV-I 0 W/m 1,0 C 1,3 C 6,4 km/h (2 Bft) 100,00 %
23.11.2017 22:35 1,3 C 5,0 C 98 % 1018,0 hPa 0,0 l/m 3,2 km/h (1 Bft) O 90 0 min 0,000 mm 0,0 UV-I 0 W/m 1,0 C 1,3 C 6,4 km/h (2 Bft) 100,00 %
23.11.2017 22:40 1,9 C 5,0 C 98 % 1018,0 hPa 0,0 l/m 4,8 km/h (1 Bft) O-NO 67 0 min 0,000 mm 0,0 UV-I 0 W/m 1,6 C 1,9 C 8,0 km/h (2 Bft) 100,00 %
23.11.2017 22:44 1,8 C 5,0 C 98 % 1017,9 hPa 0,0 l/m 5,1 km/h (1 Bft) O-NO 59 0 min 0,000 mm 0,0 UV-I 0 W/m 1,5 C 1,8 C 6,4 km/h (2 Bft) 99,56 %
23.11.2017 22:46 1,8 C 5,0 C 98 % 1017,9 hPa 0,0 l/m 4,5 km/h (1 Bft) O-NO 59 0 min 0,000 mm 0,0 UV-I 0 W/m 1,5 C 1,8 C 6,4 km/h (2 Bft) 97,01 %
23.11.2017 22:48 1,7 C 5,0 C 98 % 1017,9 hPa 0,0 l/m 3,8 km/h (1 Bft) O-NO 59 0 min 0,000 mm 0,0 UV-I 0 W/m 1,4 C 1,7 C 4,8 km/h (1 Bft) 100,00 %
23.11.2017 22:50 1,6 C 5,0 C 98 % 1017,9 hPa 0,0 l/m 2,0 km/h (1 Bft) O-NO 59 0 min 0,000 mm 0,0 UV-I 0 W/m 1,3 C 1,6 C 3,2 km/h (1 Bft) 100,00 %
23.11.2017 22:52 1,5 C 5,0 C 98 % 1018,0 hPa 0,0 l/m 0,2 km/h (0 Bft) O-NO 59 0 min 0,000 mm 0,0 UV-I 0 W/m 1,2 C 1,5 C 1,6 km/h (1 Bft) 97,87 %
23.11.2017 22:54 1,4 C 5,0 C 97 % 1018,2 hPa 0,0 l/m 0,0 km/h (0 Bft) O-NO 59 0 min 0,000 mm 0,0 UV-I 0 W/m 1,0 C 1,4 C 1,6 km/h (1 Bft) 95,45 %
23.11.2017 22:56 1,1 C 5,0 C 97 % 1018,2 hPa 0,0 l/m 0,2 km/h (0 Bft) O-NO 59 0 min 0,000 mm 0,0 UV-I 0 W/m 0,7 C 1,1 C 1,6 km/h (1 Bft) 95,83 %
23.11.2017 22:58 1,0 C 5,0 C 97 % 1018,2 hPa 0,0 l/m 1,4 km/h (1 Bft) O-NO 59 0 min 0,000 mm 0,0 UV-I 0 W/m 0,6 C 1,0 C 3,2 km/h (1 Bft) 92,11 %
23.11.2017 23:00 1,1 C 5,0 C 97 % 1018,2 hPa 0,0 l/m 3,4 km/h (1 Bft) O-NO 59 0 min 0,000 mm 0,0 UV-I 0 W/m 0,7 C 1,1 C 4,8 km/h (1 Bft) 94,64 %
23.11.2017 23:02 1,4 C 5,0 C 97 % 1018,2 hPa 0,0 l/m 3,0 km/h (1 Bft) O-NO 59 0 min 0,000 mm 0,0 UV-I 0 W/m 1,0 C 1,4 C 4,8 km/h (1 Bft) 94,34 %
23.11.2017 23:04 1,6 C 5,0 C 98 % 1018,2 hPa 0,0 l/m 3,0 km/h (1 Bft) O-NO 59 0 min 0,000 mm 0,0 UV-I 0 W/m 1,3 C 1,6 C 4,8 km/h (1 Bft) 88,57 %
23.11.2017 23:06 1,6 C 5,0 C 98 % 1018,2 hPa 0,0 l/m 2,3 km/h (1 Bft) O-NO 59 0 min 0,000 mm 0,0 UV-I 0 W/m 1,3 C 1,6 C 3,2 km/h (1 Bft) 94,00 %
23.11.2017 23:08 1,6 C 5,0 C 98 % 1018,2 hPa 0,0 l/m 3,3 km/h (1 Bft) O-NO 59 0 min 0,000 mm 0,0 UV-I 0 W/m 1,3 C 1,6 C 4,8 km/h (1 Bft) 96,00 %
23.11.2017 23:10 1,7 C 5,0 C 98 % 1018,2 hPa 0,0 l/m 3,3 km/h (1 Bft) O-NO 59 0 min 0,000 mm 0,0 UV-I 0 W/m 1,4 C 1,7 C 4,8 km/h (1 Bft) 95,45 %
23.11.2017 23:12 1,8 C 5,0 C 98 % 1018,2 hPa 0,0 l/m 2,7 km/h (1 Bft) O-NO 59 0 min 0,000 mm 0,0 UV-I 0 W/m 1,5 C 1,8 C 3,2 km/h (1 Bft) 95,74 %
23.11.2017 23:14 1,8 C 5,0 C 98 % 1018,3 hPa 0,0 l/m 2,9 km/h (1 Bft) O-NO 59 0 min 0,000 mm 0,0 UV-I 0 W/m 1,5 C 1,8 C 4,8 km/h (1 Bft) 96,00 %
23.11.2017 23:16 1,8 C 5,0 C 97 % 1018,4 hPa 0,0 l/m 2,2 km/h (1 Bft) O-NO 59 0 min 0,000 mm 0,0 UV-I 0 W/m 1,4 C 1,8 C 3,2 km/h (1 Bft) 94,74 %
23.11.2017 23:18 1,8 C 5,0 C 97 % 1018,4 hPa 0,0 l/m 1,3 km/h (1 Bft) O-NO 59 0 min 0,000 mm 0,0 UV-I 0 W/m 1,4 C 1,8 C 3,2 km/h (1 Bft) 94,00 %
23.11.2017 23:20 1,8 C 5,0 C 98 % 1018,3 hPa 0,0 l/m 0,4 km/h (0 Bft) O-NO 59 0 min 0,000 mm 0,0 UV-I 0 W/m 1,5 C 1,8 C 1,6 km/h (1 Bft) 96,23 %
23.11.2017 23:22 1,6 C 5,0 C 97 % 1018,4 hPa 0,0 l/m 0,3 km/h (0 Bft) O-NO 59 0 min 0,000 mm 0,0 UV-I 0 W/m 1,2 C 1,6 C 1,6 km/h (1 Bft) 95,12 %
23.11.2017 23:24 1,1 C 5,0 C 97 % 1018,4 hPa 0,0 l/m 0,0 km/h (0 Bft) O-NO 59 0 min 0,000 mm 0,0 UV-I 0 W/m 0,7 C 1,1 C 0,0 km/h (0 Bft) 94,34 %
23.11.2017 23:26 0,9 C 5,0 C 97 % 1018,3 hPa 0,0 l/m 0,3 km/h (0 Bft) O-NO 59 0 min 0,000 mm 0,0 UV-I 0 W/m 0,5 C 0,9 C 1,6 km/h (1 Bft) 93,62 %
23.11.2017 23:28 0,9 C 5,0 C 97 % 1018,4 hPa 0,0 l/m 1,6 km/h (1 Bft) O-NO 59 0 min 0,000 mm 0,0 UV-I 0 W/m 0,5 C 0,9 C 3,2 km/h (1 Bft) 95,74 %
23.11.2017 23:30 0,7 C 5,0 C 97 % 1018,3 hPa 0,0 l/m 1,8 km/h (1 Bft) O-NO 59 0 min 0,000 mm 0,0 UV-I 0 W/m 0,3 C 0,7 C 3,2 km/h (1 Bft) 95,74 %
23.11.2017 23:32 0,8 C 5,0 C 97 % 1018,4 hPa 0,0 l/m 2,4 km/h (1 Bft) O-NO 59 0 min 0,000 mm 0,0 UV-I 0 W/m 0,4 C 0,8 C 3,2 km/h (1 Bft) 100,00 %
23.11.2017 23:34 0,8 C 5,0 C 97 % 1018,4 hPa 0,0 l/m 2,5 km/h (1 Bft) O-NO 59 0 min 0,000 mm 0,0 UV-I 0 W/m 0,4 C 0,8 C 3,2 km/h (1 Bft) 96,00 %
23.11.2017 23:36 0,7 C 5,0 C 97 % 1018,4 hPa 0,0 l/m 2,0 km/h (1 Bft) O-NO 59 0 min 0,000 mm 0,0 UV-I 0 W/m 0,3 C 0,7 C 3,2 km/h (1 Bft) 97,62 %
23.11.2017 23:38 0,7 C 5,0 C 97 % 1018,4 hPa 0,0 l/m 1,4 km/h (1 Bft) O-NO 59 0 min 0,000 mm 0,0 UV-I 0 W/m 0,3 C 0,7 C 3,2 km/h (1 Bft) 98,11 %
23.11.2017 23:40 0,8 C 5,0 C 97 % 1018,4 hPa 0,0 l/m 0,6 km/h (0 Bft) O-NO 59 0 min 0,000 mm 0,0 UV-I 0 W/m 0,4 C 0,8 C 3,2 km/h (1 Bft) 95,74 %
23.11.2017 23:42 0,7 C 5,0 C 97 % 1018,4 hPa 0,0 l/m 0,1 km/h (0 Bft) O-NO 59 0 min 0,000 mm 0,0 UV-I 0 W/m 0,3 C 0,7 C 1,6 km/h (1 Bft) 95,74 %
23.11.2017 23:44 0,7 C 5,0 C 97 % 1018,4 hPa 0,0 l/m 0,0 km/h (0 Bft) O-NO 59 0 min 0,000 mm 0,0 UV-I 0 W/m 0,3 C 0,7 C 0,0 km/h (0 Bft) 98,00 %
23.11.2017 23:46 0,7 C 5,0 C 97 % 1018,3 hPa 0,0 l/m 1,1 km/h (1 Bft) O-NO 59 0 min 0,000 mm 0,0 UV-I 0 W/m 0,3 C 0,7 C 1,6 km/h (1 Bft) 97,37 %
23.11.2017 23:48 0,6 C 5,0 C 97 % 1018,3 hPa 0,0 l/m 0,8 km/h (0 Bft) O-NO 59 0 min 0,000 mm 0,0 UV-I 0 W/m 0,2 C 0,6 C 1,6 km/h (1 Bft) 95,74 %
23.11.2017 23:50 0,7 C 5,0 C 97 % 1018,4 hPa 0,0 l/m 0,0 km/h (0 Bft) O-NO 59 0 min 0,000 mm 0,0 UV-I 0 W/m 0,3 C 0,7 C 0,0 km/h (0 Bft) 98,00 %
23.11.2017 23:52 0,8 C 5,0 C 97 % 1018,4 hPa 0,0 l/m 1,4 km/h (1 Bft) O-NO 59 0 min 0,000 mm 0,0 UV-I 0 W/m 0,4 C 0,8 C 4,8 km/h (1 Bft) 96,23 %
23.11.2017 23:54 0,8 C 5,0 C 97 % 1018,3 hPa 0,0 l/m 1,5 km/h (1 Bft) O-NO 59 0 min 0,000 mm 0,0 UV-I 0 W/m 0,4 C 0,8 C 3,2 km/h (1 Bft) 100,00 %
23.11.2017 23:56 0,6 C 5,0 C 97 % 1018,3 hPa 0,0 l/m 0,0 km/h (0 Bft) O-NO 59 0 min 0,000 mm 0,0 UV-I 0 W/m 0,2 C 0,6 C 0,0 km/h (0 Bft) 96,23 %
23.11.2017 23:58 0,4 C 5,0 C 97 % 1018,3 hPa 0,0 l/m 0,0 km/h (0 Bft) O-NO 59 0 min 0,000 mm 0,0 UV-I 0 W/m -0,0 C 0,4 C 1,6 km/h (1 Bft) 97,87 %
_ Min-Zeit 07:02 00:00 13:13 05:00 - 00:00 - - - - - - 07:02 07:02 00:00 23:04
Minimum _ -1,6 C 5,0 C 78 % 1012,1 hPa - 0,0 km/h (0 Bft) - - - - - - -1,9 C -1,6 C 0,0 km/h (0 Bft) 88,57 %
_ Max-Zeit 13:40 00:00 00:00 23:16 01:08 19:04 - - 13:13 13:00 11:58 11:58 13:40 13:26 10:14 00:06
Maximum _ 9,2 C 5,0 C 98 % 1018,4 hPa 0,2 l/m 7,6 km/h
NO (2 Bft)
- - 3 min 0,153 mm 0,9 UV-I 367 W/m 6,4 C 9,1 C 9,7 km/h
S-SW (2 Bft)
100,00 %
Durchschnitt _ 2,1 C 5,0 C 95 % 1014,9 hPa #0,4 l/m 1,7 km/h (1 Bft) NO - #7:34 h #0,737 mm 0,7 UV-I 194 W/m 1,4 C 2,1 C 3,0 km/h (1 Bft) 97,82 %